<?xml version="1.0" encoding="UTF-8" standalone="no" ?>
<gpx xmlns="http://www.topografix.com/GPX/1/1" xmlns:xsi="http://www.w3.org/2001/XMLSchema-instance" xsi:schemaLocation="http://www.topografix.com/GPX/1/1 http://www.topografix.com/GPX/1/1/gpx.xsd" version="1.1" creator="VisuGPX - https://www.visugpx.com">
  <metadata>
    <name>83-D-Collobrières</name>
    <desc><![CDATA[83-D-Collobrières : sur la piste de la Citadelle
2023-03-05]]></desc>
  </metadata>
  <trk>
    <name><![CDATA[2023-03-05-D-Collobrières-R]]></name>
    <extensions>
      <line xmlns="http://www.topografix.com/GPX/gpx_style/0/2">
        <width>4</width>
      </line>
    </extensions>
    <trkseg>
      <trkpt lat="43.22919" lon="6.27642">
        <ele>166.2</ele>
        <time>2023-03-05T08:32:53.000Z</time>
      </trkpt>
      <trkpt lat="43.22919" lon="6.27642">
        <ele>166.2</ele>
        <time>2023-03-05T08:32:54.000Z</time>
      </trkpt>
      <trkpt lat="43.22919" lon="6.27642">
        <ele>166.2</ele>
        <time>2023-03-05T08:32:57.000Z</time>
      </trkpt>
      <trkpt lat="43.22919" lon="6.27642">
        <ele>166.2</ele>
        <time>2023-03-05T08:32:58.000Z</time>
      </trkpt>
      <trkpt lat="43.22919" lon="6.27642">
        <ele>166.1</ele>
        <time>2023-03-05T08:33:00.000Z</time>
      </trkpt>
      <trkpt lat="43.22919" lon="6.27642">
        <ele>166.2</ele>
        <time>2023-03-05T08:33:01.000Z</time>
      </trkpt>
      <trkpt lat="43.22919" lon="6.27643">
        <ele>165.7</ele>
        <time>2023-03-05T08:33:04.000Z</time>
      </trkpt>
      <trkpt lat="43.22919" lon="6.27643">
        <ele>165.7</ele>
        <time>2023-03-05T08:33:08.000Z</time>
      </trkpt>
      <trkpt lat="43.22919" lon="6.27643">
        <ele>167.2</ele>
        <time>2023-03-05T08:33:16.000Z</time>
      </trkpt>
      <trkpt lat="43.22919" lon="6.27643">
        <ele>167.1</ele>
        <time>2023-03-05T08:33:17.000Z</time>
      </trkpt>
      <trkpt lat="43.22919" lon="6.27643">
        <ele>167.1</ele>
        <time>2023-03-05T08:33:23.000Z</time>
      </trkpt>
      <trkpt lat="43.22919" lon="6.27643">
        <ele>167</ele>
        <time>2023-03-05T08:33:24.000Z</time>
      </trkpt>
      <trkpt lat="43.22918" lon="6.27642">
        <ele>166.9</ele>
        <time>2023-03-05T08:33:43.000Z</time>
      </trkpt>
      <trkpt lat="43.22918" lon="6.27642">
        <ele>166.9</ele>
        <time>2023-03-05T08:33:43.000Z</time>
      </trkpt>
      <trkpt lat="43.22918" lon="6.27643">
        <ele>167</ele>
        <time>2023-03-05T08:33:45.000Z</time>
      </trkpt>
      <trkpt lat="43.22918" lon="6.27643">
        <ele>167</ele>
        <time>2023-03-05T08:33:50.000Z</time>
      </trkpt>
      <trkpt lat="43.22918" lon="6.27643">
        <ele>166.9</ele>
        <time>2023-03-05T08:33:51.000Z</time>
      </trkpt>
      <trkpt lat="43.22918" lon="6.27642">
        <ele>166.9</ele>
        <time>2023-03-05T08:33:53.000Z</time>
      </trkpt>
      <trkpt lat="43.22918" lon="6.27641">
        <ele>166.8</ele>
        <time>2023-03-05T08:33:55.000Z</time>
      </trkpt>
      <trkpt lat="43.22918" lon="6.27642">
        <ele>167</ele>
        <time>2023-03-05T08:34:43.000Z</time>
      </trkpt>
      <trkpt lat="43.22918" lon="6.27647">
        <ele>166.9</ele>
        <time>2023-03-05T08:34:53.000Z</time>
      </trkpt>
      <trkpt lat="43.22918" lon="6.27646">
        <ele>166.9</ele>
        <time>2023-03-05T08:34:54.000Z</time>
      </trkpt>
      <trkpt lat="43.22919" lon="6.27646">
        <ele>167</ele>
        <time>2023-03-05T08:34:59.000Z</time>
      </trkpt>
      <trkpt lat="43.22919" lon="6.27646">
        <ele>167</ele>
        <time>2023-03-05T08:35:01.000Z</time>
      </trkpt>
      <trkpt lat="43.22917" lon="6.27632">
        <ele>165.4</ele>
        <time>2023-03-05T08:35:10.000Z</time>
      </trkpt>
      <trkpt lat="43.2292" lon="6.2762">
        <ele>164.5</ele>
        <time>2023-03-05T08:35:17.000Z</time>
      </trkpt>
      <trkpt lat="43.22922" lon="6.27607">
        <ele>163.6</ele>
        <time>2023-03-05T08:35:23.000Z</time>
      </trkpt>
      <trkpt lat="43.22921" lon="6.27594">
        <ele>162.6</ele>
        <time>2023-03-05T08:35:30.000Z</time>
      </trkpt>
      <trkpt lat="43.22918" lon="6.2758">
        <ele>161.5</ele>
        <time>2023-03-05T08:35:38.000Z</time>
      </trkpt>
      <trkpt lat="43.22917" lon="6.27567">
        <ele>160.4</ele>
        <time>2023-03-05T08:35:44.000Z</time>
      </trkpt>
      <trkpt lat="43.22914" lon="6.27554">
        <ele>159.5</ele>
        <time>2023-03-05T08:35:51.000Z</time>
      </trkpt>
      <trkpt lat="43.22911" lon="6.27541">
        <ele>158.1</ele>
        <time>2023-03-05T08:35:59.000Z</time>
      </trkpt>
      <trkpt lat="43.22912" lon="6.27527">
        <ele>157</ele>
        <time>2023-03-05T08:36:06.000Z</time>
      </trkpt>
      <trkpt lat="43.22914" lon="6.27515">
        <ele>156.1</ele>
        <time>2023-03-05T08:36:13.000Z</time>
      </trkpt>
      <trkpt lat="43.22911" lon="6.27516">
        <ele>155.9</ele>
        <time>2023-03-05T08:36:19.000Z</time>
      </trkpt>
      <trkpt lat="43.22911" lon="6.27517">
        <ele>155.9</ele>
        <time>2023-03-05T08:36:22.000Z</time>
      </trkpt>
      <trkpt lat="43.22911" lon="6.27517">
        <ele>155.9</ele>
        <time>2023-03-05T08:36:23.000Z</time>
      </trkpt>
      <trkpt lat="43.22911" lon="6.27517">
        <ele>155.8</ele>
        <time>2023-03-05T08:36:28.000Z</time>
      </trkpt>
      <trkpt lat="43.22913" lon="6.27504">
        <ele>155.4</ele>
        <time>2023-03-05T08:36:36.000Z</time>
      </trkpt>
      <trkpt lat="43.22918" lon="6.27493">
        <ele>154.7</ele>
        <time>2023-03-05T08:36:43.000Z</time>
      </trkpt>
      <trkpt lat="43.22922" lon="6.27482">
        <ele>153.8</ele>
        <time>2023-03-05T08:36:50.000Z</time>
      </trkpt>
      <trkpt lat="43.22927" lon="6.27471">
        <ele>153</ele>
        <time>2023-03-05T08:36:59.000Z</time>
      </trkpt>
      <trkpt lat="43.22933" lon="6.2746">
        <ele>152.5</ele>
        <time>2023-03-05T08:37:07.000Z</time>
      </trkpt>
      <trkpt lat="43.22939" lon="6.27449">
        <ele>151.1</ele>
        <time>2023-03-05T08:37:15.000Z</time>
      </trkpt>
      <trkpt lat="43.22942" lon="6.27446">
        <ele>151</ele>
        <time>2023-03-05T08:37:21.000Z</time>
      </trkpt>
      <trkpt lat="43.22942" lon="6.27445">
        <ele>150.9</ele>
        <time>2023-03-05T08:37:23.000Z</time>
      </trkpt>
      <trkpt lat="43.22949" lon="6.27436">
        <ele>150.1</ele>
        <time>2023-03-05T08:37:31.000Z</time>
      </trkpt>
      <trkpt lat="43.22948" lon="6.27423">
        <ele>149.2</ele>
        <time>2023-03-05T08:37:37.000Z</time>
      </trkpt>
      <trkpt lat="43.22941" lon="6.27414">
        <ele>148.7</ele>
        <time>2023-03-05T08:37:43.000Z</time>
      </trkpt>
      <trkpt lat="43.22932" lon="6.27412">
        <ele>148.1</ele>
        <time>2023-03-05T08:37:49.000Z</time>
      </trkpt>
      <trkpt lat="43.22924" lon="6.27421">
        <ele>147.7</ele>
        <time>2023-03-05T08:37:56.000Z</time>
      </trkpt>
      <trkpt lat="43.22916" lon="6.27428">
        <ele>146.9</ele>
        <time>2023-03-05T08:38:03.000Z</time>
      </trkpt>
      <trkpt lat="43.22909" lon="6.27437">
        <ele>146.1</ele>
        <time>2023-03-05T08:38:10.000Z</time>
      </trkpt>
      <trkpt lat="43.229" lon="6.27444">
        <ele>145.5</ele>
        <time>2023-03-05T08:38:18.000Z</time>
      </trkpt>
      <trkpt lat="43.22891" lon="6.27444">
        <ele>145.4</ele>
        <time>2023-03-05T08:38:26.000Z</time>
      </trkpt>
      <trkpt lat="43.22883" lon="6.27437">
        <ele>145</ele>
        <time>2023-03-05T08:38:39.000Z</time>
      </trkpt>
      <trkpt lat="43.22874" lon="6.2743">
        <ele>145.2</ele>
        <time>2023-03-05T08:38:51.000Z</time>
      </trkpt>
      <trkpt lat="43.22865" lon="6.27424">
        <ele>145.1</ele>
        <time>2023-03-05T08:39:01.000Z</time>
      </trkpt>
      <trkpt lat="43.22858" lon="6.27418">
        <ele>145.5</ele>
        <time>2023-03-05T08:39:08.000Z</time>
      </trkpt>
      <trkpt lat="43.22854" lon="6.27417">
        <ele>145.7</ele>
        <time>2023-03-05T08:39:13.000Z</time>
      </trkpt>
      <trkpt lat="43.22853" lon="6.27416">
        <ele>145.6</ele>
        <time>2023-03-05T08:39:14.000Z</time>
      </trkpt>
      <trkpt lat="43.22843" lon="6.27413">
        <ele>145.6</ele>
        <time>2023-03-05T08:39:21.000Z</time>
      </trkpt>
      <trkpt lat="43.22834" lon="6.27409">
        <ele>146</ele>
        <time>2023-03-05T08:39:28.000Z</time>
      </trkpt>
      <trkpt lat="43.22825" lon="6.27406">
        <ele>146.4</ele>
        <time>2023-03-05T08:39:37.000Z</time>
      </trkpt>
      <trkpt lat="43.22817" lon="6.274">
        <ele>147.1</ele>
        <time>2023-03-05T08:39:47.000Z</time>
      </trkpt>
      <trkpt lat="43.22808" lon="6.27394">
        <ele>147.7</ele>
        <time>2023-03-05T08:39:57.000Z</time>
      </trkpt>
      <trkpt lat="43.228" lon="6.27387">
        <ele>148.1</ele>
        <time>2023-03-05T08:40:04.000Z</time>
      </trkpt>
      <trkpt lat="43.22791" lon="6.27378">
        <ele>148.9</ele>
        <time>2023-03-05T08:40:13.000Z</time>
      </trkpt>
      <trkpt lat="43.22784" lon="6.27371">
        <ele>149.4</ele>
        <time>2023-03-05T08:40:21.000Z</time>
      </trkpt>
      <trkpt lat="43.22782" lon="6.27371">
        <ele>149.5</ele>
        <time>2023-03-05T08:40:25.000Z</time>
      </trkpt>
      <trkpt lat="43.22781" lon="6.27371">
        <ele>149.4</ele>
        <time>2023-03-05T08:40:31.000Z</time>
      </trkpt>
      <trkpt lat="43.22774" lon="6.27362">
        <ele>149.9</ele>
        <time>2023-03-05T08:40:39.000Z</time>
      </trkpt>
      <trkpt lat="43.22768" lon="6.27351">
        <ele>150.3</ele>
        <time>2023-03-05T08:40:47.000Z</time>
      </trkpt>
      <trkpt lat="43.22763" lon="6.2734">
        <ele>150.6</ele>
        <time>2023-03-05T08:40:54.000Z</time>
      </trkpt>
      <trkpt lat="43.22757" lon="6.27329">
        <ele>151.3</ele>
        <time>2023-03-05T08:41:02.000Z</time>
      </trkpt>
      <trkpt lat="43.22754" lon="6.27324">
        <ele>150.9</ele>
        <time>2023-03-05T08:41:08.000Z</time>
      </trkpt>
      <trkpt lat="43.22754" lon="6.27324">
        <ele>150.8</ele>
        <time>2023-03-05T08:41:12.000Z</time>
      </trkpt>
      <trkpt lat="43.22754" lon="6.27324">
        <ele>150.9</ele>
        <time>2023-03-05T08:41:13.000Z</time>
      </trkpt>
      <trkpt lat="43.22754" lon="6.27324">
        <ele>150.7</ele>
        <time>2023-03-05T08:41:15.000Z</time>
      </trkpt>
      <trkpt lat="43.22748" lon="6.27312">
        <ele>150.8</ele>
        <time>2023-03-05T08:41:24.000Z</time>
      </trkpt>
      <trkpt lat="43.22743" lon="6.27301">
        <ele>151.4</ele>
        <time>2023-03-05T08:41:31.000Z</time>
      </trkpt>
      <trkpt lat="43.22738" lon="6.27289">
        <ele>152.1</ele>
        <time>2023-03-05T08:41:39.000Z</time>
      </trkpt>
      <trkpt lat="43.22735" lon="6.27276">
        <ele>152.5</ele>
        <time>2023-03-05T08:41:47.000Z</time>
      </trkpt>
      <trkpt lat="43.22732" lon="6.27265">
        <ele>152.8</ele>
        <time>2023-03-05T08:41:55.000Z</time>
      </trkpt>
      <trkpt lat="43.22728" lon="6.27253">
        <ele>153.5</ele>
        <time>2023-03-05T08:42:02.000Z</time>
      </trkpt>
      <trkpt lat="43.22723" lon="6.27242">
        <ele>153.8</ele>
        <time>2023-03-05T08:42:10.000Z</time>
      </trkpt>
      <trkpt lat="43.22718" lon="6.2723">
        <ele>153.6</ele>
        <time>2023-03-05T08:42:20.000Z</time>
      </trkpt>
      <trkpt lat="43.22713" lon="6.27218">
        <ele>153.9</ele>
        <time>2023-03-05T08:42:27.000Z</time>
      </trkpt>
      <trkpt lat="43.22708" lon="6.27208">
        <ele>154.4</ele>
        <time>2023-03-05T08:42:34.000Z</time>
      </trkpt>
      <trkpt lat="43.22704" lon="6.27197">
        <ele>154.7</ele>
        <time>2023-03-05T08:42:42.000Z</time>
      </trkpt>
      <trkpt lat="43.227" lon="6.27185">
        <ele>154.8</ele>
        <time>2023-03-05T08:42:50.000Z</time>
      </trkpt>
      <trkpt lat="43.22697" lon="6.27173">
        <ele>154.8</ele>
        <time>2023-03-05T08:42:57.000Z</time>
      </trkpt>
      <trkpt lat="43.22692" lon="6.27161">
        <ele>155.1</ele>
        <time>2023-03-05T08:43:05.000Z</time>
      </trkpt>
      <trkpt lat="43.22688" lon="6.2715">
        <ele>155.2</ele>
        <time>2023-03-05T08:43:13.000Z</time>
      </trkpt>
      <trkpt lat="43.22683" lon="6.27138">
        <ele>155.1</ele>
        <time>2023-03-05T08:43:21.000Z</time>
      </trkpt>
      <trkpt lat="43.22677" lon="6.27129">
        <ele>155.2</ele>
        <time>2023-03-05T08:43:29.000Z</time>
      </trkpt>
      <trkpt lat="43.2267" lon="6.2712">
        <ele>155.5</ele>
        <time>2023-03-05T08:43:36.000Z</time>
      </trkpt>
      <trkpt lat="43.22663" lon="6.27111">
        <ele>156</ele>
        <time>2023-03-05T08:43:44.000Z</time>
      </trkpt>
      <trkpt lat="43.22656" lon="6.27103">
        <ele>156.3</ele>
        <time>2023-03-05T08:43:52.000Z</time>
      </trkpt>
      <trkpt lat="43.2265" lon="6.27093">
        <ele>156.8</ele>
        <time>2023-03-05T08:44:01.000Z</time>
      </trkpt>
      <trkpt lat="43.22644" lon="6.27083">
        <ele>157.6</ele>
        <time>2023-03-05T08:44:11.000Z</time>
      </trkpt>
      <trkpt lat="43.22636" lon="6.27074">
        <ele>157.9</ele>
        <time>2023-03-05T08:44:20.000Z</time>
      </trkpt>
      <trkpt lat="43.2263" lon="6.27065">
        <ele>158.4</ele>
        <time>2023-03-05T08:44:28.000Z</time>
      </trkpt>
      <trkpt lat="43.22623" lon="6.27055">
        <ele>158.2</ele>
        <time>2023-03-05T08:44:35.000Z</time>
      </trkpt>
      <trkpt lat="43.22616" lon="6.27044">
        <ele>158.7</ele>
        <time>2023-03-05T08:44:44.000Z</time>
      </trkpt>
      <trkpt lat="43.22612" lon="6.27032">
        <ele>158.9</ele>
        <time>2023-03-05T08:44:53.000Z</time>
      </trkpt>
      <trkpt lat="43.22606" lon="6.27022">
        <ele>158.8</ele>
        <time>2023-03-05T08:45:00.000Z</time>
      </trkpt>
      <trkpt lat="43.226" lon="6.27012">
        <ele>158.8</ele>
        <time>2023-03-05T08:45:07.000Z</time>
      </trkpt>
      <trkpt lat="43.22593" lon="6.27004">
        <ele>159</ele>
        <time>2023-03-05T08:45:14.000Z</time>
      </trkpt>
      <trkpt lat="43.22585" lon="6.26995">
        <ele>159.4</ele>
        <time>2023-03-05T08:45:22.000Z</time>
      </trkpt>
      <trkpt lat="43.22577" lon="6.26987">
        <ele>159.8</ele>
        <time>2023-03-05T08:45:30.000Z</time>
      </trkpt>
      <trkpt lat="43.22569" lon="6.2698">
        <ele>160.4</ele>
        <time>2023-03-05T08:45:39.000Z</time>
      </trkpt>
      <trkpt lat="43.22561" lon="6.26974">
        <ele>161.6</ele>
        <time>2023-03-05T08:45:48.000Z</time>
      </trkpt>
      <trkpt lat="43.22553" lon="6.26967">
        <ele>162.6</ele>
        <time>2023-03-05T08:45:58.000Z</time>
      </trkpt>
      <trkpt lat="43.22545" lon="6.2696">
        <ele>163.1</ele>
        <time>2023-03-05T08:46:04.000Z</time>
      </trkpt>
      <trkpt lat="43.22537" lon="6.26952">
        <ele>164.4</ele>
        <time>2023-03-05T08:46:14.000Z</time>
      </trkpt>
      <trkpt lat="43.22529" lon="6.26944">
        <ele>165.6</ele>
        <time>2023-03-05T08:46:23.000Z</time>
      </trkpt>
      <trkpt lat="43.22524" lon="6.26934">
        <ele>166.7</ele>
        <time>2023-03-05T08:46:33.000Z</time>
      </trkpt>
      <trkpt lat="43.22518" lon="6.26927">
        <ele>167.7</ele>
        <time>2023-03-05T08:46:43.000Z</time>
      </trkpt>
      <trkpt lat="43.22518" lon="6.26927">
        <ele>167.2</ele>
        <time>2023-03-05T08:46:47.000Z</time>
      </trkpt>
      <trkpt lat="43.22514" lon="6.26925">
        <ele>167.8</ele>
        <time>2023-03-05T08:46:57.000Z</time>
      </trkpt>
      <trkpt lat="43.22513" lon="6.26924">
        <ele>167.5</ele>
        <time>2023-03-05T08:47:01.000Z</time>
      </trkpt>
      <trkpt lat="43.22507" lon="6.26914">
        <ele>167.5</ele>
        <time>2023-03-05T08:47:10.000Z</time>
      </trkpt>
      <trkpt lat="43.225" lon="6.26906">
        <ele>166.9</ele>
        <time>2023-03-05T08:47:20.000Z</time>
      </trkpt>
      <trkpt lat="43.22491" lon="6.26902">
        <ele>167.1</ele>
        <time>2023-03-05T08:47:29.000Z</time>
      </trkpt>
      <trkpt lat="43.22481" lon="6.26903">
        <ele>168</ele>
        <time>2023-03-05T08:47:37.000Z</time>
      </trkpt>
      <trkpt lat="43.22472" lon="6.26904">
        <ele>168.7</ele>
        <time>2023-03-05T08:47:46.000Z</time>
      </trkpt>
      <trkpt lat="43.22466" lon="6.26901">
        <ele>168.5</ele>
        <time>2023-03-05T08:47:57.000Z</time>
      </trkpt>
      <trkpt lat="43.22466" lon="6.26902">
        <ele>168.6</ele>
        <time>2023-03-05T08:48:00.000Z</time>
      </trkpt>
      <trkpt lat="43.22462" lon="6.26903">
        <ele>168.4</ele>
        <time>2023-03-05T08:48:08.000Z</time>
      </trkpt>
      <trkpt lat="43.22463" lon="6.26903">
        <ele>168.4</ele>
        <time>2023-03-05T08:48:11.000Z</time>
      </trkpt>
      <trkpt lat="43.22463" lon="6.26903">
        <ele>168.5</ele>
        <time>2023-03-05T08:48:12.000Z</time>
      </trkpt>
      <trkpt lat="43.22463" lon="6.26903">
        <ele>168.5</ele>
        <time>2023-03-05T08:48:18.000Z</time>
      </trkpt>
      <trkpt lat="43.22469" lon="6.26906">
        <ele>169.1</ele>
        <time>2023-03-05T08:48:32.000Z</time>
      </trkpt>
      <trkpt lat="43.22469" lon="6.26906">
        <ele>169.2</ele>
        <time>2023-03-05T08:48:43.000Z</time>
      </trkpt>
      <trkpt lat="43.2247" lon="6.26905">
        <ele>169.3</ele>
        <time>2023-03-05T08:48:45.000Z</time>
      </trkpt>
      <trkpt lat="43.2247" lon="6.26905">
        <ele>169.1</ele>
        <time>2023-03-05T08:48:55.000Z</time>
      </trkpt>
      <trkpt lat="43.2247" lon="6.26905">
        <ele>169</ele>
        <time>2023-03-05T08:48:57.000Z</time>
      </trkpt>
      <trkpt lat="43.2247" lon="6.26905">
        <ele>169.3</ele>
        <time>2023-03-05T08:49:31.000Z</time>
      </trkpt>
      <trkpt lat="43.2247" lon="6.26905">
        <ele>169.3</ele>
        <time>2023-03-05T08:49:32.000Z</time>
      </trkpt>
      <trkpt lat="43.2247" lon="6.26905">
        <ele>169.6</ele>
        <time>2023-03-05T08:50:39.000Z</time>
      </trkpt>
      <trkpt lat="43.2247" lon="6.26905">
        <ele>169.6</ele>
        <time>2023-03-05T08:50:40.000Z</time>
      </trkpt>
      <trkpt lat="43.22471" lon="6.26905">
        <ele>169.5</ele>
        <time>2023-03-05T08:50:41.000Z</time>
      </trkpt>
      <trkpt lat="43.22471" lon="6.26908">
        <ele>169.5</ele>
        <time>2023-03-05T08:50:49.000Z</time>
      </trkpt>
      <trkpt lat="43.22471" lon="6.26908">
        <ele>169.4</ele>
        <time>2023-03-05T08:51:07.000Z</time>
      </trkpt>
      <trkpt lat="43.22471" lon="6.26908">
        <ele>169.5</ele>
        <time>2023-03-05T08:51:08.000Z</time>
      </trkpt>
      <trkpt lat="43.22471" lon="6.26908">
        <ele>169.6</ele>
        <time>2023-03-05T08:51:14.000Z</time>
      </trkpt>
      <trkpt lat="43.22469" lon="6.26907">
        <ele>169.4</ele>
        <time>2023-03-05T08:51:18.000Z</time>
      </trkpt>
      <trkpt lat="43.22468" lon="6.26907">
        <ele>169.1</ele>
        <time>2023-03-05T08:51:36.000Z</time>
      </trkpt>
      <trkpt lat="43.22462" lon="6.26901">
        <ele>168.6</ele>
        <time>2023-03-05T08:51:47.000Z</time>
      </trkpt>
      <trkpt lat="43.22462" lon="6.26901">
        <ele>168.6</ele>
        <time>2023-03-05T08:51:49.000Z</time>
      </trkpt>
      <trkpt lat="43.22461" lon="6.269">
        <ele>168.3</ele>
        <time>2023-03-05T08:51:52.000Z</time>
      </trkpt>
      <trkpt lat="43.22461" lon="6.269">
        <ele>168</ele>
        <time>2023-03-05T08:51:55.000Z</time>
      </trkpt>
      <trkpt lat="43.22451" lon="6.26898">
        <ele>168</ele>
        <time>2023-03-05T08:52:04.000Z</time>
      </trkpt>
      <trkpt lat="43.2245" lon="6.26898">
        <ele>167.9</ele>
        <time>2023-03-05T08:52:07.000Z</time>
      </trkpt>
      <trkpt lat="43.2245" lon="6.26898">
        <ele>167.9</ele>
        <time>2023-03-05T08:52:10.000Z</time>
      </trkpt>
      <trkpt lat="43.2245" lon="6.26898">
        <ele>168</ele>
        <time>2023-03-05T08:52:11.000Z</time>
      </trkpt>
      <trkpt lat="43.2245" lon="6.26898">
        <ele>168</ele>
        <time>2023-03-05T08:52:13.000Z</time>
      </trkpt>
      <trkpt lat="43.22441" lon="6.26897">
        <ele>168</ele>
        <time>2023-03-05T08:52:22.000Z</time>
      </trkpt>
      <trkpt lat="43.22439" lon="6.2691">
        <ele>170.5</ele>
        <time>2023-03-05T08:52:39.000Z</time>
      </trkpt>
      <trkpt lat="43.22434" lon="6.26921">
        <ele>172.1</ele>
        <time>2023-03-05T08:52:54.000Z</time>
      </trkpt>
      <trkpt lat="43.22425" lon="6.26924">
        <ele>174.4</ele>
        <time>2023-03-05T08:53:08.000Z</time>
      </trkpt>
      <trkpt lat="43.22416" lon="6.2693">
        <ele>177.2</ele>
        <time>2023-03-05T08:53:25.000Z</time>
      </trkpt>
      <trkpt lat="43.22407" lon="6.26926">
        <ele>180</ele>
        <time>2023-03-05T08:53:40.000Z</time>
      </trkpt>
      <trkpt lat="43.22398" lon="6.2693">
        <ele>182.4</ele>
        <time>2023-03-05T08:53:54.000Z</time>
      </trkpt>
      <trkpt lat="43.22389" lon="6.26934">
        <ele>184.9</ele>
        <time>2023-03-05T08:54:09.000Z</time>
      </trkpt>
      <trkpt lat="43.2238" lon="6.26934">
        <ele>186</ele>
        <time>2023-03-05T08:54:20.000Z</time>
      </trkpt>
      <trkpt lat="43.2237" lon="6.26937">
        <ele>187.7</ele>
        <time>2023-03-05T08:54:30.000Z</time>
      </trkpt>
      <trkpt lat="43.22362" lon="6.26941">
        <ele>189.2</ele>
        <time>2023-03-05T08:54:41.000Z</time>
      </trkpt>
      <trkpt lat="43.22353" lon="6.26946">
        <ele>190.8</ele>
        <time>2023-03-05T08:54:51.000Z</time>
      </trkpt>
      <trkpt lat="43.22346" lon="6.26954">
        <ele>192.7</ele>
        <time>2023-03-05T08:55:05.000Z</time>
      </trkpt>
      <trkpt lat="43.22338" lon="6.2696">
        <ele>195</ele>
        <time>2023-03-05T08:55:19.000Z</time>
      </trkpt>
      <trkpt lat="43.22329" lon="6.26961">
        <ele>196.8</ele>
        <time>2023-03-05T08:55:31.000Z</time>
      </trkpt>
      <trkpt lat="43.2232" lon="6.26965">
        <ele>198.9</ele>
        <time>2023-03-05T08:55:45.000Z</time>
      </trkpt>
      <trkpt lat="43.22313" lon="6.26972">
        <ele>200.5</ele>
        <time>2023-03-05T08:55:57.000Z</time>
      </trkpt>
      <trkpt lat="43.22305" lon="6.26979">
        <ele>202.8</ele>
        <time>2023-03-05T08:56:14.000Z</time>
      </trkpt>
      <trkpt lat="43.22301" lon="6.26979">
        <ele>203.9</ele>
        <time>2023-03-05T08:56:21.000Z</time>
      </trkpt>
      <trkpt lat="43.22301" lon="6.26978">
        <ele>203.7</ele>
        <time>2023-03-05T08:56:24.000Z</time>
      </trkpt>
      <trkpt lat="43.22293" lon="6.26985">
        <ele>205.7</ele>
        <time>2023-03-05T08:56:41.000Z</time>
      </trkpt>
      <trkpt lat="43.22286" lon="6.26993">
        <ele>208.1</ele>
        <time>2023-03-05T08:56:56.000Z</time>
      </trkpt>
      <trkpt lat="43.22277" lon="6.26996">
        <ele>210.2</ele>
        <time>2023-03-05T08:57:10.000Z</time>
      </trkpt>
      <trkpt lat="43.22268" lon="6.26997">
        <ele>212.2</ele>
        <time>2023-03-05T08:57:26.000Z</time>
      </trkpt>
      <trkpt lat="43.22258" lon="6.26997">
        <ele>214.4</ele>
        <time>2023-03-05T08:57:41.000Z</time>
      </trkpt>
      <trkpt lat="43.2225" lon="6.27">
        <ele>216.4</ele>
        <time>2023-03-05T08:57:53.000Z</time>
      </trkpt>
      <trkpt lat="43.22242" lon="6.26998">
        <ele>218.6</ele>
        <time>2023-03-05T08:58:07.000Z</time>
      </trkpt>
      <trkpt lat="43.22241" lon="6.26998">
        <ele>218.9</ele>
        <time>2023-03-05T08:58:09.000Z</time>
      </trkpt>
      <trkpt lat="43.22232" lon="6.26999">
        <ele>220.3</ele>
        <time>2023-03-05T08:58:20.000Z</time>
      </trkpt>
      <trkpt lat="43.22225" lon="6.27007">
        <ele>222.3</ele>
        <time>2023-03-05T08:58:31.000Z</time>
      </trkpt>
      <trkpt lat="43.22218" lon="6.27015">
        <ele>224.2</ele>
        <time>2023-03-05T08:58:46.000Z</time>
      </trkpt>
      <trkpt lat="43.22218" lon="6.27015">
        <ele>224.4</ele>
        <time>2023-03-05T08:58:48.000Z</time>
      </trkpt>
      <trkpt lat="43.22217" lon="6.27015">
        <ele>224.2</ele>
        <time>2023-03-05T08:58:50.000Z</time>
      </trkpt>
      <trkpt lat="43.22209" lon="6.27019">
        <ele>226.3</ele>
        <time>2023-03-05T08:59:04.000Z</time>
      </trkpt>
      <trkpt lat="43.222" lon="6.27022">
        <ele>228.4</ele>
        <time>2023-03-05T08:59:17.000Z</time>
      </trkpt>
      <trkpt lat="43.22191" lon="6.27023">
        <ele>230.2</ele>
        <time>2023-03-05T08:59:28.000Z</time>
      </trkpt>
      <trkpt lat="43.22182" lon="6.27018">
        <ele>232</ele>
        <time>2023-03-05T08:59:40.000Z</time>
      </trkpt>
      <trkpt lat="43.22173" lon="6.27016">
        <ele>234.2</ele>
        <time>2023-03-05T08:59:55.000Z</time>
      </trkpt>
      <trkpt lat="43.22163" lon="6.27018">
        <ele>236</ele>
        <time>2023-03-05T09:00:06.000Z</time>
      </trkpt>
      <trkpt lat="43.22154" lon="6.27018">
        <ele>238.6</ele>
        <time>2023-03-05T09:00:22.000Z</time>
      </trkpt>
      <trkpt lat="43.22148" lon="6.27015">
        <ele>240.4</ele>
        <time>2023-03-05T09:00:35.000Z</time>
      </trkpt>
      <trkpt lat="43.22148" lon="6.27015">
        <ele>240.7</ele>
        <time>2023-03-05T09:00:39.000Z</time>
      </trkpt>
      <trkpt lat="43.22142" lon="6.27015">
        <ele>242.4</ele>
        <time>2023-03-05T09:00:52.000Z</time>
      </trkpt>
      <trkpt lat="43.22143" lon="6.27015">
        <ele>242.3</ele>
        <time>2023-03-05T09:00:54.000Z</time>
      </trkpt>
      <trkpt lat="43.22143" lon="6.27015">
        <ele>242.3</ele>
        <time>2023-03-05T09:00:55.000Z</time>
      </trkpt>
      <trkpt lat="43.22142" lon="6.27013">
        <ele>242.5</ele>
        <time>2023-03-05T09:01:07.000Z</time>
      </trkpt>
      <trkpt lat="43.22142" lon="6.27013">
        <ele>242.4</ele>
        <time>2023-03-05T09:01:09.000Z</time>
      </trkpt>
      <trkpt lat="43.22142" lon="6.27013">
        <ele>242.4</ele>
        <time>2023-03-05T09:01:10.000Z</time>
      </trkpt>
      <trkpt lat="43.22142" lon="6.27013">
        <ele>242.5</ele>
        <time>2023-03-05T09:01:11.000Z</time>
      </trkpt>
      <trkpt lat="43.22142" lon="6.27012">
        <ele>242.2</ele>
        <time>2023-03-05T09:01:50.000Z</time>
      </trkpt>
      <trkpt lat="43.22142" lon="6.27012">
        <ele>242.4</ele>
        <time>2023-03-05T09:01:52.000Z</time>
      </trkpt>
      <trkpt lat="43.22142" lon="6.27012">
        <ele>242.4</ele>
        <time>2023-03-05T09:01:53.000Z</time>
      </trkpt>
      <trkpt lat="43.22142" lon="6.27012">
        <ele>242.4</ele>
        <time>2023-03-05T09:01:54.000Z</time>
      </trkpt>
      <trkpt lat="43.22142" lon="6.27012">
        <ele>242.7</ele>
        <time>2023-03-05T09:02:43.000Z</time>
      </trkpt>
      <trkpt lat="43.22142" lon="6.27013">
        <ele>242.6</ele>
        <time>2023-03-05T09:02:45.000Z</time>
      </trkpt>
      <trkpt lat="43.22142" lon="6.27013">
        <ele>242.7</ele>
        <time>2023-03-05T09:03:12.000Z</time>
      </trkpt>
      <trkpt lat="43.22142" lon="6.27013">
        <ele>242.7</ele>
        <time>2023-03-05T09:03:15.000Z</time>
      </trkpt>
      <trkpt lat="43.22142" lon="6.27013">
        <ele>242.8</ele>
        <time>2023-03-05T09:03:21.000Z</time>
      </trkpt>
      <trkpt lat="43.22142" lon="6.27014">
        <ele>242.5</ele>
        <time>2023-03-05T09:03:23.000Z</time>
      </trkpt>
      <trkpt lat="43.22142" lon="6.27013">
        <ele>242.9</ele>
        <time>2023-03-05T09:03:33.000Z</time>
      </trkpt>
      <trkpt lat="43.22142" lon="6.27008">
        <ele>243.2</ele>
        <time>2023-03-05T09:03:41.000Z</time>
      </trkpt>
      <trkpt lat="43.22142" lon="6.27008">
        <ele>243.5</ele>
        <time>2023-03-05T09:03:42.000Z</time>
      </trkpt>
      <trkpt lat="43.22138" lon="6.26997">
        <ele>244.8</ele>
        <time>2023-03-05T09:03:52.000Z</time>
      </trkpt>
      <trkpt lat="43.22136" lon="6.26984">
        <ele>245.7</ele>
        <time>2023-03-05T09:04:02.000Z</time>
      </trkpt>
      <trkpt lat="43.22132" lon="6.26973">
        <ele>247.3</ele>
        <time>2023-03-05T09:04:12.000Z</time>
      </trkpt>
      <trkpt lat="43.22124" lon="6.26965">
        <ele>249.3</ele>
        <time>2023-03-05T09:04:24.000Z</time>
      </trkpt>
      <trkpt lat="43.22118" lon="6.26956">
        <ele>250.6</ele>
        <time>2023-03-05T09:04:37.000Z</time>
      </trkpt>
      <trkpt lat="43.22113" lon="6.26945">
        <ele>252.2</ele>
        <time>2023-03-05T09:04:48.000Z</time>
      </trkpt>
      <trkpt lat="43.22112" lon="6.26943">
        <ele>252.1</ele>
        <time>2023-03-05T09:04:52.000Z</time>
      </trkpt>
      <trkpt lat="43.22113" lon="6.26942">
        <ele>252</ele>
        <time>2023-03-05T09:04:57.000Z</time>
      </trkpt>
      <trkpt lat="43.22109" lon="6.26929">
        <ele>253.5</ele>
        <time>2023-03-05T09:05:09.000Z</time>
      </trkpt>
      <trkpt lat="43.22106" lon="6.26916">
        <ele>254.8</ele>
        <time>2023-03-05T09:05:19.000Z</time>
      </trkpt>
      <trkpt lat="43.22108" lon="6.26906">
        <ele>255.5</ele>
        <time>2023-03-05T09:05:30.000Z</time>
      </trkpt>
      <trkpt lat="43.22108" lon="6.26906">
        <ele>255.5</ele>
        <time>2023-03-05T09:05:32.000Z</time>
      </trkpt>
      <trkpt lat="43.22107" lon="6.26893">
        <ele>256.3</ele>
        <time>2023-03-05T09:05:41.000Z</time>
      </trkpt>
      <trkpt lat="43.22104" lon="6.26881">
        <ele>257.6</ele>
        <time>2023-03-05T09:05:52.000Z</time>
      </trkpt>
      <trkpt lat="43.22099" lon="6.2687">
        <ele>259.8</ele>
        <time>2023-03-05T09:06:07.000Z</time>
      </trkpt>
      <trkpt lat="43.22098" lon="6.26869">
        <ele>260.5</ele>
        <time>2023-03-05T09:06:11.000Z</time>
      </trkpt>
      <trkpt lat="43.22098" lon="6.26869">
        <ele>260.7</ele>
        <time>2023-03-05T09:06:12.000Z</time>
      </trkpt>
      <trkpt lat="43.22095" lon="6.26856">
        <ele>263.1</ele>
        <time>2023-03-05T09:06:28.000Z</time>
      </trkpt>
      <trkpt lat="43.22089" lon="6.26847">
        <ele>265.7</ele>
        <time>2023-03-05T09:06:42.000Z</time>
      </trkpt>
      <trkpt lat="43.22084" lon="6.26842">
        <ele>267.4</ele>
        <time>2023-03-05T09:06:55.000Z</time>
      </trkpt>
      <trkpt lat="43.22084" lon="6.26842">
        <ele>267.3</ele>
        <time>2023-03-05T09:06:56.000Z</time>
      </trkpt>
      <trkpt lat="43.22075" lon="6.26837">
        <ele>270.6</ele>
        <time>2023-03-05T09:07:12.000Z</time>
      </trkpt>
      <trkpt lat="43.22069" lon="6.26828">
        <ele>273</ele>
        <time>2023-03-05T09:07:29.000Z</time>
      </trkpt>
      <trkpt lat="43.22061" lon="6.26821">
        <ele>275.3</ele>
        <time>2023-03-05T09:07:44.000Z</time>
      </trkpt>
      <trkpt lat="43.22053" lon="6.26815">
        <ele>277.1</ele>
        <time>2023-03-05T09:07:57.000Z</time>
      </trkpt>
      <trkpt lat="43.22045" lon="6.2681">
        <ele>277.8</ele>
        <time>2023-03-05T09:08:06.000Z</time>
      </trkpt>
      <trkpt lat="43.22035" lon="6.2681">
        <ele>278.3</ele>
        <time>2023-03-05T09:08:15.000Z</time>
      </trkpt>
      <trkpt lat="43.22025" lon="6.26811">
        <ele>279.2</ele>
        <time>2023-03-05T09:08:25.000Z</time>
      </trkpt>
      <trkpt lat="43.22016" lon="6.26813">
        <ele>280.1</ele>
        <time>2023-03-05T09:08:36.000Z</time>
      </trkpt>
      <trkpt lat="43.22011" lon="6.26814">
        <ele>280.8</ele>
        <time>2023-03-05T09:08:45.000Z</time>
      </trkpt>
      <trkpt lat="43.22012" lon="6.26813">
        <ele>280.6</ele>
        <time>2023-03-05T09:08:48.000Z</time>
      </trkpt>
      <trkpt lat="43.22012" lon="6.26813">
        <ele>280.7</ele>
        <time>2023-03-05T09:08:49.000Z</time>
      </trkpt>
      <trkpt lat="43.22012" lon="6.26813">
        <ele>280.7</ele>
        <time>2023-03-05T09:08:54.000Z</time>
      </trkpt>
      <trkpt lat="43.22006" lon="6.26809">
        <ele>281.1</ele>
        <time>2023-03-05T09:09:08.000Z</time>
      </trkpt>
      <trkpt lat="43.22005" lon="6.26809">
        <ele>281.2</ele>
        <time>2023-03-05T09:09:11.000Z</time>
      </trkpt>
      <trkpt lat="43.21999" lon="6.26799">
        <ele>281.3</ele>
        <time>2023-03-05T09:09:22.000Z</time>
      </trkpt>
      <trkpt lat="43.2199" lon="6.26792">
        <ele>280.9</ele>
        <time>2023-03-05T09:09:30.000Z</time>
      </trkpt>
      <trkpt lat="43.21981" lon="6.2679">
        <ele>280.5</ele>
        <time>2023-03-05T09:09:39.000Z</time>
      </trkpt>
      <trkpt lat="43.21972" lon="6.26789">
        <ele>281.2</ele>
        <time>2023-03-05T09:09:47.000Z</time>
      </trkpt>
      <trkpt lat="43.21963" lon="6.26784">
        <ele>281.2</ele>
        <time>2023-03-05T09:09:56.000Z</time>
      </trkpt>
      <trkpt lat="43.21955" lon="6.26778">
        <ele>282.1</ele>
        <time>2023-03-05T09:10:08.000Z</time>
      </trkpt>
      <trkpt lat="43.21947" lon="6.26772">
        <ele>283.2</ele>
        <time>2023-03-05T09:10:17.000Z</time>
      </trkpt>
      <trkpt lat="43.21939" lon="6.26766">
        <ele>283.8</ele>
        <time>2023-03-05T09:10:27.000Z</time>
      </trkpt>
      <trkpt lat="43.21934" lon="6.26755">
        <ele>283.6</ele>
        <time>2023-03-05T09:10:36.000Z</time>
      </trkpt>
      <trkpt lat="43.21931" lon="6.26743">
        <ele>283.6</ele>
        <time>2023-03-05T09:10:45.000Z</time>
      </trkpt>
      <trkpt lat="43.21925" lon="6.26734">
        <ele>283.9</ele>
        <time>2023-03-05T09:10:54.000Z</time>
      </trkpt>
      <trkpt lat="43.2192" lon="6.2673">
        <ele>284.4</ele>
        <time>2023-03-05T09:11:02.000Z</time>
      </trkpt>
      <trkpt lat="43.2192" lon="6.2673">
        <ele>284.4</ele>
        <time>2023-03-05T09:11:08.000Z</time>
      </trkpt>
      <trkpt lat="43.21915" lon="6.26719">
        <ele>285.1</ele>
        <time>2023-03-05T09:11:17.000Z</time>
      </trkpt>
      <trkpt lat="43.2191" lon="6.26709">
        <ele>285.8</ele>
        <time>2023-03-05T09:11:27.000Z</time>
      </trkpt>
      <trkpt lat="43.21904" lon="6.26699">
        <ele>286.7</ele>
        <time>2023-03-05T09:11:39.000Z</time>
      </trkpt>
      <trkpt lat="43.21897" lon="6.26689">
        <ele>287.5</ele>
        <time>2023-03-05T09:11:48.000Z</time>
      </trkpt>
      <trkpt lat="43.21891" lon="6.26679">
        <ele>288.6</ele>
        <time>2023-03-05T09:11:57.000Z</time>
      </trkpt>
      <trkpt lat="43.21885" lon="6.26668">
        <ele>290.5</ele>
        <time>2023-03-05T09:12:08.000Z</time>
      </trkpt>
      <trkpt lat="43.2188" lon="6.26658">
        <ele>291.6</ele>
        <time>2023-03-05T09:12:17.000Z</time>
      </trkpt>
      <trkpt lat="43.21874" lon="6.26647">
        <ele>292.5</ele>
        <time>2023-03-05T09:12:26.000Z</time>
      </trkpt>
      <trkpt lat="43.2187" lon="6.26637">
        <ele>294.1</ele>
        <time>2023-03-05T09:12:38.000Z</time>
      </trkpt>
      <trkpt lat="43.2187" lon="6.26636">
        <ele>294.1</ele>
        <time>2023-03-05T09:12:39.000Z</time>
      </trkpt>
      <trkpt lat="43.21869" lon="6.26636">
        <ele>294.4</ele>
        <time>2023-03-05T09:12:40.000Z</time>
      </trkpt>
      <trkpt lat="43.21864" lon="6.26625">
        <ele>295.5</ele>
        <time>2023-03-05T09:12:51.000Z</time>
      </trkpt>
      <trkpt lat="43.21855" lon="6.26621">
        <ele>296.9</ele>
        <time>2023-03-05T09:13:03.000Z</time>
      </trkpt>
      <trkpt lat="43.21846" lon="6.26618">
        <ele>297</ele>
        <time>2023-03-05T09:13:14.000Z</time>
      </trkpt>
      <trkpt lat="43.21839" lon="6.26609">
        <ele>297.3</ele>
        <time>2023-03-05T09:13:23.000Z</time>
      </trkpt>
      <trkpt lat="43.21831" lon="6.26603">
        <ele>296.4</ele>
        <time>2023-03-05T09:13:32.000Z</time>
      </trkpt>
      <trkpt lat="43.21823" lon="6.26595">
        <ele>295.6</ele>
        <time>2023-03-05T09:13:41.000Z</time>
      </trkpt>
      <trkpt lat="43.21815" lon="6.26588">
        <ele>295.7</ele>
        <time>2023-03-05T09:13:51.000Z</time>
      </trkpt>
      <trkpt lat="43.21809" lon="6.26577">
        <ele>295.8</ele>
        <time>2023-03-05T09:14:00.000Z</time>
      </trkpt>
      <trkpt lat="43.21802" lon="6.26569">
        <ele>294.3</ele>
        <time>2023-03-05T09:14:09.000Z</time>
      </trkpt>
      <trkpt lat="43.21795" lon="6.26559">
        <ele>293.8</ele>
        <time>2023-03-05T09:14:18.000Z</time>
      </trkpt>
      <trkpt lat="43.2179" lon="6.26548">
        <ele>293.8</ele>
        <time>2023-03-05T09:14:26.000Z</time>
      </trkpt>
      <trkpt lat="43.21785" lon="6.26538">
        <ele>294</ele>
        <time>2023-03-05T09:14:35.000Z</time>
      </trkpt>
      <trkpt lat="43.21782" lon="6.26525">
        <ele>293.9</ele>
        <time>2023-03-05T09:14:44.000Z</time>
      </trkpt>
      <trkpt lat="43.21779" lon="6.26513">
        <ele>292.9</ele>
        <time>2023-03-05T09:14:52.000Z</time>
      </trkpt>
      <trkpt lat="43.21778" lon="6.26501">
        <ele>292.8</ele>
        <time>2023-03-05T09:15:00.000Z</time>
      </trkpt>
      <trkpt lat="43.21773" lon="6.26489">
        <ele>292.8</ele>
        <time>2023-03-05T09:15:08.000Z</time>
      </trkpt>
      <trkpt lat="43.21767" lon="6.26478">
        <ele>293.2</ele>
        <time>2023-03-05T09:15:17.000Z</time>
      </trkpt>
      <trkpt lat="43.21761" lon="6.26468">
        <ele>293.2</ele>
        <time>2023-03-05T09:15:24.000Z</time>
      </trkpt>
      <trkpt lat="43.21755" lon="6.26458">
        <ele>293.5</ele>
        <time>2023-03-05T09:15:32.000Z</time>
      </trkpt>
      <trkpt lat="43.21746" lon="6.26452">
        <ele>293.4</ele>
        <time>2023-03-05T09:15:40.000Z</time>
      </trkpt>
      <trkpt lat="43.21739" lon="6.26443">
        <ele>292.4</ele>
        <time>2023-03-05T09:15:49.000Z</time>
      </trkpt>
      <trkpt lat="43.21731" lon="6.26434">
        <ele>291.1</ele>
        <time>2023-03-05T09:15:57.000Z</time>
      </trkpt>
      <trkpt lat="43.21725" lon="6.26424">
        <ele>289.4</ele>
        <time>2023-03-05T09:16:06.000Z</time>
      </trkpt>
      <trkpt lat="43.21719" lon="6.26413">
        <ele>288.7</ele>
        <time>2023-03-05T09:16:14.000Z</time>
      </trkpt>
      <trkpt lat="43.2172" lon="6.264">
        <ele>287.9</ele>
        <time>2023-03-05T09:16:24.000Z</time>
      </trkpt>
      <trkpt lat="43.21721" lon="6.26392">
        <ele>288.3</ele>
        <time>2023-03-05T09:16:35.000Z</time>
      </trkpt>
      <trkpt lat="43.21721" lon="6.26393">
        <ele>288.2</ele>
        <time>2023-03-05T09:16:36.000Z</time>
      </trkpt>
      <trkpt lat="43.21721" lon="6.26393">
        <ele>288.2</ele>
        <time>2023-03-05T09:16:37.000Z</time>
      </trkpt>
      <trkpt lat="43.21721" lon="6.26393">
        <ele>288.2</ele>
        <time>2023-03-05T09:16:39.000Z</time>
      </trkpt>
      <trkpt lat="43.21721" lon="6.26393">
        <ele>288.2</ele>
        <time>2023-03-05T09:16:40.000Z</time>
      </trkpt>
      <trkpt lat="43.21721" lon="6.26393">
        <ele>288.3</ele>
        <time>2023-03-05T09:16:52.000Z</time>
      </trkpt>
      <trkpt lat="43.21721" lon="6.26393">
        <ele>288.2</ele>
        <time>2023-03-05T09:16:54.000Z</time>
      </trkpt>
      <trkpt lat="43.21721" lon="6.26393">
        <ele>288.3</ele>
        <time>2023-03-05T09:16:58.000Z</time>
      </trkpt>
      <trkpt lat="43.21721" lon="6.26393">
        <ele>288.3</ele>
        <time>2023-03-05T09:16:59.000Z</time>
      </trkpt>
      <trkpt lat="43.21721" lon="6.26393">
        <ele>288.3</ele>
        <time>2023-03-05T09:17:05.000Z</time>
      </trkpt>
      <trkpt lat="43.21721" lon="6.26393">
        <ele>288.3</ele>
        <time>2023-03-05T09:17:06.000Z</time>
      </trkpt>
      <trkpt lat="43.21722" lon="6.26394">
        <ele>289.1</ele>
        <time>2023-03-05T09:20:42.000Z</time>
      </trkpt>
      <trkpt lat="43.21722" lon="6.26394">
        <ele>289.1</ele>
        <time>2023-03-05T09:20:43.000Z</time>
      </trkpt>
      <trkpt lat="43.21721" lon="6.26394">
        <ele>289.1</ele>
        <time>2023-03-05T09:20:57.000Z</time>
      </trkpt>
      <trkpt lat="43.21721" lon="6.26394">
        <ele>289.1</ele>
        <time>2023-03-05T09:20:58.000Z</time>
      </trkpt>
      <trkpt lat="43.21721" lon="6.26394">
        <ele>288.9</ele>
        <time>2023-03-05T09:21:08.000Z</time>
      </trkpt>
      <trkpt lat="43.21721" lon="6.26394">
        <ele>288.9</ele>
        <time>2023-03-05T09:21:09.000Z</time>
      </trkpt>
      <trkpt lat="43.21721" lon="6.26394">
        <ele>289</ele>
        <time>2023-03-05T09:21:20.000Z</time>
      </trkpt>
      <trkpt lat="43.21721" lon="6.26394">
        <ele>289</ele>
        <time>2023-03-05T09:21:21.000Z</time>
      </trkpt>
      <trkpt lat="43.21721" lon="6.26394">
        <ele>289.2</ele>
        <time>2023-03-05T09:21:29.000Z</time>
      </trkpt>
      <trkpt lat="43.21721" lon="6.26394">
        <ele>289.2</ele>
        <time>2023-03-05T09:21:30.000Z</time>
      </trkpt>
      <trkpt lat="43.21721" lon="6.26394">
        <ele>289</ele>
        <time>2023-03-05T09:21:35.000Z</time>
      </trkpt>
      <trkpt lat="43.21721" lon="6.26393">
        <ele>289</ele>
        <time>2023-03-05T09:21:38.000Z</time>
      </trkpt>
      <trkpt lat="43.21721" lon="6.26393">
        <ele>289.1</ele>
        <time>2023-03-05T09:21:39.000Z</time>
      </trkpt>
      <trkpt lat="43.21717" lon="6.26381">
        <ele>289.7</ele>
        <time>2023-03-05T09:21:51.000Z</time>
      </trkpt>
      <trkpt lat="43.21711" lon="6.26373">
        <ele>291.7</ele>
        <time>2023-03-05T09:22:03.000Z</time>
      </trkpt>
      <trkpt lat="43.21709" lon="6.2637">
        <ele>292.6</ele>
        <time>2023-03-05T09:22:09.000Z</time>
      </trkpt>
      <trkpt lat="43.21709" lon="6.26369">
        <ele>292.8</ele>
        <time>2023-03-05T09:22:10.000Z</time>
      </trkpt>
      <trkpt lat="43.21704" lon="6.26358">
        <ele>295.7</ele>
        <time>2023-03-05T09:22:29.000Z</time>
      </trkpt>
      <trkpt lat="43.21698" lon="6.26349">
        <ele>299.5</ele>
        <time>2023-03-05T09:22:51.000Z</time>
      </trkpt>
      <trkpt lat="43.2169" lon="6.26343">
        <ele>302.5</ele>
        <time>2023-03-05T09:23:09.000Z</time>
      </trkpt>
      <trkpt lat="43.21682" lon="6.26338">
        <ele>304.6</ele>
        <time>2023-03-05T09:23:25.000Z</time>
      </trkpt>
      <trkpt lat="43.21674" lon="6.2633">
        <ele>307.1</ele>
        <time>2023-03-05T09:23:43.000Z</time>
      </trkpt>
      <trkpt lat="43.21668" lon="6.26321">
        <ele>309.7</ele>
        <time>2023-03-05T09:24:01.000Z</time>
      </trkpt>
      <trkpt lat="43.2166" lon="6.26313">
        <ele>311.6</ele>
        <time>2023-03-05T09:24:15.000Z</time>
      </trkpt>
      <trkpt lat="43.21654" lon="6.26303">
        <ele>312.2</ele>
        <time>2023-03-05T09:24:25.000Z</time>
      </trkpt>
      <trkpt lat="43.21649" lon="6.26292">
        <ele>312.6</ele>
        <time>2023-03-05T09:24:34.000Z</time>
      </trkpt>
      <trkpt lat="43.21642" lon="6.26282">
        <ele>313</ele>
        <time>2023-03-05T09:24:43.000Z</time>
      </trkpt>
      <trkpt lat="43.21634" lon="6.26274">
        <ele>313.2</ele>
        <time>2023-03-05T09:24:54.000Z</time>
      </trkpt>
      <trkpt lat="43.21626" lon="6.26265">
        <ele>313.4</ele>
        <time>2023-03-05T09:25:02.000Z</time>
      </trkpt>
      <trkpt lat="43.21617" lon="6.26258">
        <ele>313.9</ele>
        <time>2023-03-05T09:25:10.000Z</time>
      </trkpt>
      <trkpt lat="43.21611" lon="6.26253">
        <ele>314.4</ele>
        <time>2023-03-05T09:25:18.000Z</time>
      </trkpt>
      <trkpt lat="43.21611" lon="6.26253">
        <ele>314.3</ele>
        <time>2023-03-05T09:25:20.000Z</time>
      </trkpt>
      <trkpt lat="43.21604" lon="6.26245">
        <ele>315.4</ele>
        <time>2023-03-05T09:25:29.000Z</time>
      </trkpt>
      <trkpt lat="43.21594" lon="6.26244">
        <ele>316.2</ele>
        <time>2023-03-05T09:25:37.000Z</time>
      </trkpt>
      <trkpt lat="43.21586" lon="6.26235">
        <ele>318.4</ele>
        <time>2023-03-05T09:25:53.000Z</time>
      </trkpt>
      <trkpt lat="43.21583" lon="6.26225">
        <ele>320.8</ele>
        <time>2023-03-05T09:26:09.000Z</time>
      </trkpt>
      <trkpt lat="43.21583" lon="6.26225">
        <ele>320.9</ele>
        <time>2023-03-05T09:26:10.000Z</time>
      </trkpt>
      <trkpt lat="43.21581" lon="6.26213">
        <ele>322.9</ele>
        <time>2023-03-05T09:26:24.000Z</time>
      </trkpt>
      <trkpt lat="43.21584" lon="6.26201">
        <ele>324.8</ele>
        <time>2023-03-05T09:26:37.000Z</time>
      </trkpt>
      <trkpt lat="43.21585" lon="6.262">
        <ele>324.7</ele>
        <time>2023-03-05T09:26:41.000Z</time>
      </trkpt>
      <trkpt lat="43.21585" lon="6.262">
        <ele>324.9</ele>
        <time>2023-03-05T09:26:42.000Z</time>
      </trkpt>
      <trkpt lat="43.21585" lon="6.262">
        <ele>325</ele>
        <time>2023-03-05T09:26:43.000Z</time>
      </trkpt>
      <trkpt lat="43.21584" lon="6.262">
        <ele>324.6</ele>
        <time>2023-03-05T09:26:49.000Z</time>
      </trkpt>
      <trkpt lat="43.21583" lon="6.26203">
        <ele>324.6</ele>
        <time>2023-03-05T09:26:56.000Z</time>
      </trkpt>
      <trkpt lat="43.21583" lon="6.26203">
        <ele>324.4</ele>
        <time>2023-03-05T09:27:54.000Z</time>
      </trkpt>
      <trkpt lat="43.21584" lon="6.26189">
        <ele>325.6</ele>
        <time>2023-03-05T09:28:04.000Z</time>
      </trkpt>
      <trkpt lat="43.21583" lon="6.26176">
        <ele>326.8</ele>
        <time>2023-03-05T09:28:12.000Z</time>
      </trkpt>
      <trkpt lat="43.21579" lon="6.26165">
        <ele>328.2</ele>
        <time>2023-03-05T09:28:20.000Z</time>
      </trkpt>
      <trkpt lat="43.21573" lon="6.26155">
        <ele>329.6</ele>
        <time>2023-03-05T09:28:29.000Z</time>
      </trkpt>
      <trkpt lat="43.21567" lon="6.26144">
        <ele>331.6</ele>
        <time>2023-03-05T09:28:39.000Z</time>
      </trkpt>
      <trkpt lat="43.21564" lon="6.26131">
        <ele>332.6</ele>
        <time>2023-03-05T09:28:48.000Z</time>
      </trkpt>
      <trkpt lat="43.21561" lon="6.26118">
        <ele>334.7</ele>
        <time>2023-03-05T09:28:58.000Z</time>
      </trkpt>
      <trkpt lat="43.21556" lon="6.26108">
        <ele>336</ele>
        <time>2023-03-05T09:29:06.000Z</time>
      </trkpt>
      <trkpt lat="43.2155" lon="6.26097">
        <ele>336.2</ele>
        <time>2023-03-05T09:29:15.000Z</time>
      </trkpt>
      <trkpt lat="43.21542" lon="6.26091">
        <ele>336.7</ele>
        <time>2023-03-05T09:29:25.000Z</time>
      </trkpt>
      <trkpt lat="43.21542" lon="6.26089">
        <ele>337</ele>
        <time>2023-03-05T09:29:29.000Z</time>
      </trkpt>
      <trkpt lat="43.21542" lon="6.26089">
        <ele>336.8</ele>
        <time>2023-03-05T09:29:30.000Z</time>
      </trkpt>
      <trkpt lat="43.21538" lon="6.26091">
        <ele>336.6</ele>
        <time>2023-03-05T09:29:38.000Z</time>
      </trkpt>
      <trkpt lat="43.21539" lon="6.26091">
        <ele>336.6</ele>
        <time>2023-03-05T09:30:12.000Z</time>
      </trkpt>
      <trkpt lat="43.21539" lon="6.26092">
        <ele>336.9</ele>
        <time>2023-03-05T09:30:16.000Z</time>
      </trkpt>
      <trkpt lat="43.2154" lon="6.26092">
        <ele>337</ele>
        <time>2023-03-05T09:30:24.000Z</time>
      </trkpt>
      <trkpt lat="43.21548" lon="6.26098">
        <ele>336.8</ele>
        <time>2023-03-05T09:30:32.000Z</time>
      </trkpt>
      <trkpt lat="43.21554" lon="6.26108">
        <ele>336.4</ele>
        <time>2023-03-05T09:30:41.000Z</time>
      </trkpt>
      <trkpt lat="43.21556" lon="6.26111">
        <ele>336.2</ele>
        <time>2023-03-05T09:30:45.000Z</time>
      </trkpt>
      <trkpt lat="43.21556" lon="6.26111">
        <ele>336.3</ele>
        <time>2023-03-05T09:30:48.000Z</time>
      </trkpt>
      <trkpt lat="43.21552" lon="6.26099">
        <ele>337</ele>
        <time>2023-03-05T09:30:59.000Z</time>
      </trkpt>
      <trkpt lat="43.21549" lon="6.26091">
        <ele>337.2</ele>
        <time>2023-03-05T09:31:08.000Z</time>
      </trkpt>
      <trkpt lat="43.21549" lon="6.26091">
        <ele>337.2</ele>
        <time>2023-03-05T09:31:28.000Z</time>
      </trkpt>
      <trkpt lat="43.21549" lon="6.26091">
        <ele>337.1</ele>
        <time>2023-03-05T09:31:29.000Z</time>
      </trkpt>
      <trkpt lat="43.21549" lon="6.26091">
        <ele>337.4</ele>
        <time>2023-03-05T09:31:58.000Z</time>
      </trkpt>
      <trkpt lat="43.21549" lon="6.26091">
        <ele>337.4</ele>
        <time>2023-03-05T09:31:59.000Z</time>
      </trkpt>
      <trkpt lat="43.21549" lon="6.26091">
        <ele>337.5</ele>
        <time>2023-03-05T09:32:01.000Z</time>
      </trkpt>
      <trkpt lat="43.21546" lon="6.26091">
        <ele>337.7</ele>
        <time>2023-03-05T09:32:08.000Z</time>
      </trkpt>
      <trkpt lat="43.21546" lon="6.26091">
        <ele>337.5</ele>
        <time>2023-03-05T09:32:17.000Z</time>
      </trkpt>
      <trkpt lat="43.21545" lon="6.26092">
        <ele>337.8</ele>
        <time>2023-03-05T09:32:21.000Z</time>
      </trkpt>
      <trkpt lat="43.21546" lon="6.26092">
        <ele>337.7</ele>
        <time>2023-03-05T09:32:25.000Z</time>
      </trkpt>
      <trkpt lat="43.21546" lon="6.26092">
        <ele>337.7</ele>
        <time>2023-03-05T09:32:26.000Z</time>
      </trkpt>
      <trkpt lat="43.21545" lon="6.26092">
        <ele>337.6</ele>
        <time>2023-03-05T09:32:36.000Z</time>
      </trkpt>
      <trkpt lat="43.21545" lon="6.26089">
        <ele>337.7</ele>
        <time>2023-03-05T09:32:39.000Z</time>
      </trkpt>
      <trkpt lat="43.21545" lon="6.26089">
        <ele>337.7</ele>
        <time>2023-03-05T09:32:41.000Z</time>
      </trkpt>
      <trkpt lat="43.2155" lon="6.26077">
        <ele>338</ele>
        <time>2023-03-05T09:32:53.000Z</time>
      </trkpt>
      <trkpt lat="43.21551" lon="6.26064">
        <ele>338</ele>
        <time>2023-03-05T09:33:02.000Z</time>
      </trkpt>
      <trkpt lat="43.21551" lon="6.26059">
        <ele>337.9</ele>
        <time>2023-03-05T09:33:09.000Z</time>
      </trkpt>
      <trkpt lat="43.21551" lon="6.26058">
        <ele>337.6</ele>
        <time>2023-03-05T09:33:12.000Z</time>
      </trkpt>
      <trkpt lat="43.21553" lon="6.26046">
        <ele>338.1</ele>
        <time>2023-03-05T09:33:20.000Z</time>
      </trkpt>
      <trkpt lat="43.21556" lon="6.26034">
        <ele>338.3</ele>
        <time>2023-03-05T09:33:29.000Z</time>
      </trkpt>
      <trkpt lat="43.21557" lon="6.26029">
        <ele>338.4</ele>
        <time>2023-03-05T09:33:35.000Z</time>
      </trkpt>
      <trkpt lat="43.21557" lon="6.26029">
        <ele>338.3</ele>
        <time>2023-03-05T09:33:37.000Z</time>
      </trkpt>
      <trkpt lat="43.21558" lon="6.26015">
        <ele>338.2</ele>
        <time>2023-03-05T09:33:47.000Z</time>
      </trkpt>
      <trkpt lat="43.21559" lon="6.26002">
        <ele>337.8</ele>
        <time>2023-03-05T09:33:56.000Z</time>
      </trkpt>
      <trkpt lat="43.21559" lon="6.25989">
        <ele>337.8</ele>
        <time>2023-03-05T09:34:04.000Z</time>
      </trkpt>
      <trkpt lat="43.21558" lon="6.25977">
        <ele>338.2</ele>
        <time>2023-03-05T09:34:12.000Z</time>
      </trkpt>
      <trkpt lat="43.21556" lon="6.25967">
        <ele>338.2</ele>
        <time>2023-03-05T09:34:22.000Z</time>
      </trkpt>
      <trkpt lat="43.21556" lon="6.25966">
        <ele>338.3</ele>
        <time>2023-03-05T09:34:30.000Z</time>
      </trkpt>
      <trkpt lat="43.21557" lon="6.25953">
        <ele>338.6</ele>
        <time>2023-03-05T09:34:39.000Z</time>
      </trkpt>
      <trkpt lat="43.21563" lon="6.25942">
        <ele>339.2</ele>
        <time>2023-03-05T09:34:49.000Z</time>
      </trkpt>
      <trkpt lat="43.21567" lon="6.2593">
        <ele>339.8</ele>
        <time>2023-03-05T09:34:57.000Z</time>
      </trkpt>
      <trkpt lat="43.21568" lon="6.25916">
        <ele>340.7</ele>
        <time>2023-03-05T09:35:08.000Z</time>
      </trkpt>
      <trkpt lat="43.21571" lon="6.25903">
        <ele>341.7</ele>
        <time>2023-03-05T09:35:17.000Z</time>
      </trkpt>
      <trkpt lat="43.21573" lon="6.25891">
        <ele>342.6</ele>
        <time>2023-03-05T09:35:26.000Z</time>
      </trkpt>
      <trkpt lat="43.21578" lon="6.25879">
        <ele>343.8</ele>
        <time>2023-03-05T09:35:37.000Z</time>
      </trkpt>
      <trkpt lat="43.2158" lon="6.25866">
        <ele>345</ele>
        <time>2023-03-05T09:35:47.000Z</time>
      </trkpt>
      <trkpt lat="43.2158" lon="6.25854">
        <ele>346.8</ele>
        <time>2023-03-05T09:36:00.000Z</time>
      </trkpt>
      <trkpt lat="43.21575" lon="6.25844">
        <ele>347.9</ele>
        <time>2023-03-05T09:36:10.000Z</time>
      </trkpt>
      <trkpt lat="43.2157" lon="6.25832">
        <ele>349.5</ele>
        <time>2023-03-05T09:36:22.000Z</time>
      </trkpt>
      <trkpt lat="43.21573" lon="6.2582">
        <ele>351.2</ele>
        <time>2023-03-05T09:36:36.000Z</time>
      </trkpt>
      <trkpt lat="43.21577" lon="6.25809">
        <ele>354.1</ele>
        <time>2023-03-05T09:36:56.000Z</time>
      </trkpt>
      <trkpt lat="43.21581" lon="6.25803">
        <ele>355.7</ele>
        <time>2023-03-05T09:37:08.000Z</time>
      </trkpt>
      <trkpt lat="43.21581" lon="6.25803">
        <ele>355.8</ele>
        <time>2023-03-05T09:37:09.000Z</time>
      </trkpt>
      <trkpt lat="43.21584" lon="6.25791">
        <ele>357.5</ele>
        <time>2023-03-05T09:37:22.000Z</time>
      </trkpt>
      <trkpt lat="43.21586" lon="6.25778">
        <ele>359.1</ele>
        <time>2023-03-05T09:37:36.000Z</time>
      </trkpt>
      <trkpt lat="43.21588" lon="6.25766">
        <ele>361.2</ele>
        <time>2023-03-05T09:37:51.000Z</time>
      </trkpt>
      <trkpt lat="43.21591" lon="6.25763">
        <ele>362.2</ele>
        <time>2023-03-05T09:38:00.000Z</time>
      </trkpt>
      <trkpt lat="43.21591" lon="6.25763">
        <ele>362.3</ele>
        <time>2023-03-05T09:38:02.000Z</time>
      </trkpt>
      <trkpt lat="43.21595" lon="6.25751">
        <ele>365</ele>
        <time>2023-03-05T09:38:21.000Z</time>
      </trkpt>
      <trkpt lat="43.21598" lon="6.25739">
        <ele>367.8</ele>
        <time>2023-03-05T09:38:40.000Z</time>
      </trkpt>
      <trkpt lat="43.21603" lon="6.25728">
        <ele>369.7</ele>
        <time>2023-03-05T09:38:53.000Z</time>
      </trkpt>
      <trkpt lat="43.21603" lon="6.25716">
        <ele>372</ele>
        <time>2023-03-05T09:39:09.000Z</time>
      </trkpt>
      <trkpt lat="43.216" lon="6.25703">
        <ele>374.4</ele>
        <time>2023-03-05T09:39:30.000Z</time>
      </trkpt>
      <trkpt lat="43.216" lon="6.25694">
        <ele>376.4</ele>
        <time>2023-03-05T09:39:47.000Z</time>
      </trkpt>
      <trkpt lat="43.216" lon="6.25694">
        <ele>376.5</ele>
        <time>2023-03-05T09:39:48.000Z</time>
      </trkpt>
      <trkpt lat="43.21602" lon="6.25682">
        <ele>378.7</ele>
        <time>2023-03-05T09:40:04.000Z</time>
      </trkpt>
      <trkpt lat="43.21605" lon="6.2567">
        <ele>381.3</ele>
        <time>2023-03-05T09:40:23.000Z</time>
      </trkpt>
      <trkpt lat="43.21609" lon="6.25658">
        <ele>384</ele>
        <time>2023-03-05T09:40:43.000Z</time>
      </trkpt>
      <trkpt lat="43.21617" lon="6.25652">
        <ele>385.5</ele>
        <time>2023-03-05T09:40:57.000Z</time>
      </trkpt>
      <trkpt lat="43.21619" lon="6.25639">
        <ele>385.9</ele>
        <time>2023-03-05T09:41:06.000Z</time>
      </trkpt>
      <trkpt lat="43.21619" lon="6.25627">
        <ele>386.6</ele>
        <time>2023-03-05T09:41:17.000Z</time>
      </trkpt>
      <trkpt lat="43.21621" lon="6.25614">
        <ele>387.6</ele>
        <time>2023-03-05T09:41:28.000Z</time>
      </trkpt>
      <trkpt lat="43.21618" lon="6.25604">
        <ele>388.3</ele>
        <time>2023-03-05T09:41:42.000Z</time>
      </trkpt>
      <trkpt lat="43.21618" lon="6.25604">
        <ele>388.2</ele>
        <time>2023-03-05T09:41:44.000Z</time>
      </trkpt>
      <trkpt lat="43.21618" lon="6.25604">
        <ele>388.1</ele>
        <time>2023-03-05T09:41:45.000Z</time>
      </trkpt>
      <trkpt lat="43.21618" lon="6.25603">
        <ele>388.1</ele>
        <time>2023-03-05T09:41:52.000Z</time>
      </trkpt>
      <trkpt lat="43.21623" lon="6.256">
        <ele>388.6</ele>
        <time>2023-03-05T09:42:03.000Z</time>
      </trkpt>
      <trkpt lat="43.21623" lon="6.256">
        <ele>388.5</ele>
        <time>2023-03-05T09:42:06.000Z</time>
      </trkpt>
      <trkpt lat="43.21623" lon="6.256">
        <ele>388.5</ele>
        <time>2023-03-05T09:42:07.000Z</time>
      </trkpt>
      <trkpt lat="43.21623" lon="6.256">
        <ele>388.3</ele>
        <time>2023-03-05T09:42:22.000Z</time>
      </trkpt>
      <trkpt lat="43.21623" lon="6.256">
        <ele>388.4</ele>
        <time>2023-03-05T09:42:25.000Z</time>
      </trkpt>
      <trkpt lat="43.21623" lon="6.256">
        <ele>388.4</ele>
        <time>2023-03-05T09:42:26.000Z</time>
      </trkpt>
      <trkpt lat="43.21623" lon="6.256">
        <ele>388.3</ele>
        <time>2023-03-05T09:42:28.000Z</time>
      </trkpt>
      <trkpt lat="43.21623" lon="6.256">
        <ele>388.3</ele>
        <time>2023-03-05T09:42:35.000Z</time>
      </trkpt>
      <trkpt lat="43.21624" lon="6.25599">
        <ele>388.5</ele>
        <time>2023-03-05T09:42:37.000Z</time>
      </trkpt>
      <trkpt lat="43.21624" lon="6.25599">
        <ele>388.3</ele>
        <time>2023-03-05T09:42:52.000Z</time>
      </trkpt>
      <trkpt lat="43.21624" lon="6.25599">
        <ele>388.3</ele>
        <time>2023-03-05T09:42:53.000Z</time>
      </trkpt>
      <trkpt lat="43.21624" lon="6.25599">
        <ele>388.6</ele>
        <time>2023-03-05T09:42:58.000Z</time>
      </trkpt>
      <trkpt lat="43.21623" lon="6.25599">
        <ele>388.9</ele>
        <time>2023-03-05T09:43:01.000Z</time>
      </trkpt>
      <trkpt lat="43.21623" lon="6.25599">
        <ele>388.6</ele>
        <time>2023-03-05T09:43:16.000Z</time>
      </trkpt>
      <trkpt lat="43.21623" lon="6.25599">
        <ele>388.7</ele>
        <time>2023-03-05T09:43:17.000Z</time>
      </trkpt>
      <trkpt lat="43.21623" lon="6.25599">
        <ele>388.6</ele>
        <time>2023-03-05T09:43:20.000Z</time>
      </trkpt>
      <trkpt lat="43.21624" lon="6.25601">
        <ele>388</ele>
        <time>2023-03-05T09:43:25.000Z</time>
      </trkpt>
      <trkpt lat="43.21624" lon="6.256">
        <ele>387.8</ele>
        <time>2023-03-05T09:43:27.000Z</time>
      </trkpt>
      <trkpt lat="43.21621" lon="6.25588">
        <ele>387.2</ele>
        <time>2023-03-05T09:43:37.000Z</time>
      </trkpt>
      <trkpt lat="43.21621" lon="6.25587">
        <ele>387.3</ele>
        <time>2023-03-05T09:43:40.000Z</time>
      </trkpt>
      <trkpt lat="43.21621" lon="6.25586">
        <ele>387.1</ele>
        <time>2023-03-05T09:43:55.000Z</time>
      </trkpt>
      <trkpt lat="43.21621" lon="6.25586">
        <ele>387.3</ele>
        <time>2023-03-05T09:43:56.000Z</time>
      </trkpt>
      <trkpt lat="43.21621" lon="6.25586">
        <ele>387.2</ele>
        <time>2023-03-05T09:43:57.000Z</time>
      </trkpt>
      <trkpt lat="43.21621" lon="6.25585">
        <ele>387.4</ele>
        <time>2023-03-05T09:44:00.000Z</time>
      </trkpt>
      <trkpt lat="43.21621" lon="6.25585">
        <ele>387.4</ele>
        <time>2023-03-05T09:44:27.000Z</time>
      </trkpt>
      <trkpt lat="43.21622" lon="6.25573">
        <ele>386.7</ele>
        <time>2023-03-05T09:44:39.000Z</time>
      </trkpt>
      <trkpt lat="43.21625" lon="6.2556">
        <ele>385.8</ele>
        <time>2023-03-05T09:44:47.000Z</time>
      </trkpt>
      <trkpt lat="43.21628" lon="6.25548">
        <ele>384.6</ele>
        <time>2023-03-05T09:44:55.000Z</time>
      </trkpt>
      <trkpt lat="43.21629" lon="6.25535">
        <ele>384.1</ele>
        <time>2023-03-05T09:45:05.000Z</time>
      </trkpt>
      <trkpt lat="43.21632" lon="6.25523">
        <ele>383.9</ele>
        <time>2023-03-05T09:45:11.000Z</time>
      </trkpt>
      <trkpt lat="43.21636" lon="6.25511">
        <ele>384.6</ele>
        <time>2023-03-05T09:45:19.000Z</time>
      </trkpt>
      <trkpt lat="43.21639" lon="6.25498">
        <ele>385.2</ele>
        <time>2023-03-05T09:45:28.000Z</time>
      </trkpt>
      <trkpt lat="43.21642" lon="6.25486">
        <ele>385.1</ele>
        <time>2023-03-05T09:45:39.000Z</time>
      </trkpt>
      <trkpt lat="43.21642" lon="6.25473">
        <ele>385.2</ele>
        <time>2023-03-05T09:45:51.000Z</time>
      </trkpt>
      <trkpt lat="43.21642" lon="6.2546">
        <ele>386</ele>
        <time>2023-03-05T09:46:02.000Z</time>
      </trkpt>
      <trkpt lat="43.2164" lon="6.25446">
        <ele>386.6</ele>
        <time>2023-03-05T09:46:13.000Z</time>
      </trkpt>
      <trkpt lat="43.2164" lon="6.25433">
        <ele>387.5</ele>
        <time>2023-03-05T09:46:23.000Z</time>
      </trkpt>
      <trkpt lat="43.21642" lon="6.2542">
        <ele>388.4</ele>
        <time>2023-03-05T09:46:34.000Z</time>
      </trkpt>
      <trkpt lat="43.21646" lon="6.25409">
        <ele>389.2</ele>
        <time>2023-03-05T09:46:46.000Z</time>
      </trkpt>
      <trkpt lat="43.2165" lon="6.25397">
        <ele>391</ele>
        <time>2023-03-05T09:47:00.000Z</time>
      </trkpt>
      <trkpt lat="43.21652" lon="6.25385">
        <ele>393.1</ele>
        <time>2023-03-05T09:47:15.000Z</time>
      </trkpt>
      <trkpt lat="43.21655" lon="6.25372">
        <ele>394.3</ele>
        <time>2023-03-05T09:47:28.000Z</time>
      </trkpt>
      <trkpt lat="43.21655" lon="6.25367">
        <ele>394.5</ele>
        <time>2023-03-05T09:47:34.000Z</time>
      </trkpt>
      <trkpt lat="43.21655" lon="6.25367">
        <ele>394.6</ele>
        <time>2023-03-05T09:47:35.000Z</time>
      </trkpt>
      <trkpt lat="43.21661" lon="6.25357">
        <ele>393.3</ele>
        <time>2023-03-05T09:47:44.000Z</time>
      </trkpt>
      <trkpt lat="43.2167" lon="6.2535">
        <ele>391.8</ele>
        <time>2023-03-05T09:47:54.000Z</time>
      </trkpt>
      <trkpt lat="43.21676" lon="6.25341">
        <ele>390.7</ele>
        <time>2023-03-05T09:48:03.000Z</time>
      </trkpt>
      <trkpt lat="43.21682" lon="6.25332">
        <ele>390.9</ele>
        <time>2023-03-05T09:48:14.000Z</time>
      </trkpt>
      <trkpt lat="43.21682" lon="6.25332">
        <ele>391</ele>
        <time>2023-03-05T09:48:20.000Z</time>
      </trkpt>
      <trkpt lat="43.21685" lon="6.25319">
        <ele>391.6</ele>
        <time>2023-03-05T09:48:30.000Z</time>
      </trkpt>
      <trkpt lat="43.2169" lon="6.25308">
        <ele>392.6</ele>
        <time>2023-03-05T09:48:39.000Z</time>
      </trkpt>
      <trkpt lat="43.21695" lon="6.25297">
        <ele>393</ele>
        <time>2023-03-05T09:48:48.000Z</time>
      </trkpt>
      <trkpt lat="43.21702" lon="6.25288">
        <ele>393.5</ele>
        <time>2023-03-05T09:48:57.000Z</time>
      </trkpt>
      <trkpt lat="43.21709" lon="6.25279">
        <ele>394.2</ele>
        <time>2023-03-05T09:49:07.000Z</time>
      </trkpt>
      <trkpt lat="43.21712" lon="6.25266">
        <ele>394.3</ele>
        <time>2023-03-05T09:49:16.000Z</time>
      </trkpt>
      <trkpt lat="43.21715" lon="6.25253">
        <ele>394.8</ele>
        <time>2023-03-05T09:49:27.000Z</time>
      </trkpt>
      <trkpt lat="43.21717" lon="6.25241">
        <ele>395.9</ele>
        <time>2023-03-05T09:49:39.000Z</time>
      </trkpt>
      <trkpt lat="43.21718" lon="6.25232">
        <ele>397.7</ele>
        <time>2023-03-05T09:49:53.000Z</time>
      </trkpt>
      <trkpt lat="43.21719" lon="6.25232">
        <ele>397.9</ele>
        <time>2023-03-05T09:49:54.000Z</time>
      </trkpt>
      <trkpt lat="43.21727" lon="6.25225">
        <ele>398.8</ele>
        <time>2023-03-05T09:50:07.000Z</time>
      </trkpt>
      <trkpt lat="43.21731" lon="6.25214">
        <ele>399.6</ele>
        <time>2023-03-05T09:50:17.000Z</time>
      </trkpt>
      <trkpt lat="43.21735" lon="6.25202">
        <ele>401.1</ele>
        <time>2023-03-05T09:50:28.000Z</time>
      </trkpt>
      <trkpt lat="43.21738" lon="6.2519">
        <ele>401.6</ele>
        <time>2023-03-05T09:50:39.000Z</time>
      </trkpt>
      <trkpt lat="43.21742" lon="6.25178">
        <ele>402.7</ele>
        <time>2023-03-05T09:50:51.000Z</time>
      </trkpt>
      <trkpt lat="43.21745" lon="6.25167">
        <ele>405</ele>
        <time>2023-03-05T09:51:07.000Z</time>
      </trkpt>
      <trkpt lat="43.2175" lon="6.25156">
        <ele>405.6</ele>
        <time>2023-03-05T09:51:17.000Z</time>
      </trkpt>
      <trkpt lat="43.21755" lon="6.25146">
        <ele>406.2</ele>
        <time>2023-03-05T09:51:28.000Z</time>
      </trkpt>
      <trkpt lat="43.21764" lon="6.25139">
        <ele>405.2</ele>
        <time>2023-03-05T09:51:38.000Z</time>
      </trkpt>
      <trkpt lat="43.21771" lon="6.25132">
        <ele>405</ele>
        <time>2023-03-05T09:51:46.000Z</time>
      </trkpt>
      <trkpt lat="43.21779" lon="6.25124">
        <ele>404.9</ele>
        <time>2023-03-05T09:51:55.000Z</time>
      </trkpt>
      <trkpt lat="43.21785" lon="6.25116">
        <ele>404.8</ele>
        <time>2023-03-05T09:52:04.000Z</time>
      </trkpt>
      <trkpt lat="43.21791" lon="6.25106">
        <ele>404.3</ele>
        <time>2023-03-05T09:52:12.000Z</time>
      </trkpt>
      <trkpt lat="43.21791" lon="6.25093">
        <ele>404</ele>
        <time>2023-03-05T09:52:20.000Z</time>
      </trkpt>
      <trkpt lat="43.21788" lon="6.25079">
        <ele>403.7</ele>
        <time>2023-03-05T09:52:29.000Z</time>
      </trkpt>
      <trkpt lat="43.21786" lon="6.25066">
        <ele>402.7</ele>
        <time>2023-03-05T09:52:38.000Z</time>
      </trkpt>
      <trkpt lat="43.21786" lon="6.25053">
        <ele>402.9</ele>
        <time>2023-03-05T09:52:47.000Z</time>
      </trkpt>
      <trkpt lat="43.21784" lon="6.25048">
        <ele>402.8</ele>
        <time>2023-03-05T09:52:55.000Z</time>
      </trkpt>
      <trkpt lat="43.21784" lon="6.25048">
        <ele>403</ele>
        <time>2023-03-05T09:52:57.000Z</time>
      </trkpt>
      <trkpt lat="43.21781" lon="6.25036">
        <ele>403.8</ele>
        <time>2023-03-05T09:53:08.000Z</time>
      </trkpt>
      <trkpt lat="43.21775" lon="6.25026">
        <ele>404.3</ele>
        <time>2023-03-05T09:53:18.000Z</time>
      </trkpt>
      <trkpt lat="43.21769" lon="6.25017">
        <ele>404.8</ele>
        <time>2023-03-05T09:53:28.000Z</time>
      </trkpt>
      <trkpt lat="43.21764" lon="6.25005">
        <ele>404.2</ele>
        <time>2023-03-05T09:53:37.000Z</time>
      </trkpt>
      <trkpt lat="43.21759" lon="6.24994">
        <ele>403.9</ele>
        <time>2023-03-05T09:53:46.000Z</time>
      </trkpt>
      <trkpt lat="43.21756" lon="6.24982">
        <ele>403.5</ele>
        <time>2023-03-05T09:53:54.000Z</time>
      </trkpt>
      <trkpt lat="43.21751" lon="6.24972">
        <ele>403</ele>
        <time>2023-03-05T09:54:04.000Z</time>
      </trkpt>
      <trkpt lat="43.21745" lon="6.2496">
        <ele>403.1</ele>
        <time>2023-03-05T09:54:12.000Z</time>
      </trkpt>
      <trkpt lat="43.2174" lon="6.24949">
        <ele>402.6</ele>
        <time>2023-03-05T09:54:20.000Z</time>
      </trkpt>
      <trkpt lat="43.2174" lon="6.24935">
        <ele>402.6</ele>
        <time>2023-03-05T09:54:29.000Z</time>
      </trkpt>
      <trkpt lat="43.21735" lon="6.24923">
        <ele>402.8</ele>
        <time>2023-03-05T09:54:38.000Z</time>
      </trkpt>
      <trkpt lat="43.21729" lon="6.24913">
        <ele>402.7</ele>
        <time>2023-03-05T09:54:48.000Z</time>
      </trkpt>
      <trkpt lat="43.21722" lon="6.24904">
        <ele>403.1</ele>
        <time>2023-03-05T09:54:56.000Z</time>
      </trkpt>
      <trkpt lat="43.21717" lon="6.24894">
        <ele>404.4</ele>
        <time>2023-03-05T09:55:08.000Z</time>
      </trkpt>
      <trkpt lat="43.21713" lon="6.24883">
        <ele>405.2</ele>
        <time>2023-03-05T09:55:17.000Z</time>
      </trkpt>
      <trkpt lat="43.21707" lon="6.24872">
        <ele>406</ele>
        <time>2023-03-05T09:55:28.000Z</time>
      </trkpt>
      <trkpt lat="43.21706" lon="6.24866">
        <ele>406.5</ele>
        <time>2023-03-05T09:55:35.000Z</time>
      </trkpt>
      <trkpt lat="43.21705" lon="6.24865">
        <ele>406.3</ele>
        <time>2023-03-05T09:55:36.000Z</time>
      </trkpt>
      <trkpt lat="43.21701" lon="6.24854">
        <ele>407.2</ele>
        <time>2023-03-05T09:55:46.000Z</time>
      </trkpt>
      <trkpt lat="43.21696" lon="6.24843">
        <ele>408.5</ele>
        <time>2023-03-05T09:55:58.000Z</time>
      </trkpt>
      <trkpt lat="43.21691" lon="6.24832">
        <ele>409.6</ele>
        <time>2023-03-05T09:56:08.000Z</time>
      </trkpt>
      <trkpt lat="43.21691" lon="6.2482">
        <ele>410.6</ele>
        <time>2023-03-05T09:56:18.000Z</time>
      </trkpt>
      <trkpt lat="43.21687" lon="6.24808">
        <ele>411.2</ele>
        <time>2023-03-05T09:56:29.000Z</time>
      </trkpt>
      <trkpt lat="43.21686" lon="6.24795">
        <ele>411.9</ele>
        <time>2023-03-05T09:56:39.000Z</time>
      </trkpt>
      <trkpt lat="43.21683" lon="6.24783">
        <ele>412.5</ele>
        <time>2023-03-05T09:56:49.000Z</time>
      </trkpt>
      <trkpt lat="43.21681" lon="6.2477">
        <ele>412</ele>
        <time>2023-03-05T09:56:59.000Z</time>
      </trkpt>
      <trkpt lat="43.21681" lon="6.24756">
        <ele>411</ele>
        <time>2023-03-05T09:57:09.000Z</time>
      </trkpt>
      <trkpt lat="43.21683" lon="6.24743">
        <ele>409.5</ele>
        <time>2023-03-05T09:57:18.000Z</time>
      </trkpt>
      <trkpt lat="43.21683" lon="6.24729">
        <ele>408.5</ele>
        <time>2023-03-05T09:57:29.000Z</time>
      </trkpt>
      <trkpt lat="43.21684" lon="6.24716">
        <ele>408.2</ele>
        <time>2023-03-05T09:57:38.000Z</time>
      </trkpt>
      <trkpt lat="43.21682" lon="6.24703">
        <ele>408.3</ele>
        <time>2023-03-05T09:57:48.000Z</time>
      </trkpt>
      <trkpt lat="43.21682" lon="6.2469">
        <ele>408.1</ele>
        <time>2023-03-05T09:58:03.000Z</time>
      </trkpt>
      <trkpt lat="43.21683" lon="6.24689">
        <ele>408</ele>
        <time>2023-03-05T09:58:06.000Z</time>
      </trkpt>
      <trkpt lat="43.21684" lon="6.24689">
        <ele>408.2</ele>
        <time>2023-03-05T09:58:15.000Z</time>
      </trkpt>
      <trkpt lat="43.21684" lon="6.24689">
        <ele>408.3</ele>
        <time>2023-03-05T09:58:16.000Z</time>
      </trkpt>
      <trkpt lat="43.21684" lon="6.24689">
        <ele>408.3</ele>
        <time>2023-03-05T09:58:17.000Z</time>
      </trkpt>
      <trkpt lat="43.21684" lon="6.2469">
        <ele>408.1</ele>
        <time>2023-03-05T09:58:20.000Z</time>
      </trkpt>
      <trkpt lat="43.21685" lon="6.2469">
        <ele>408</ele>
        <time>2023-03-05T09:58:22.000Z</time>
      </trkpt>
      <trkpt lat="43.21685" lon="6.2469">
        <ele>407.9</ele>
        <time>2023-03-05T09:58:23.000Z</time>
      </trkpt>
      <trkpt lat="43.21685" lon="6.2469">
        <ele>407.6</ele>
        <time>2023-03-05T09:59:13.000Z</time>
      </trkpt>
      <trkpt lat="43.21685" lon="6.2469">
        <ele>407.6</ele>
        <time>2023-03-05T09:59:14.000Z</time>
      </trkpt>
      <trkpt lat="43.21685" lon="6.2469">
        <ele>407.8</ele>
        <time>2023-03-05T09:59:28.000Z</time>
      </trkpt>
      <trkpt lat="43.21685" lon="6.2469">
        <ele>407.8</ele>
        <time>2023-03-05T09:59:29.000Z</time>
      </trkpt>
      <trkpt lat="43.21685" lon="6.2469">
        <ele>407.5</ele>
        <time>2023-03-05T09:59:45.000Z</time>
      </trkpt>
      <trkpt lat="43.21685" lon="6.2469">
        <ele>407.6</ele>
        <time>2023-03-05T09:59:46.000Z</time>
      </trkpt>
      <trkpt lat="43.21685" lon="6.2469">
        <ele>407.6</ele>
        <time>2023-03-05T10:00:02.000Z</time>
      </trkpt>
      <trkpt lat="43.21685" lon="6.2469">
        <ele>407.6</ele>
        <time>2023-03-05T10:00:03.000Z</time>
      </trkpt>
      <trkpt lat="43.21685" lon="6.2469">
        <ele>407.3</ele>
        <time>2023-03-05T10:00:06.000Z</time>
      </trkpt>
      <trkpt lat="43.21685" lon="6.2469">
        <ele>407.2</ele>
        <time>2023-03-05T10:00:07.000Z</time>
      </trkpt>
      <trkpt lat="43.21685" lon="6.2469">
        <ele>407.2</ele>
        <time>2023-03-05T10:00:23.000Z</time>
      </trkpt>
      <trkpt lat="43.21685" lon="6.2469">
        <ele>407.2</ele>
        <time>2023-03-05T10:00:24.000Z</time>
      </trkpt>
      <trkpt lat="43.21685" lon="6.2469">
        <ele>407.2</ele>
        <time>2023-03-05T10:00:45.000Z</time>
      </trkpt>
      <trkpt lat="43.21685" lon="6.2469">
        <ele>407.2</ele>
        <time>2023-03-05T10:00:46.000Z</time>
      </trkpt>
      <trkpt lat="43.21684" lon="6.2469">
        <ele>407</ele>
        <time>2023-03-05T10:00:50.000Z</time>
      </trkpt>
      <trkpt lat="43.21684" lon="6.2469">
        <ele>407.1</ele>
        <time>2023-03-05T10:00:52.000Z</time>
      </trkpt>
      <trkpt lat="43.21684" lon="6.2469">
        <ele>407</ele>
        <time>2023-03-05T10:01:00.000Z</time>
      </trkpt>
      <trkpt lat="43.21684" lon="6.2469">
        <ele>407</ele>
        <time>2023-03-05T10:01:01.000Z</time>
      </trkpt>
      <trkpt lat="43.21684" lon="6.2469">
        <ele>406.9</ele>
        <time>2023-03-05T10:01:23.000Z</time>
      </trkpt>
      <trkpt lat="43.21684" lon="6.2469">
        <ele>406.9</ele>
        <time>2023-03-05T10:01:24.000Z</time>
      </trkpt>
      <trkpt lat="43.21684" lon="6.2469">
        <ele>406.6</ele>
        <time>2023-03-05T10:01:48.000Z</time>
      </trkpt>
      <trkpt lat="43.21684" lon="6.2469">
        <ele>406.6</ele>
        <time>2023-03-05T10:01:49.000Z</time>
      </trkpt>
      <trkpt lat="43.21684" lon="6.24689">
        <ele>406.8</ele>
        <time>2023-03-05T10:02:01.000Z</time>
      </trkpt>
      <trkpt lat="43.21684" lon="6.24689">
        <ele>406.7</ele>
        <time>2023-03-05T10:02:02.000Z</time>
      </trkpt>
      <trkpt lat="43.21684" lon="6.24689">
        <ele>406.5</ele>
        <time>2023-03-05T10:02:07.000Z</time>
      </trkpt>
      <trkpt lat="43.21684" lon="6.24689">
        <ele>406.6</ele>
        <time>2023-03-05T10:02:08.000Z</time>
      </trkpt>
      <trkpt lat="43.21684" lon="6.24689">
        <ele>406.8</ele>
        <time>2023-03-05T10:02:11.000Z</time>
      </trkpt>
      <trkpt lat="43.21681" lon="6.24676">
        <ele>404.6</ele>
        <time>2023-03-05T10:02:25.000Z</time>
      </trkpt>
      <trkpt lat="43.21686" lon="6.24666">
        <ele>402.9</ele>
        <time>2023-03-05T10:02:33.000Z</time>
      </trkpt>
      <trkpt lat="43.21689" lon="6.24653">
        <ele>401.3</ele>
        <time>2023-03-05T10:02:41.000Z</time>
      </trkpt>
      <trkpt lat="43.21688" lon="6.24641">
        <ele>400</ele>
        <time>2023-03-05T10:02:51.000Z</time>
      </trkpt>
      <trkpt lat="43.21686" lon="6.24628">
        <ele>398.8</ele>
        <time>2023-03-05T10:02:57.000Z</time>
      </trkpt>
      <trkpt lat="43.21684" lon="6.24615">
        <ele>398</ele>
        <time>2023-03-05T10:03:06.000Z</time>
      </trkpt>
      <trkpt lat="43.21685" lon="6.24602">
        <ele>396.7</ele>
        <time>2023-03-05T10:03:14.000Z</time>
      </trkpt>
      <trkpt lat="43.21686" lon="6.24588">
        <ele>396.1</ele>
        <time>2023-03-05T10:03:22.000Z</time>
      </trkpt>
      <trkpt lat="43.21685" lon="6.24576">
        <ele>395.6</ele>
        <time>2023-03-05T10:03:31.000Z</time>
      </trkpt>
      <trkpt lat="43.21686" lon="6.24563">
        <ele>395.2</ele>
        <time>2023-03-05T10:03:40.000Z</time>
      </trkpt>
      <trkpt lat="43.21684" lon="6.2455">
        <ele>395.2</ele>
        <time>2023-03-05T10:03:47.000Z</time>
      </trkpt>
      <trkpt lat="43.21683" lon="6.24537">
        <ele>395</ele>
        <time>2023-03-05T10:03:55.000Z</time>
      </trkpt>
      <trkpt lat="43.21686" lon="6.24524">
        <ele>395.2</ele>
        <time>2023-03-05T10:04:04.000Z</time>
      </trkpt>
      <trkpt lat="43.2169" lon="6.24513">
        <ele>396.3</ele>
        <time>2023-03-05T10:04:15.000Z</time>
      </trkpt>
      <trkpt lat="43.21689" lon="6.24499">
        <ele>397.3</ele>
        <time>2023-03-05T10:04:26.000Z</time>
      </trkpt>
      <trkpt lat="43.21688" lon="6.24485">
        <ele>397.5</ele>
        <time>2023-03-05T10:04:35.000Z</time>
      </trkpt>
      <trkpt lat="43.21686" lon="6.24472">
        <ele>398.1</ele>
        <time>2023-03-05T10:04:44.000Z</time>
      </trkpt>
      <trkpt lat="43.21686" lon="6.24459">
        <ele>398.7</ele>
        <time>2023-03-05T10:04:52.000Z</time>
      </trkpt>
      <trkpt lat="43.21684" lon="6.24446">
        <ele>399.3</ele>
        <time>2023-03-05T10:05:02.000Z</time>
      </trkpt>
      <trkpt lat="43.21686" lon="6.24433">
        <ele>399.2</ele>
        <time>2023-03-05T10:05:12.000Z</time>
      </trkpt>
      <trkpt lat="43.21689" lon="6.2442">
        <ele>399.4</ele>
        <time>2023-03-05T10:05:22.000Z</time>
      </trkpt>
      <trkpt lat="43.21692" lon="6.24408">
        <ele>400.2</ele>
        <time>2023-03-05T10:05:32.000Z</time>
      </trkpt>
      <trkpt lat="43.21693" lon="6.24395">
        <ele>400.8</ele>
        <time>2023-03-05T10:05:42.000Z</time>
      </trkpt>
      <trkpt lat="43.21691" lon="6.24382">
        <ele>401.8</ele>
        <time>2023-03-05T10:05:53.000Z</time>
      </trkpt>
      <trkpt lat="43.2169" lon="6.2437">
        <ele>402.7</ele>
        <time>2023-03-05T10:06:07.000Z</time>
      </trkpt>
      <trkpt lat="43.21693" lon="6.24358">
        <ele>403.8</ele>
        <time>2023-03-05T10:06:20.000Z</time>
      </trkpt>
      <trkpt lat="43.21695" lon="6.24346">
        <ele>405.3</ele>
        <time>2023-03-05T10:06:33.000Z</time>
      </trkpt>
      <trkpt lat="43.21696" lon="6.24334">
        <ele>407.5</ele>
        <time>2023-03-05T10:06:50.000Z</time>
      </trkpt>
      <trkpt lat="43.21696" lon="6.24335">
        <ele>407.9</ele>
        <time>2023-03-05T10:06:52.000Z</time>
      </trkpt>
      <trkpt lat="43.21697" lon="6.24332">
        <ele>408.5</ele>
        <time>2023-03-05T10:06:58.000Z</time>
      </trkpt>
      <trkpt lat="43.21698" lon="6.24332">
        <ele>408.5</ele>
        <time>2023-03-05T10:06:59.000Z</time>
      </trkpt>
      <trkpt lat="43.21701" lon="6.24321">
        <ele>410</ele>
        <time>2023-03-05T10:07:15.000Z</time>
      </trkpt>
      <trkpt lat="43.21703" lon="6.24307">
        <ele>412.2</ele>
        <time>2023-03-05T10:07:30.000Z</time>
      </trkpt>
      <trkpt lat="43.21701" lon="6.24294">
        <ele>414.3</ele>
        <time>2023-03-05T10:07:45.000Z</time>
      </trkpt>
      <trkpt lat="43.21697" lon="6.24282">
        <ele>416.3</ele>
        <time>2023-03-05T10:08:01.000Z</time>
      </trkpt>
      <trkpt lat="43.21694" lon="6.24271">
        <ele>418.1</ele>
        <time>2023-03-05T10:08:15.000Z</time>
      </trkpt>
      <trkpt lat="43.21691" lon="6.24258">
        <ele>420.1</ele>
        <time>2023-03-05T10:08:30.000Z</time>
      </trkpt>
      <trkpt lat="43.21686" lon="6.2425">
        <ele>421.8</ele>
        <time>2023-03-05T10:08:46.000Z</time>
      </trkpt>
      <trkpt lat="43.21686" lon="6.2425">
        <ele>422.1</ele>
        <time>2023-03-05T10:08:51.000Z</time>
      </trkpt>
      <trkpt lat="43.21686" lon="6.2425">
        <ele>422.1</ele>
        <time>2023-03-05T10:08:52.000Z</time>
      </trkpt>
      <trkpt lat="43.21686" lon="6.2425">
        <ele>421.8</ele>
        <time>2023-03-05T10:09:02.000Z</time>
      </trkpt>
      <trkpt lat="43.21678" lon="6.24242">
        <ele>422.8</ele>
        <time>2023-03-05T10:09:14.000Z</time>
      </trkpt>
      <trkpt lat="43.21671" lon="6.24232">
        <ele>423.4</ele>
        <time>2023-03-05T10:09:25.000Z</time>
      </trkpt>
      <trkpt lat="43.21665" lon="6.24222">
        <ele>424.4</ele>
        <time>2023-03-05T10:09:33.000Z</time>
      </trkpt>
      <trkpt lat="43.2166" lon="6.2421">
        <ele>425.6</ele>
        <time>2023-03-05T10:09:45.000Z</time>
      </trkpt>
      <trkpt lat="43.21656" lon="6.24199">
        <ele>426.7</ele>
        <time>2023-03-05T10:09:57.000Z</time>
      </trkpt>
      <trkpt lat="43.21649" lon="6.2419">
        <ele>426.7</ele>
        <time>2023-03-05T10:10:05.000Z</time>
      </trkpt>
      <trkpt lat="43.21642" lon="6.24182">
        <ele>426.6</ele>
        <time>2023-03-05T10:10:15.000Z</time>
      </trkpt>
      <trkpt lat="43.21641" lon="6.24182">
        <ele>426.7</ele>
        <time>2023-03-05T10:10:18.000Z</time>
      </trkpt>
      <trkpt lat="43.21641" lon="6.24181">
        <ele>426.4</ele>
        <time>2023-03-05T10:10:29.000Z</time>
      </trkpt>
      <trkpt lat="43.21641" lon="6.24181">
        <ele>426.4</ele>
        <time>2023-03-05T10:10:30.000Z</time>
      </trkpt>
      <trkpt lat="43.21641" lon="6.24181">
        <ele>426.2</ele>
        <time>2023-03-05T10:10:54.000Z</time>
      </trkpt>
      <trkpt lat="43.21638" lon="6.24184">
        <ele>426.3</ele>
        <time>2023-03-05T10:11:04.000Z</time>
      </trkpt>
      <trkpt lat="43.21638" lon="6.24184">
        <ele>426</ele>
        <time>2023-03-05T10:11:25.000Z</time>
      </trkpt>
      <trkpt lat="43.21638" lon="6.24185">
        <ele>425.8</ele>
        <time>2023-03-05T10:11:29.000Z</time>
      </trkpt>
      <trkpt lat="43.21638" lon="6.24185">
        <ele>426.2</ele>
        <time>2023-03-05T10:11:48.000Z</time>
      </trkpt>
      <trkpt lat="43.21638" lon="6.24185">
        <ele>426.3</ele>
        <time>2023-03-05T10:11:49.000Z</time>
      </trkpt>
      <trkpt lat="43.21638" lon="6.24185">
        <ele>426.1</ele>
        <time>2023-03-05T10:12:21.000Z</time>
      </trkpt>
      <trkpt lat="43.21629" lon="6.24191">
        <ele>424.7</ele>
        <time>2023-03-05T10:12:35.000Z</time>
      </trkpt>
      <trkpt lat="43.21627" lon="6.24193">
        <ele>423.8</ele>
        <time>2023-03-05T10:12:42.000Z</time>
      </trkpt>
      <trkpt lat="43.21627" lon="6.24193">
        <ele>424</ele>
        <time>2023-03-05T10:12:51.000Z</time>
      </trkpt>
      <trkpt lat="43.21631" lon="6.24187">
        <ele>425</ele>
        <time>2023-03-05T10:13:07.000Z</time>
      </trkpt>
      <trkpt lat="43.21631" lon="6.24187">
        <ele>425</ele>
        <time>2023-03-05T10:13:13.000Z</time>
      </trkpt>
      <trkpt lat="43.21631" lon="6.24187">
        <ele>425</ele>
        <time>2023-03-05T10:13:14.000Z</time>
      </trkpt>
      <trkpt lat="43.21631" lon="6.24187">
        <ele>425</ele>
        <time>2023-03-05T10:13:15.000Z</time>
      </trkpt>
      <trkpt lat="43.21631" lon="6.24187">
        <ele>425.1</ele>
        <time>2023-03-05T10:13:16.000Z</time>
      </trkpt>
      <trkpt lat="43.21631" lon="6.24187">
        <ele>425.5</ele>
        <time>2023-03-05T10:13:23.000Z</time>
      </trkpt>
      <trkpt lat="43.21631" lon="6.24187">
        <ele>425.5</ele>
        <time>2023-03-05T10:13:24.000Z</time>
      </trkpt>
      <trkpt lat="43.21631" lon="6.24187">
        <ele>425.5</ele>
        <time>2023-03-05T10:13:58.000Z</time>
      </trkpt>
      <trkpt lat="43.21634" lon="6.24187">
        <ele>425.9</ele>
        <time>2023-03-05T10:14:04.000Z</time>
      </trkpt>
      <trkpt lat="43.21634" lon="6.24187">
        <ele>425.9</ele>
        <time>2023-03-05T10:14:05.000Z</time>
      </trkpt>
      <trkpt lat="43.21634" lon="6.24187">
        <ele>425.8</ele>
        <time>2023-03-05T10:14:06.000Z</time>
      </trkpt>
      <trkpt lat="43.21634" lon="6.24186">
        <ele>426.3</ele>
        <time>2023-03-05T10:15:15.000Z</time>
      </trkpt>
      <trkpt lat="43.21633" lon="6.24187">
        <ele>426.7</ele>
        <time>2023-03-05T10:15:20.000Z</time>
      </trkpt>
      <trkpt lat="43.21633" lon="6.24187">
        <ele>426.8</ele>
        <time>2023-03-05T10:15:31.000Z</time>
      </trkpt>
      <trkpt lat="43.21633" lon="6.24187">
        <ele>426.8</ele>
        <time>2023-03-05T10:15:32.000Z</time>
      </trkpt>
      <trkpt lat="43.21633" lon="6.24187">
        <ele>426.5</ele>
        <time>2023-03-05T10:16:08.000Z</time>
      </trkpt>
      <trkpt lat="43.21632" lon="6.24186">
        <ele>426.2</ele>
        <time>2023-03-05T10:16:16.000Z</time>
      </trkpt>
      <trkpt lat="43.21632" lon="6.24186">
        <ele>426.2</ele>
        <time>2023-03-05T10:16:24.000Z</time>
      </trkpt>
      <trkpt lat="43.21632" lon="6.24185">
        <ele>426</ele>
        <time>2023-03-05T10:16:27.000Z</time>
      </trkpt>
      <trkpt lat="43.21632" lon="6.24185">
        <ele>426</ele>
        <time>2023-03-05T10:16:28.000Z</time>
      </trkpt>
      <trkpt lat="43.21632" lon="6.24185">
        <ele>426.1</ele>
        <time>2023-03-05T10:16:29.000Z</time>
      </trkpt>
      <trkpt lat="43.21633" lon="6.24186">
        <ele>426.3</ele>
        <time>2023-03-05T10:16:46.000Z</time>
      </trkpt>
      <trkpt lat="43.21633" lon="6.24186">
        <ele>426.2</ele>
        <time>2023-03-05T10:16:47.000Z</time>
      </trkpt>
      <trkpt lat="43.21632" lon="6.24185">
        <ele>426.3</ele>
        <time>2023-03-05T10:16:58.000Z</time>
      </trkpt>
      <trkpt lat="43.21632" lon="6.24185">
        <ele>426.3</ele>
        <time>2023-03-05T10:16:59.000Z</time>
      </trkpt>
      <trkpt lat="43.21632" lon="6.24185">
        <ele>426.1</ele>
        <time>2023-03-05T10:17:02.000Z</time>
      </trkpt>
      <trkpt lat="43.21632" lon="6.24185">
        <ele>426.2</ele>
        <time>2023-03-05T10:17:03.000Z</time>
      </trkpt>
      <trkpt lat="43.21633" lon="6.24186">
        <ele>426.3</ele>
        <time>2023-03-05T10:17:07.000Z</time>
      </trkpt>
      <trkpt lat="43.21635" lon="6.24187">
        <ele>426.5</ele>
        <time>2023-03-05T10:17:13.000Z</time>
      </trkpt>
      <trkpt lat="43.21635" lon="6.24187">
        <ele>426.5</ele>
        <time>2023-03-05T10:17:27.000Z</time>
      </trkpt>
      <trkpt lat="43.21635" lon="6.24187">
        <ele>426.5</ele>
        <time>2023-03-05T10:17:28.000Z</time>
      </trkpt>
      <trkpt lat="43.21635" lon="6.24188">
        <ele>427</ele>
        <time>2023-03-05T10:18:05.000Z</time>
      </trkpt>
      <trkpt lat="43.21641" lon="6.24184">
        <ele>426.6</ele>
        <time>2023-03-05T10:18:18.000Z</time>
      </trkpt>
      <trkpt lat="43.21641" lon="6.24184">
        <ele>426.7</ele>
        <time>2023-03-05T10:18:29.000Z</time>
      </trkpt>
      <trkpt lat="43.21641" lon="6.24184">
        <ele>426.8</ele>
        <time>2023-03-05T10:18:30.000Z</time>
      </trkpt>
      <trkpt lat="43.21641" lon="6.24184">
        <ele>426.7</ele>
        <time>2023-03-05T10:18:40.000Z</time>
      </trkpt>
      <trkpt lat="43.21641" lon="6.24184">
        <ele>426.7</ele>
        <time>2023-03-05T10:18:41.000Z</time>
      </trkpt>
      <trkpt lat="43.21641" lon="6.24184">
        <ele>426.9</ele>
        <time>2023-03-05T10:18:45.000Z</time>
      </trkpt>
      <trkpt lat="43.21633" lon="6.24176">
        <ele>425.5</ele>
        <time>2023-03-05T10:19:02.000Z</time>
      </trkpt>
      <trkpt lat="43.21633" lon="6.24176">
        <ele>425.5</ele>
        <time>2023-03-05T10:19:04.000Z</time>
      </trkpt>
      <trkpt lat="43.21633" lon="6.24176">
        <ele>426.3</ele>
        <time>2023-03-05T10:19:13.000Z</time>
      </trkpt>
      <trkpt lat="43.21623" lon="6.24172">
        <ele>424.4</ele>
        <time>2023-03-05T10:19:24.000Z</time>
      </trkpt>
      <trkpt lat="43.21615" lon="6.24166">
        <ele>422.2</ele>
        <time>2023-03-05T10:19:35.000Z</time>
      </trkpt>
      <trkpt lat="43.21607" lon="6.24159">
        <ele>419.3</ele>
        <time>2023-03-05T10:19:51.000Z</time>
      </trkpt>
      <trkpt lat="43.21608" lon="6.24156">
        <ele>419.4</ele>
        <time>2023-03-05T10:19:56.000Z</time>
      </trkpt>
      <trkpt lat="43.21607" lon="6.24156">
        <ele>419.2</ele>
        <time>2023-03-05T10:20:08.000Z</time>
      </trkpt>
      <trkpt lat="43.21599" lon="6.24152">
        <ele>416.2</ele>
        <time>2023-03-05T10:20:23.000Z</time>
      </trkpt>
      <trkpt lat="43.21591" lon="6.24145">
        <ele>413.2</ele>
        <time>2023-03-05T10:20:36.000Z</time>
      </trkpt>
      <trkpt lat="43.21584" lon="6.24137">
        <ele>410.3</ele>
        <time>2023-03-05T10:20:49.000Z</time>
      </trkpt>
      <trkpt lat="43.21577" lon="6.24129">
        <ele>407.8</ele>
        <time>2023-03-05T10:21:01.000Z</time>
      </trkpt>
      <trkpt lat="43.21569" lon="6.24122">
        <ele>405.6</ele>
        <time>2023-03-05T10:21:11.000Z</time>
      </trkpt>
      <trkpt lat="43.21562" lon="6.24112">
        <ele>404.2</ele>
        <time>2023-03-05T10:21:20.000Z</time>
      </trkpt>
      <trkpt lat="43.21554" lon="6.24104">
        <ele>404.4</ele>
        <time>2023-03-05T10:21:28.000Z</time>
      </trkpt>
      <trkpt lat="43.21546" lon="6.24095">
        <ele>404.6</ele>
        <time>2023-03-05T10:21:37.000Z</time>
      </trkpt>
      <trkpt lat="43.21541" lon="6.24084">
        <ele>404.4</ele>
        <time>2023-03-05T10:21:45.000Z</time>
      </trkpt>
      <trkpt lat="43.21534" lon="6.24074">
        <ele>404</ele>
        <time>2023-03-05T10:21:54.000Z</time>
      </trkpt>
      <trkpt lat="43.21529" lon="6.24063">
        <ele>403.5</ele>
        <time>2023-03-05T10:22:02.000Z</time>
      </trkpt>
      <trkpt lat="43.21522" lon="6.24054">
        <ele>402.9</ele>
        <time>2023-03-05T10:22:11.000Z</time>
      </trkpt>
      <trkpt lat="43.21515" lon="6.24046">
        <ele>402.6</ele>
        <time>2023-03-05T10:22:18.000Z</time>
      </trkpt>
      <trkpt lat="43.21508" lon="6.24037">
        <ele>402.8</ele>
        <time>2023-03-05T10:22:27.000Z</time>
      </trkpt>
      <trkpt lat="43.21506" lon="6.24034">
        <ele>403.1</ele>
        <time>2023-03-05T10:22:32.000Z</time>
      </trkpt>
      <trkpt lat="43.21505" lon="6.24033">
        <ele>403</ele>
        <time>2023-03-05T10:22:33.000Z</time>
      </trkpt>
      <trkpt lat="43.21496" lon="6.24032">
        <ele>401.3</ele>
        <time>2023-03-05T10:22:43.000Z</time>
      </trkpt>
      <trkpt lat="43.21487" lon="6.24033">
        <ele>398.3</ele>
        <time>2023-03-05T10:22:59.000Z</time>
      </trkpt>
      <trkpt lat="43.21487" lon="6.24033">
        <ele>398.2</ele>
        <time>2023-03-05T10:23:00.000Z</time>
      </trkpt>
      <trkpt lat="43.21486" lon="6.24033">
        <ele>398</ele>
        <time>2023-03-05T10:23:04.000Z</time>
      </trkpt>
      <trkpt lat="43.21477" lon="6.24035">
        <ele>394.7</ele>
        <time>2023-03-05T10:23:22.000Z</time>
      </trkpt>
      <trkpt lat="43.21474" lon="6.24034">
        <ele>393.7</ele>
        <time>2023-03-05T10:23:30.000Z</time>
      </trkpt>
      <trkpt lat="43.21474" lon="6.24034">
        <ele>393.8</ele>
        <time>2023-03-05T10:23:31.000Z</time>
      </trkpt>
      <trkpt lat="43.21474" lon="6.24034">
        <ele>394</ele>
        <time>2023-03-05T10:23:33.000Z</time>
      </trkpt>
      <trkpt lat="43.21474" lon="6.24034">
        <ele>393.9</ele>
        <time>2023-03-05T10:23:35.000Z</time>
      </trkpt>
      <trkpt lat="43.21474" lon="6.24035">
        <ele>394</ele>
        <time>2023-03-05T10:23:37.000Z</time>
      </trkpt>
      <trkpt lat="43.21475" lon="6.24035">
        <ele>393.9</ele>
        <time>2023-03-05T10:23:38.000Z</time>
      </trkpt>
      <trkpt lat="43.21475" lon="6.24035">
        <ele>393.8</ele>
        <time>2023-03-05T10:23:39.000Z</time>
      </trkpt>
      <trkpt lat="43.21475" lon="6.24034">
        <ele>393.8</ele>
        <time>2023-03-05T10:24:28.000Z</time>
      </trkpt>
      <trkpt lat="43.21475" lon="6.24034">
        <ele>393.7</ele>
        <time>2023-03-05T10:24:32.000Z</time>
      </trkpt>
      <trkpt lat="43.21475" lon="6.24034">
        <ele>393.7</ele>
        <time>2023-03-05T10:24:33.000Z</time>
      </trkpt>
      <trkpt lat="43.21465" lon="6.24037">
        <ele>390.7</ele>
        <time>2023-03-05T10:24:44.000Z</time>
      </trkpt>
      <trkpt lat="43.21456" lon="6.2404">
        <ele>388.2</ele>
        <time>2023-03-05T10:24:54.000Z</time>
      </trkpt>
      <trkpt lat="43.21447" lon="6.24041">
        <ele>385.7</ele>
        <time>2023-03-05T10:25:04.000Z</time>
      </trkpt>
      <trkpt lat="43.21438" lon="6.24041">
        <ele>383.5</ele>
        <time>2023-03-05T10:25:15.000Z</time>
      </trkpt>
      <trkpt lat="43.2143" lon="6.2405">
        <ele>381.1</ele>
        <time>2023-03-05T10:25:24.000Z</time>
      </trkpt>
      <trkpt lat="43.21422" lon="6.24057">
        <ele>379</ele>
        <time>2023-03-05T10:25:34.000Z</time>
      </trkpt>
      <trkpt lat="43.21413" lon="6.24061">
        <ele>375.6</ele>
        <time>2023-03-05T10:25:46.000Z</time>
      </trkpt>
      <trkpt lat="43.21405" lon="6.24067">
        <ele>372.6</ele>
        <time>2023-03-05T10:26:00.000Z</time>
      </trkpt>
      <trkpt lat="43.21397" lon="6.24074">
        <ele>369.7</ele>
        <time>2023-03-05T10:26:11.000Z</time>
      </trkpt>
      <trkpt lat="43.2139" lon="6.24081">
        <ele>367.2</ele>
        <time>2023-03-05T10:26:21.000Z</time>
      </trkpt>
      <trkpt lat="43.21381" lon="6.24087">
        <ele>364.2</ele>
        <time>2023-03-05T10:26:33.000Z</time>
      </trkpt>
      <trkpt lat="43.21373" lon="6.24094">
        <ele>362.1</ele>
        <time>2023-03-05T10:26:42.000Z</time>
      </trkpt>
      <trkpt lat="43.21365" lon="6.241">
        <ele>359.5</ele>
        <time>2023-03-05T10:26:52.000Z</time>
      </trkpt>
      <trkpt lat="43.21361" lon="6.24105">
        <ele>359.2</ele>
        <time>2023-03-05T10:27:06.000Z</time>
      </trkpt>
      <trkpt lat="43.21361" lon="6.24105">
        <ele>359.1</ele>
        <time>2023-03-05T10:27:07.000Z</time>
      </trkpt>
      <trkpt lat="43.21361" lon="6.24105">
        <ele>359.1</ele>
        <time>2023-03-05T10:27:08.000Z</time>
      </trkpt>
      <trkpt lat="43.21361" lon="6.24105">
        <ele>359</ele>
        <time>2023-03-05T10:27:12.000Z</time>
      </trkpt>
      <trkpt lat="43.21361" lon="6.24105">
        <ele>359.1</ele>
        <time>2023-03-05T10:27:14.000Z</time>
      </trkpt>
      <trkpt lat="43.21361" lon="6.24105">
        <ele>359.2</ele>
        <time>2023-03-05T10:27:18.000Z</time>
      </trkpt>
      <trkpt lat="43.21358" lon="6.24104">
        <ele>359.2</ele>
        <time>2023-03-05T10:27:27.000Z</time>
      </trkpt>
      <trkpt lat="43.21358" lon="6.24104">
        <ele>359.1</ele>
        <time>2023-03-05T10:27:47.000Z</time>
      </trkpt>
      <trkpt lat="43.21358" lon="6.24104">
        <ele>359</ele>
        <time>2023-03-05T10:27:49.000Z</time>
      </trkpt>
      <trkpt lat="43.21358" lon="6.24104">
        <ele>359</ele>
        <time>2023-03-05T10:28:18.000Z</time>
      </trkpt>
      <trkpt lat="43.21358" lon="6.24104">
        <ele>358.9</ele>
        <time>2023-03-05T10:28:19.000Z</time>
      </trkpt>
      <trkpt lat="43.21358" lon="6.24104">
        <ele>359</ele>
        <time>2023-03-05T10:28:20.000Z</time>
      </trkpt>
      <trkpt lat="43.21358" lon="6.24104">
        <ele>359.1</ele>
        <time>2023-03-05T10:28:21.000Z</time>
      </trkpt>
      <trkpt lat="43.21358" lon="6.24104">
        <ele>359</ele>
        <time>2023-03-05T10:28:49.000Z</time>
      </trkpt>
      <trkpt lat="43.21358" lon="6.24104">
        <ele>359</ele>
        <time>2023-03-05T10:28:50.000Z</time>
      </trkpt>
      <trkpt lat="43.21358" lon="6.24105">
        <ele>359.1</ele>
        <time>2023-03-05T10:28:58.000Z</time>
      </trkpt>
      <trkpt lat="43.21356" lon="6.24105">
        <ele>359.1</ele>
        <time>2023-03-05T10:29:02.000Z</time>
      </trkpt>
      <trkpt lat="43.21356" lon="6.24105">
        <ele>359.1</ele>
        <time>2023-03-05T10:29:03.000Z</time>
      </trkpt>
      <trkpt lat="43.21356" lon="6.24105">
        <ele>359</ele>
        <time>2023-03-05T10:29:04.000Z</time>
      </trkpt>
      <trkpt lat="43.21356" lon="6.24105">
        <ele>359</ele>
        <time>2023-03-05T10:29:05.000Z</time>
      </trkpt>
      <trkpt lat="43.21349" lon="6.24107">
        <ele>358.4</ele>
        <time>2023-03-05T10:29:19.000Z</time>
      </trkpt>
      <trkpt lat="43.21349" lon="6.24107">
        <ele>358.4</ele>
        <time>2023-03-05T10:29:21.000Z</time>
      </trkpt>
      <trkpt lat="43.21349" lon="6.24107">
        <ele>358.4</ele>
        <time>2023-03-05T10:29:22.000Z</time>
      </trkpt>
      <trkpt lat="43.21349" lon="6.24108">
        <ele>358.5</ele>
        <time>2023-03-05T10:29:25.000Z</time>
      </trkpt>
      <trkpt lat="43.21348" lon="6.24111">
        <ele>358.5</ele>
        <time>2023-03-05T10:29:30.000Z</time>
      </trkpt>
      <trkpt lat="43.21348" lon="6.24111">
        <ele>358.7</ele>
        <time>2023-03-05T10:29:40.000Z</time>
      </trkpt>
      <trkpt lat="43.21339" lon="6.24111">
        <ele>358</ele>
        <time>2023-03-05T10:29:49.000Z</time>
      </trkpt>
      <trkpt lat="43.21329" lon="6.24116">
        <ele>357.5</ele>
        <time>2023-03-05T10:29:57.000Z</time>
      </trkpt>
      <trkpt lat="43.21321" lon="6.24119">
        <ele>357.8</ele>
        <time>2023-03-05T10:30:04.000Z</time>
      </trkpt>
      <trkpt lat="43.21312" lon="6.24124">
        <ele>359.6</ele>
        <time>2023-03-05T10:30:16.000Z</time>
      </trkpt>
      <trkpt lat="43.21303" lon="6.24126">
        <ele>361.8</ele>
        <time>2023-03-05T10:30:31.000Z</time>
      </trkpt>
      <trkpt lat="43.21294" lon="6.24128">
        <ele>364.6</ele>
        <time>2023-03-05T10:30:47.000Z</time>
      </trkpt>
      <trkpt lat="43.21285" lon="6.2413">
        <ele>367.3</ele>
        <time>2023-03-05T10:31:07.000Z</time>
      </trkpt>
      <trkpt lat="43.21276" lon="6.24135">
        <ele>369.5</ele>
        <time>2023-03-05T10:31:24.000Z</time>
      </trkpt>
      <trkpt lat="43.21269" lon="6.24144">
        <ele>371.3</ele>
        <time>2023-03-05T10:31:36.000Z</time>
      </trkpt>
      <trkpt lat="43.21262" lon="6.24153">
        <ele>372.4</ele>
        <time>2023-03-05T10:31:45.000Z</time>
      </trkpt>
      <trkpt lat="43.21255" lon="6.24161">
        <ele>373.1</ele>
        <time>2023-03-05T10:31:55.000Z</time>
      </trkpt>
      <trkpt lat="43.2125" lon="6.24165">
        <ele>374.5</ele>
        <time>2023-03-05T10:32:05.000Z</time>
      </trkpt>
      <trkpt lat="43.2125" lon="6.24165">
        <ele>374.5</ele>
        <time>2023-03-05T10:32:06.000Z</time>
      </trkpt>
      <trkpt lat="43.2125" lon="6.24165">
        <ele>374.5</ele>
        <time>2023-03-05T10:32:07.000Z</time>
      </trkpt>
      <trkpt lat="43.2125" lon="6.24165">
        <ele>374.5</ele>
        <time>2023-03-05T10:32:09.000Z</time>
      </trkpt>
      <trkpt lat="43.21248" lon="6.24169">
        <ele>375.5</ele>
        <time>2023-03-05T10:32:21.000Z</time>
      </trkpt>
      <trkpt lat="43.21248" lon="6.24169">
        <ele>375.8</ele>
        <time>2023-03-05T10:32:29.000Z</time>
      </trkpt>
      <trkpt lat="43.21246" lon="6.24172">
        <ele>376.2</ele>
        <time>2023-03-05T10:32:36.000Z</time>
      </trkpt>
      <trkpt lat="43.21246" lon="6.24172">
        <ele>376.3</ele>
        <time>2023-03-05T10:32:40.000Z</time>
      </trkpt>
      <trkpt lat="43.21238" lon="6.24177">
        <ele>377.6</ele>
        <time>2023-03-05T10:32:52.000Z</time>
      </trkpt>
      <trkpt lat="43.2123" lon="6.24184">
        <ele>378.8</ele>
        <time>2023-03-05T10:33:03.000Z</time>
      </trkpt>
      <trkpt lat="43.21223" lon="6.24193">
        <ele>380.5</ele>
        <time>2023-03-05T10:33:16.000Z</time>
      </trkpt>
      <trkpt lat="43.21214" lon="6.24197">
        <ele>382.5</ele>
        <time>2023-03-05T10:33:33.000Z</time>
      </trkpt>
      <trkpt lat="43.21205" lon="6.24199">
        <ele>385.7</ele>
        <time>2023-03-05T10:33:54.000Z</time>
      </trkpt>
      <trkpt lat="43.21205" lon="6.24199">
        <ele>386.3</ele>
        <time>2023-03-05T10:33:59.000Z</time>
      </trkpt>
      <trkpt lat="43.21205" lon="6.24199">
        <ele>386.2</ele>
        <time>2023-03-05T10:34:19.000Z</time>
      </trkpt>
      <trkpt lat="43.21206" lon="6.242">
        <ele>386.5</ele>
        <time>2023-03-05T10:34:23.000Z</time>
      </trkpt>
      <trkpt lat="43.21206" lon="6.24201">
        <ele>386.3</ele>
        <time>2023-03-05T10:34:35.000Z</time>
      </trkpt>
      <trkpt lat="43.21206" lon="6.24202">
        <ele>386.1</ele>
        <time>2023-03-05T10:34:39.000Z</time>
      </trkpt>
      <trkpt lat="43.21206" lon="6.24202">
        <ele>386.1</ele>
        <time>2023-03-05T10:34:40.000Z</time>
      </trkpt>
      <trkpt lat="43.21206" lon="6.24202">
        <ele>386.2</ele>
        <time>2023-03-05T10:34:42.000Z</time>
      </trkpt>
      <trkpt lat="43.21206" lon="6.24202">
        <ele>386.2</ele>
        <time>2023-03-05T10:34:43.000Z</time>
      </trkpt>
      <trkpt lat="43.21206" lon="6.24202">
        <ele>386.3</ele>
        <time>2023-03-05T10:34:44.000Z</time>
      </trkpt>
      <trkpt lat="43.21206" lon="6.24203">
        <ele>386.3</ele>
        <time>2023-03-05T10:35:30.000Z</time>
      </trkpt>
      <trkpt lat="43.21206" lon="6.24203">
        <ele>386.1</ele>
        <time>2023-03-05T10:35:32.000Z</time>
      </trkpt>
      <trkpt lat="43.21205" lon="6.24203">
        <ele>385.9</ele>
        <time>2023-03-05T10:35:37.000Z</time>
      </trkpt>
      <trkpt lat="43.21199" lon="6.24212">
        <ele>386.2</ele>
        <time>2023-03-05T10:35:55.000Z</time>
      </trkpt>
      <trkpt lat="43.21195" lon="6.24224">
        <ele>385.5</ele>
        <time>2023-03-05T10:36:07.000Z</time>
      </trkpt>
      <trkpt lat="43.21194" lon="6.24236">
        <ele>384.4</ele>
        <time>2023-03-05T10:36:18.000Z</time>
      </trkpt>
      <trkpt lat="43.21191" lon="6.24248">
        <ele>384.1</ele>
        <time>2023-03-05T10:36:28.000Z</time>
      </trkpt>
      <trkpt lat="43.21185" lon="6.24258">
        <ele>382.5</ele>
        <time>2023-03-05T10:36:42.000Z</time>
      </trkpt>
      <trkpt lat="43.21179" lon="6.24267">
        <ele>380</ele>
        <time>2023-03-05T10:37:04.000Z</time>
      </trkpt>
      <trkpt lat="43.21172" lon="6.24275">
        <ele>377.3</ele>
        <time>2023-03-05T10:37:20.000Z</time>
      </trkpt>
      <trkpt lat="43.21163" lon="6.24283">
        <ele>375.2</ele>
        <time>2023-03-05T10:37:31.000Z</time>
      </trkpt>
      <trkpt lat="43.21155" lon="6.2429">
        <ele>373.9</ele>
        <time>2023-03-05T10:37:40.000Z</time>
      </trkpt>
      <trkpt lat="43.21148" lon="6.24297">
        <ele>372.4</ele>
        <time>2023-03-05T10:37:49.000Z</time>
      </trkpt>
      <trkpt lat="43.2114" lon="6.24304">
        <ele>372.2</ele>
        <time>2023-03-05T10:37:59.000Z</time>
      </trkpt>
      <trkpt lat="43.21133" lon="6.24312">
        <ele>370.9</ele>
        <time>2023-03-05T10:38:08.000Z</time>
      </trkpt>
      <trkpt lat="43.21125" lon="6.24319">
        <ele>369.9</ele>
        <time>2023-03-05T10:38:16.000Z</time>
      </trkpt>
      <trkpt lat="43.21118" lon="6.24326">
        <ele>368.7</ele>
        <time>2023-03-05T10:38:24.000Z</time>
      </trkpt>
      <trkpt lat="43.2111" lon="6.24335">
        <ele>368.6</ele>
        <time>2023-03-05T10:38:32.000Z</time>
      </trkpt>
      <trkpt lat="43.21102" lon="6.24342">
        <ele>369</ele>
        <time>2023-03-05T10:38:41.000Z</time>
      </trkpt>
      <trkpt lat="43.21095" lon="6.2435">
        <ele>369.7</ele>
        <time>2023-03-05T10:38:50.000Z</time>
      </trkpt>
      <trkpt lat="43.21087" lon="6.24357">
        <ele>370.4</ele>
        <time>2023-03-05T10:39:00.000Z</time>
      </trkpt>
      <trkpt lat="43.2108" lon="6.24364">
        <ele>370.4</ele>
        <time>2023-03-05T10:39:10.000Z</time>
      </trkpt>
      <trkpt lat="43.21072" lon="6.2437">
        <ele>370.4</ele>
        <time>2023-03-05T10:39:20.000Z</time>
      </trkpt>
      <trkpt lat="43.21063" lon="6.24373">
        <ele>369.1</ele>
        <time>2023-03-05T10:39:32.000Z</time>
      </trkpt>
      <trkpt lat="43.21057" lon="6.24373">
        <ele>368.4</ele>
        <time>2023-03-05T10:39:43.000Z</time>
      </trkpt>
      <trkpt lat="43.21057" lon="6.24374">
        <ele>368.5</ele>
        <time>2023-03-05T10:40:08.000Z</time>
      </trkpt>
      <trkpt lat="43.21052" lon="6.24376">
        <ele>367.5</ele>
        <time>2023-03-05T10:40:20.000Z</time>
      </trkpt>
      <trkpt lat="43.21052" lon="6.24376">
        <ele>367.5</ele>
        <time>2023-03-05T10:40:22.000Z</time>
      </trkpt>
      <trkpt lat="43.21052" lon="6.24376">
        <ele>367.5</ele>
        <time>2023-03-05T10:40:23.000Z</time>
      </trkpt>
      <trkpt lat="43.21052" lon="6.24376">
        <ele>367.6</ele>
        <time>2023-03-05T10:40:50.000Z</time>
      </trkpt>
      <trkpt lat="43.21052" lon="6.24376">
        <ele>367.5</ele>
        <time>2023-03-05T10:40:51.000Z</time>
      </trkpt>
      <trkpt lat="43.21052" lon="6.24376">
        <ele>367.5</ele>
        <time>2023-03-05T10:41:27.000Z</time>
      </trkpt>
      <trkpt lat="43.21052" lon="6.24376">
        <ele>367.6</ele>
        <time>2023-03-05T10:41:28.000Z</time>
      </trkpt>
      <trkpt lat="43.21052" lon="6.24376">
        <ele>367.6</ele>
        <time>2023-03-05T10:41:32.000Z</time>
      </trkpt>
      <trkpt lat="43.21051" lon="6.24374">
        <ele>367.3</ele>
        <time>2023-03-05T10:41:38.000Z</time>
      </trkpt>
      <trkpt lat="43.21051" lon="6.24374">
        <ele>367.2</ele>
        <time>2023-03-05T10:41:46.000Z</time>
      </trkpt>
      <trkpt lat="43.2105" lon="6.24373">
        <ele>366.8</ele>
        <time>2023-03-05T10:41:49.000Z</time>
      </trkpt>
      <trkpt lat="43.2105" lon="6.24372">
        <ele>366.6</ele>
        <time>2023-03-05T10:41:53.000Z</time>
      </trkpt>
      <trkpt lat="43.2105" lon="6.24372">
        <ele>366.7</ele>
        <time>2023-03-05T10:41:54.000Z</time>
      </trkpt>
      <trkpt lat="43.2105" lon="6.24372">
        <ele>366.8</ele>
        <time>2023-03-05T10:41:58.000Z</time>
      </trkpt>
      <trkpt lat="43.2105" lon="6.24372">
        <ele>366.9</ele>
        <time>2023-03-05T10:41:59.000Z</time>
      </trkpt>
      <trkpt lat="43.2105" lon="6.24372">
        <ele>366.9</ele>
        <time>2023-03-05T10:42:00.000Z</time>
      </trkpt>
      <trkpt lat="43.2105" lon="6.24372">
        <ele>366.9</ele>
        <time>2023-03-05T10:42:01.000Z</time>
      </trkpt>
      <trkpt lat="43.2105" lon="6.24372">
        <ele>366.9</ele>
        <time>2023-03-05T10:42:04.000Z</time>
      </trkpt>
      <trkpt lat="43.2105" lon="6.24372">
        <ele>366.9</ele>
        <time>2023-03-05T10:42:06.000Z</time>
      </trkpt>
      <trkpt lat="43.2105" lon="6.24373">
        <ele>366.9</ele>
        <time>2023-03-05T10:42:07.000Z</time>
      </trkpt>
      <trkpt lat="43.21049" lon="6.24373">
        <ele>366.5</ele>
        <time>2023-03-05T10:42:13.000Z</time>
      </trkpt>
      <trkpt lat="43.21048" lon="6.24373">
        <ele>366.3</ele>
        <time>2023-03-05T10:42:26.000Z</time>
      </trkpt>
      <trkpt lat="43.21048" lon="6.2436">
        <ele>363.1</ele>
        <time>2023-03-05T10:42:53.000Z</time>
      </trkpt>
      <trkpt lat="43.21048" lon="6.24348">
        <ele>360.2</ele>
        <time>2023-03-05T10:43:13.000Z</time>
      </trkpt>
      <trkpt lat="43.21049" lon="6.24339">
        <ele>359.2</ele>
        <time>2023-03-05T10:43:29.000Z</time>
      </trkpt>
      <trkpt lat="43.2105" lon="6.24339">
        <ele>359.3</ele>
        <time>2023-03-05T10:43:35.000Z</time>
      </trkpt>
      <trkpt lat="43.21049" lon="6.24329">
        <ele>357.1</ele>
        <time>2023-03-05T10:43:53.000Z</time>
      </trkpt>
      <trkpt lat="43.21048" lon="6.24329">
        <ele>356.9</ele>
        <time>2023-03-05T10:43:55.000Z</time>
      </trkpt>
      <trkpt lat="43.21047" lon="6.24327">
        <ele>356.2</ele>
        <time>2023-03-05T10:43:59.000Z</time>
      </trkpt>
      <trkpt lat="43.21047" lon="6.24327">
        <ele>355.8</ele>
        <time>2023-03-05T10:44:01.000Z</time>
      </trkpt>
      <trkpt lat="43.21044" lon="6.24321">
        <ele>353.8</ele>
        <time>2023-03-05T10:44:15.000Z</time>
      </trkpt>
      <trkpt lat="43.21044" lon="6.24321">
        <ele>353.6</ele>
        <time>2023-03-05T10:44:16.000Z</time>
      </trkpt>
      <trkpt lat="43.21038" lon="6.24311">
        <ele>350.3</ele>
        <time>2023-03-05T10:44:40.000Z</time>
      </trkpt>
      <trkpt lat="43.21033" lon="6.24308">
        <ele>347.5</ele>
        <time>2023-03-05T10:45:03.000Z</time>
      </trkpt>
      <trkpt lat="43.21033" lon="6.24308">
        <ele>347.4</ele>
        <time>2023-03-05T10:45:04.000Z</time>
      </trkpt>
      <trkpt lat="43.21032" lon="6.24306">
        <ele>346.8</ele>
        <time>2023-03-05T10:45:10.000Z</time>
      </trkpt>
      <trkpt lat="43.21031" lon="6.24306">
        <ele>346.4</ele>
        <time>2023-03-05T10:45:12.000Z</time>
      </trkpt>
      <trkpt lat="43.21031" lon="6.24304">
        <ele>345.6</ele>
        <time>2023-03-05T10:45:18.000Z</time>
      </trkpt>
      <trkpt lat="43.21031" lon="6.24303">
        <ele>345.2</ele>
        <time>2023-03-05T10:45:20.000Z</time>
      </trkpt>
      <trkpt lat="43.21031" lon="6.24303">
        <ele>345.1</ele>
        <time>2023-03-05T10:45:21.000Z</time>
      </trkpt>
      <trkpt lat="43.21031" lon="6.24304">
        <ele>345.3</ele>
        <time>2023-03-05T10:45:25.000Z</time>
      </trkpt>
      <trkpt lat="43.21028" lon="6.243">
        <ele>343.4</ele>
        <time>2023-03-05T10:45:44.000Z</time>
      </trkpt>
      <trkpt lat="43.21028" lon="6.24299">
        <ele>343.3</ele>
        <time>2023-03-05T10:45:47.000Z</time>
      </trkpt>
      <trkpt lat="43.21027" lon="6.24297">
        <ele>342.2</ele>
        <time>2023-03-05T10:45:56.000Z</time>
      </trkpt>
      <trkpt lat="43.21027" lon="6.24297">
        <ele>342.1</ele>
        <time>2023-03-05T10:45:57.000Z</time>
      </trkpt>
      <trkpt lat="43.21027" lon="6.24297">
        <ele>342</ele>
        <time>2023-03-05T10:45:59.000Z</time>
      </trkpt>
      <trkpt lat="43.21026" lon="6.24296">
        <ele>341.9</ele>
        <time>2023-03-05T10:46:00.000Z</time>
      </trkpt>
      <trkpt lat="43.21027" lon="6.24296">
        <ele>342</ele>
        <time>2023-03-05T10:46:07.000Z</time>
      </trkpt>
      <trkpt lat="43.21027" lon="6.24296">
        <ele>342</ele>
        <time>2023-03-05T10:46:10.000Z</time>
      </trkpt>
      <trkpt lat="43.21027" lon="6.24296">
        <ele>342.1</ele>
        <time>2023-03-05T10:46:11.000Z</time>
      </trkpt>
      <trkpt lat="43.21027" lon="6.24296">
        <ele>342.1</ele>
        <time>2023-03-05T10:46:12.000Z</time>
      </trkpt>
      <trkpt lat="43.21023" lon="6.24293">
        <ele>340.2</ele>
        <time>2023-03-05T10:46:25.000Z</time>
      </trkpt>
      <trkpt lat="43.21023" lon="6.24294">
        <ele>340</ele>
        <time>2023-03-05T10:46:27.000Z</time>
      </trkpt>
      <trkpt lat="43.21019" lon="6.24295">
        <ele>338.7</ele>
        <time>2023-03-05T10:46:38.000Z</time>
      </trkpt>
      <trkpt lat="43.21019" lon="6.24295">
        <ele>338.7</ele>
        <time>2023-03-05T10:46:40.000Z</time>
      </trkpt>
      <trkpt lat="43.21019" lon="6.24293">
        <ele>338.4</ele>
        <time>2023-03-05T10:46:46.000Z</time>
      </trkpt>
      <trkpt lat="43.21018" lon="6.24293">
        <ele>337.8</ele>
        <time>2023-03-05T10:46:52.000Z</time>
      </trkpt>
      <trkpt lat="43.21015" lon="6.2429">
        <ele>336.8</ele>
        <time>2023-03-05T10:47:02.000Z</time>
      </trkpt>
      <trkpt lat="43.21015" lon="6.2429">
        <ele>336.8</ele>
        <time>2023-03-05T10:47:03.000Z</time>
      </trkpt>
      <trkpt lat="43.21015" lon="6.2429">
        <ele>336.5</ele>
        <time>2023-03-05T10:47:08.000Z</time>
      </trkpt>
      <trkpt lat="43.21014" lon="6.2429">
        <ele>336.4</ele>
        <time>2023-03-05T10:47:09.000Z</time>
      </trkpt>
      <trkpt lat="43.21015" lon="6.2429">
        <ele>336.1</ele>
        <time>2023-03-05T10:47:12.000Z</time>
      </trkpt>
      <trkpt lat="43.21015" lon="6.2429">
        <ele>335.8</ele>
        <time>2023-03-05T10:47:16.000Z</time>
      </trkpt>
      <trkpt lat="43.21011" lon="6.24287">
        <ele>334.6</ele>
        <time>2023-03-05T10:47:32.000Z</time>
      </trkpt>
      <trkpt lat="43.21012" lon="6.24286">
        <ele>334.6</ele>
        <time>2023-03-05T10:47:33.000Z</time>
      </trkpt>
      <trkpt lat="43.21012" lon="6.24284">
        <ele>333.8</ele>
        <time>2023-03-05T10:47:40.000Z</time>
      </trkpt>
      <trkpt lat="43.21013" lon="6.24284">
        <ele>333.9</ele>
        <time>2023-03-05T10:47:42.000Z</time>
      </trkpt>
      <trkpt lat="43.21013" lon="6.24283">
        <ele>333.9</ele>
        <time>2023-03-05T10:47:43.000Z</time>
      </trkpt>
      <trkpt lat="43.21012" lon="6.24283">
        <ele>333.4</ele>
        <time>2023-03-05T10:47:46.000Z</time>
      </trkpt>
      <trkpt lat="43.21012" lon="6.24283">
        <ele>333.5</ele>
        <time>2023-03-05T10:47:48.000Z</time>
      </trkpt>
      <trkpt lat="43.21013" lon="6.24283">
        <ele>333.4</ele>
        <time>2023-03-05T10:47:51.000Z</time>
      </trkpt>
      <trkpt lat="43.21011" lon="6.24279">
        <ele>332.3</ele>
        <time>2023-03-05T10:48:02.000Z</time>
      </trkpt>
      <trkpt lat="43.21011" lon="6.24279">
        <ele>332.3</ele>
        <time>2023-03-05T10:48:03.000Z</time>
      </trkpt>
      <trkpt lat="43.21011" lon="6.24279">
        <ele>332.3</ele>
        <time>2023-03-05T10:48:06.000Z</time>
      </trkpt>
      <trkpt lat="43.21011" lon="6.24279">
        <ele>332.1</ele>
        <time>2023-03-05T10:48:10.000Z</time>
      </trkpt>
      <trkpt lat="43.21003" lon="6.24272">
        <ele>328.7</ele>
        <time>2023-03-05T10:48:32.000Z</time>
      </trkpt>
      <trkpt lat="43.20998" lon="6.24261">
        <ele>324.9</ele>
        <time>2023-03-05T10:48:59.000Z</time>
      </trkpt>
      <trkpt lat="43.20996" lon="6.24249">
        <ele>322.2</ele>
        <time>2023-03-05T10:49:15.000Z</time>
      </trkpt>
      <trkpt lat="43.20991" lon="6.24246">
        <ele>320.9</ele>
        <time>2023-03-05T10:49:26.000Z</time>
      </trkpt>
      <trkpt lat="43.20991" lon="6.24246">
        <ele>320.7</ele>
        <time>2023-03-05T10:49:27.000Z</time>
      </trkpt>
      <trkpt lat="43.20985" lon="6.24241">
        <ele>319</ele>
        <time>2023-03-05T10:49:41.000Z</time>
      </trkpt>
      <trkpt lat="43.20985" lon="6.24241">
        <ele>319</ele>
        <time>2023-03-05T10:49:42.000Z</time>
      </trkpt>
      <trkpt lat="43.20984" lon="6.24241">
        <ele>317.7</ele>
        <time>2023-03-05T10:49:48.000Z</time>
      </trkpt>
      <trkpt lat="43.20984" lon="6.24241">
        <ele>317.4</ele>
        <time>2023-03-05T10:49:50.000Z</time>
      </trkpt>
      <trkpt lat="43.20981" lon="6.24243">
        <ele>316.2</ele>
        <time>2023-03-05T10:49:58.000Z</time>
      </trkpt>
      <trkpt lat="43.2098" lon="6.24244">
        <ele>316.3</ele>
        <time>2023-03-05T10:49:59.000Z</time>
      </trkpt>
      <trkpt lat="43.20972" lon="6.24241">
        <ele>313.4</ele>
        <time>2023-03-05T10:50:20.000Z</time>
      </trkpt>
      <trkpt lat="43.20971" lon="6.24241">
        <ele>312.9</ele>
        <time>2023-03-05T10:50:24.000Z</time>
      </trkpt>
      <trkpt lat="43.20971" lon="6.2424">
        <ele>312.7</ele>
        <time>2023-03-05T10:50:25.000Z</time>
      </trkpt>
      <trkpt lat="43.20969" lon="6.2424">
        <ele>311.6</ele>
        <time>2023-03-05T10:50:33.000Z</time>
      </trkpt>
      <trkpt lat="43.20968" lon="6.2424">
        <ele>311.6</ele>
        <time>2023-03-05T10:50:34.000Z</time>
      </trkpt>
      <trkpt lat="43.20968" lon="6.2424">
        <ele>311.5</ele>
        <time>2023-03-05T10:50:35.000Z</time>
      </trkpt>
      <trkpt lat="43.20968" lon="6.24239">
        <ele>311.1</ele>
        <time>2023-03-05T10:50:37.000Z</time>
      </trkpt>
      <trkpt lat="43.20961" lon="6.24234">
        <ele>308</ele>
        <time>2023-03-05T10:51:01.000Z</time>
      </trkpt>
      <trkpt lat="43.20961" lon="6.24233">
        <ele>307.9</ele>
        <time>2023-03-05T10:51:02.000Z</time>
      </trkpt>
      <trkpt lat="43.2096" lon="6.24234">
        <ele>307.2</ele>
        <time>2023-03-05T10:51:06.000Z</time>
      </trkpt>
      <trkpt lat="43.20959" lon="6.24234">
        <ele>306.9</ele>
        <time>2023-03-05T10:51:08.000Z</time>
      </trkpt>
      <trkpt lat="43.20959" lon="6.24234">
        <ele>306.8</ele>
        <time>2023-03-05T10:51:10.000Z</time>
      </trkpt>
      <trkpt lat="43.20959" lon="6.24234">
        <ele>306.7</ele>
        <time>2023-03-05T10:51:12.000Z</time>
      </trkpt>
      <trkpt lat="43.20952" lon="6.24226">
        <ele>304.5</ele>
        <time>2023-03-05T10:51:30.000Z</time>
      </trkpt>
      <trkpt lat="43.20944" lon="6.2422">
        <ele>301.2</ele>
        <time>2023-03-05T10:51:51.000Z</time>
      </trkpt>
      <trkpt lat="43.20937" lon="6.24211">
        <ele>298.1</ele>
        <time>2023-03-05T10:52:13.000Z</time>
      </trkpt>
      <trkpt lat="43.20929" lon="6.24206">
        <ele>295</ele>
        <time>2023-03-05T10:52:29.000Z</time>
      </trkpt>
      <trkpt lat="43.20927" lon="6.24205">
        <ele>294.2</ele>
        <time>2023-03-05T10:52:34.000Z</time>
      </trkpt>
      <trkpt lat="43.20927" lon="6.24206">
        <ele>294</ele>
        <time>2023-03-05T10:52:35.000Z</time>
      </trkpt>
      <trkpt lat="43.20927" lon="6.24207">
        <ele>293.8</ele>
        <time>2023-03-05T10:52:38.000Z</time>
      </trkpt>
      <trkpt lat="43.20927" lon="6.24207">
        <ele>293.7</ele>
        <time>2023-03-05T10:52:39.000Z</time>
      </trkpt>
      <trkpt lat="43.20917" lon="6.24205">
        <ele>292</ele>
        <time>2023-03-05T10:52:53.000Z</time>
      </trkpt>
      <trkpt lat="43.20908" lon="6.24206">
        <ele>289.8</ele>
        <time>2023-03-05T10:53:05.000Z</time>
      </trkpt>
      <trkpt lat="43.209" lon="6.242">
        <ele>287.5</ele>
        <time>2023-03-05T10:53:20.000Z</time>
      </trkpt>
      <trkpt lat="43.20899" lon="6.24198">
        <ele>287</ele>
        <time>2023-03-05T10:53:25.000Z</time>
      </trkpt>
      <trkpt lat="43.20898" lon="6.24198">
        <ele>286.5</ele>
        <time>2023-03-05T10:53:29.000Z</time>
      </trkpt>
      <trkpt lat="43.2089" lon="6.24195">
        <ele>284.6</ele>
        <time>2023-03-05T10:53:44.000Z</time>
      </trkpt>
      <trkpt lat="43.20888" lon="6.24196">
        <ele>284.4</ele>
        <time>2023-03-05T10:53:50.000Z</time>
      </trkpt>
      <trkpt lat="43.20888" lon="6.24197">
        <ele>284.1</ele>
        <time>2023-03-05T10:54:28.000Z</time>
      </trkpt>
      <trkpt lat="43.20887" lon="6.24197">
        <ele>284.3</ele>
        <time>2023-03-05T10:54:31.000Z</time>
      </trkpt>
      <trkpt lat="43.20887" lon="6.24197">
        <ele>284.3</ele>
        <time>2023-03-05T10:54:41.000Z</time>
      </trkpt>
      <trkpt lat="43.20885" lon="6.24197">
        <ele>284.1</ele>
        <time>2023-03-05T10:54:45.000Z</time>
      </trkpt>
      <trkpt lat="43.20885" lon="6.24196">
        <ele>284.1</ele>
        <time>2023-03-05T10:54:48.000Z</time>
      </trkpt>
      <trkpt lat="43.20885" lon="6.24196">
        <ele>283.9</ele>
        <time>2023-03-05T10:54:50.000Z</time>
      </trkpt>
      <trkpt lat="43.20884" lon="6.24196">
        <ele>283.9</ele>
        <time>2023-03-05T10:54:52.000Z</time>
      </trkpt>
      <trkpt lat="43.20877" lon="6.24188">
        <ele>282.5</ele>
        <time>2023-03-05T10:55:16.000Z</time>
      </trkpt>
      <trkpt lat="43.20873" lon="6.24181">
        <ele>280.7</ele>
        <time>2023-03-05T10:55:32.000Z</time>
      </trkpt>
      <trkpt lat="43.20874" lon="6.24181">
        <ele>280.8</ele>
        <time>2023-03-05T10:55:36.000Z</time>
      </trkpt>
      <trkpt lat="43.20876" lon="6.24174">
        <ele>279.4</ele>
        <time>2023-03-05T10:55:49.000Z</time>
      </trkpt>
      <trkpt lat="43.20876" lon="6.24174">
        <ele>279.4</ele>
        <time>2023-03-05T10:55:50.000Z</time>
      </trkpt>
      <trkpt lat="43.20878" lon="6.24167">
        <ele>277.5</ele>
        <time>2023-03-05T10:56:06.000Z</time>
      </trkpt>
      <trkpt lat="43.20877" lon="6.24167">
        <ele>277.5</ele>
        <time>2023-03-05T10:56:07.000Z</time>
      </trkpt>
      <trkpt lat="43.20873" lon="6.24155">
        <ele>275.7</ele>
        <time>2023-03-05T10:56:26.000Z</time>
      </trkpt>
      <trkpt lat="43.20867" lon="6.24151">
        <ele>274.5</ele>
        <time>2023-03-05T10:56:37.000Z</time>
      </trkpt>
      <trkpt lat="43.20867" lon="6.2415">
        <ele>274.2</ele>
        <time>2023-03-05T10:56:40.000Z</time>
      </trkpt>
      <trkpt lat="43.20867" lon="6.2415">
        <ele>274.1</ele>
        <time>2023-03-05T10:56:41.000Z</time>
      </trkpt>
      <trkpt lat="43.20867" lon="6.2415">
        <ele>273.9</ele>
        <time>2023-03-05T10:56:42.000Z</time>
      </trkpt>
      <trkpt lat="43.20868" lon="6.24147">
        <ele>273.4</ele>
        <time>2023-03-05T10:56:51.000Z</time>
      </trkpt>
      <trkpt lat="43.20868" lon="6.24147">
        <ele>273.5</ele>
        <time>2023-03-05T10:56:52.000Z</time>
      </trkpt>
      <trkpt lat="43.20868" lon="6.24147">
        <ele>273.4</ele>
        <time>2023-03-05T10:56:54.000Z</time>
      </trkpt>
      <trkpt lat="43.20869" lon="6.24147">
        <ele>272.9</ele>
        <time>2023-03-05T10:56:58.000Z</time>
      </trkpt>
      <trkpt lat="43.20864" lon="6.24136">
        <ele>269.7</ele>
        <time>2023-03-05T10:57:25.000Z</time>
      </trkpt>
      <trkpt lat="43.20863" lon="6.24132">
        <ele>268.7</ele>
        <time>2023-03-05T10:57:33.000Z</time>
      </trkpt>
      <trkpt lat="43.20863" lon="6.24132">
        <ele>268.4</ele>
        <time>2023-03-05T10:57:34.000Z</time>
      </trkpt>
      <trkpt lat="43.20862" lon="6.24131">
        <ele>267.9</ele>
        <time>2023-03-05T10:57:39.000Z</time>
      </trkpt>
      <trkpt lat="43.20862" lon="6.2413">
        <ele>267.8</ele>
        <time>2023-03-05T10:57:40.000Z</time>
      </trkpt>
      <trkpt lat="43.20858" lon="6.2412">
        <ele>264.1</ele>
        <time>2023-03-05T10:58:07.000Z</time>
      </trkpt>
      <trkpt lat="43.20858" lon="6.2412">
        <ele>264.1</ele>
        <time>2023-03-05T10:58:09.000Z</time>
      </trkpt>
      <trkpt lat="43.20857" lon="6.24118">
        <ele>263.3</ele>
        <time>2023-03-05T10:58:15.000Z</time>
      </trkpt>
      <trkpt lat="43.20857" lon="6.24118">
        <ele>263.3</ele>
        <time>2023-03-05T10:58:16.000Z</time>
      </trkpt>
      <trkpt lat="43.20856" lon="6.24117">
        <ele>262</ele>
        <time>2023-03-05T10:58:27.000Z</time>
      </trkpt>
      <trkpt lat="43.20856" lon="6.24117">
        <ele>261.9</ele>
        <time>2023-03-05T10:58:30.000Z</time>
      </trkpt>
      <trkpt lat="43.20856" lon="6.24116">
        <ele>261.6</ele>
        <time>2023-03-05T10:58:33.000Z</time>
      </trkpt>
      <trkpt lat="43.20856" lon="6.24117">
        <ele>261.2</ele>
        <time>2023-03-05T10:58:36.000Z</time>
      </trkpt>
      <trkpt lat="43.20855" lon="6.24117">
        <ele>261.2</ele>
        <time>2023-03-05T10:58:38.000Z</time>
      </trkpt>
      <trkpt lat="43.20855" lon="6.24116">
        <ele>261</ele>
        <time>2023-03-05T10:58:41.000Z</time>
      </trkpt>
      <trkpt lat="43.20854" lon="6.24115">
        <ele>260.5</ele>
        <time>2023-03-05T10:58:46.000Z</time>
      </trkpt>
      <trkpt lat="43.20854" lon="6.24115">
        <ele>260.4</ele>
        <time>2023-03-05T10:58:47.000Z</time>
      </trkpt>
      <trkpt lat="43.20853" lon="6.24112">
        <ele>259.4</ele>
        <time>2023-03-05T10:58:53.000Z</time>
      </trkpt>
      <trkpt lat="43.20852" lon="6.24111">
        <ele>259.1</ele>
        <time>2023-03-05T10:58:56.000Z</time>
      </trkpt>
      <trkpt lat="43.20849" lon="6.24108">
        <ele>257.1</ele>
        <time>2023-03-05T10:59:11.000Z</time>
      </trkpt>
      <trkpt lat="43.20849" lon="6.24107">
        <ele>257</ele>
        <time>2023-03-05T10:59:12.000Z</time>
      </trkpt>
      <trkpt lat="43.20845" lon="6.24104">
        <ele>256.1</ele>
        <time>2023-03-05T10:59:24.000Z</time>
      </trkpt>
      <trkpt lat="43.20845" lon="6.24104">
        <ele>255.8</ele>
        <time>2023-03-05T10:59:25.000Z</time>
      </trkpt>
      <trkpt lat="43.20839" lon="6.24096">
        <ele>251.9</ele>
        <time>2023-03-05T10:59:51.000Z</time>
      </trkpt>
      <trkpt lat="43.20839" lon="6.24095">
        <ele>251.7</ele>
        <time>2023-03-05T10:59:52.000Z</time>
      </trkpt>
      <trkpt lat="43.20832" lon="6.24093">
        <ele>250.5</ele>
        <time>2023-03-05T11:00:03.000Z</time>
      </trkpt>
      <trkpt lat="43.20832" lon="6.24093">
        <ele>250.4</ele>
        <time>2023-03-05T11:00:04.000Z</time>
      </trkpt>
      <trkpt lat="43.20832" lon="6.24094">
        <ele>249.2</ele>
        <time>2023-03-05T11:00:14.000Z</time>
      </trkpt>
      <trkpt lat="43.20832" lon="6.24094">
        <ele>249.2</ele>
        <time>2023-03-05T11:00:15.000Z</time>
      </trkpt>
      <trkpt lat="43.20831" lon="6.24081">
        <ele>247.4</ele>
        <time>2023-03-05T11:00:36.000Z</time>
      </trkpt>
      <trkpt lat="43.20829" lon="6.24078">
        <ele>245.8</ele>
        <time>2023-03-05T11:00:50.000Z</time>
      </trkpt>
      <trkpt lat="43.20829" lon="6.24079">
        <ele>245.5</ele>
        <time>2023-03-05T11:00:51.000Z</time>
      </trkpt>
      <trkpt lat="43.20829" lon="6.24078">
        <ele>245.5</ele>
        <time>2023-03-05T11:00:53.000Z</time>
      </trkpt>
      <trkpt lat="43.20829" lon="6.24078">
        <ele>245.5</ele>
        <time>2023-03-05T11:00:55.000Z</time>
      </trkpt>
      <trkpt lat="43.20826" lon="6.24075">
        <ele>243.8</ele>
        <time>2023-03-05T11:01:06.000Z</time>
      </trkpt>
      <trkpt lat="43.20826" lon="6.24075">
        <ele>243.5</ele>
        <time>2023-03-05T11:01:08.000Z</time>
      </trkpt>
      <trkpt lat="43.20821" lon="6.24074">
        <ele>241.6</ele>
        <time>2023-03-05T11:01:24.000Z</time>
      </trkpt>
      <trkpt lat="43.20821" lon="6.24074">
        <ele>241.6</ele>
        <time>2023-03-05T11:01:25.000Z</time>
      </trkpt>
      <trkpt lat="43.20818" lon="6.2407">
        <ele>239.8</ele>
        <time>2023-03-05T11:01:36.000Z</time>
      </trkpt>
      <trkpt lat="43.20818" lon="6.24071">
        <ele>239.6</ele>
        <time>2023-03-05T11:01:38.000Z</time>
      </trkpt>
      <trkpt lat="43.20818" lon="6.24071">
        <ele>239.6</ele>
        <time>2023-03-05T11:01:39.000Z</time>
      </trkpt>
      <trkpt lat="43.20818" lon="6.24071">
        <ele>239.7</ele>
        <time>2023-03-05T11:01:45.000Z</time>
      </trkpt>
      <trkpt lat="43.20815" lon="6.2406">
        <ele>237.7</ele>
        <time>2023-03-05T11:02:13.000Z</time>
      </trkpt>
      <trkpt lat="43.20815" lon="6.2406">
        <ele>237.6</ele>
        <time>2023-03-05T11:02:15.000Z</time>
      </trkpt>
      <trkpt lat="43.20811" lon="6.24056">
        <ele>236.3</ele>
        <time>2023-03-05T11:02:34.000Z</time>
      </trkpt>
      <trkpt lat="43.20811" lon="6.24056">
        <ele>235.8</ele>
        <time>2023-03-05T11:02:37.000Z</time>
      </trkpt>
      <trkpt lat="43.20808" lon="6.24052">
        <ele>234.9</ele>
        <time>2023-03-05T11:02:50.000Z</time>
      </trkpt>
      <trkpt lat="43.20808" lon="6.24052">
        <ele>234.8</ele>
        <time>2023-03-05T11:02:51.000Z</time>
      </trkpt>
      <trkpt lat="43.2081" lon="6.24051">
        <ele>233.2</ele>
        <time>2023-03-05T11:03:05.000Z</time>
      </trkpt>
      <trkpt lat="43.2081" lon="6.2405">
        <ele>233.1</ele>
        <time>2023-03-05T11:03:07.000Z</time>
      </trkpt>
      <trkpt lat="43.20805" lon="6.24051">
        <ele>231.9</ele>
        <time>2023-03-05T11:03:21.000Z</time>
      </trkpt>
      <trkpt lat="43.20805" lon="6.24051">
        <ele>231.8</ele>
        <time>2023-03-05T11:03:22.000Z</time>
      </trkpt>
      <trkpt lat="43.20803" lon="6.24045">
        <ele>230</ele>
        <time>2023-03-05T11:03:34.000Z</time>
      </trkpt>
      <trkpt lat="43.20803" lon="6.24046">
        <ele>230</ele>
        <time>2023-03-05T11:03:37.000Z</time>
      </trkpt>
      <trkpt lat="43.208" lon="6.24039">
        <ele>227.4</ele>
        <time>2023-03-05T11:03:54.000Z</time>
      </trkpt>
      <trkpt lat="43.208" lon="6.24039">
        <ele>227.3</ele>
        <time>2023-03-05T11:03:55.000Z</time>
      </trkpt>
      <trkpt lat="43.20799" lon="6.24035">
        <ele>226.2</ele>
        <time>2023-03-05T11:04:04.000Z</time>
      </trkpt>
      <trkpt lat="43.20799" lon="6.24035">
        <ele>226.2</ele>
        <time>2023-03-05T11:04:06.000Z</time>
      </trkpt>
      <trkpt lat="43.20799" lon="6.24035">
        <ele>225.9</ele>
        <time>2023-03-05T11:04:07.000Z</time>
      </trkpt>
      <trkpt lat="43.20799" lon="6.24035">
        <ele>225.7</ele>
        <time>2023-03-05T11:04:09.000Z</time>
      </trkpt>
      <trkpt lat="43.20798" lon="6.24035">
        <ele>225.7</ele>
        <time>2023-03-05T11:04:11.000Z</time>
      </trkpt>
      <trkpt lat="43.20798" lon="6.24035">
        <ele>225.1</ele>
        <time>2023-03-05T11:04:14.000Z</time>
      </trkpt>
      <trkpt lat="43.20794" lon="6.24029">
        <ele>222.6</ele>
        <time>2023-03-05T11:04:31.000Z</time>
      </trkpt>
      <trkpt lat="43.20794" lon="6.24029">
        <ele>222.4</ele>
        <time>2023-03-05T11:04:33.000Z</time>
      </trkpt>
      <trkpt lat="43.20793" lon="6.24027">
        <ele>221.8</ele>
        <time>2023-03-05T11:04:37.000Z</time>
      </trkpt>
      <trkpt lat="43.20794" lon="6.24027">
        <ele>221.7</ele>
        <time>2023-03-05T11:04:38.000Z</time>
      </trkpt>
      <trkpt lat="43.20794" lon="6.24027">
        <ele>221.7</ele>
        <time>2023-03-05T11:04:39.000Z</time>
      </trkpt>
      <trkpt lat="43.20793" lon="6.24027">
        <ele>221.8</ele>
        <time>2023-03-05T11:04:41.000Z</time>
      </trkpt>
      <trkpt lat="43.20793" lon="6.24027">
        <ele>221.8</ele>
        <time>2023-03-05T11:04:42.000Z</time>
      </trkpt>
      <trkpt lat="43.20793" lon="6.24027">
        <ele>221.6</ele>
        <time>2023-03-05T11:04:44.000Z</time>
      </trkpt>
      <trkpt lat="43.20792" lon="6.24027">
        <ele>221.8</ele>
        <time>2023-03-05T11:04:49.000Z</time>
      </trkpt>
      <trkpt lat="43.20792" lon="6.24026">
        <ele>221.7</ele>
        <time>2023-03-05T11:04:50.000Z</time>
      </trkpt>
      <trkpt lat="43.20792" lon="6.24025">
        <ele>220.8</ele>
        <time>2023-03-05T11:04:58.000Z</time>
      </trkpt>
      <trkpt lat="43.20792" lon="6.24024">
        <ele>220.9</ele>
        <time>2023-03-05T11:04:59.000Z</time>
      </trkpt>
      <trkpt lat="43.20792" lon="6.24025">
        <ele>220.7</ele>
        <time>2023-03-05T11:05:01.000Z</time>
      </trkpt>
      <trkpt lat="43.20791" lon="6.24025">
        <ele>220.6</ele>
        <time>2023-03-05T11:05:02.000Z</time>
      </trkpt>
      <trkpt lat="43.20791" lon="6.24025">
        <ele>220.3</ele>
        <time>2023-03-05T11:05:04.000Z</time>
      </trkpt>
      <trkpt lat="43.20792" lon="6.24024">
        <ele>220.3</ele>
        <time>2023-03-05T11:05:05.000Z</time>
      </trkpt>
      <trkpt lat="43.20792" lon="6.24022">
        <ele>219.7</ele>
        <time>2023-03-05T11:05:13.000Z</time>
      </trkpt>
      <trkpt lat="43.20792" lon="6.24022">
        <ele>219.6</ele>
        <time>2023-03-05T11:05:14.000Z</time>
      </trkpt>
      <trkpt lat="43.20797" lon="6.24012">
        <ele>216.6</ele>
        <time>2023-03-05T11:05:38.000Z</time>
      </trkpt>
      <trkpt lat="43.20797" lon="6.2401">
        <ele>216.1</ele>
        <time>2023-03-05T11:05:43.000Z</time>
      </trkpt>
      <trkpt lat="43.20797" lon="6.24011">
        <ele>216</ele>
        <time>2023-03-05T11:05:45.000Z</time>
      </trkpt>
      <trkpt lat="43.20797" lon="6.24011">
        <ele>216</ele>
        <time>2023-03-05T11:05:46.000Z</time>
      </trkpt>
      <trkpt lat="43.20797" lon="6.2401">
        <ele>215.7</ele>
        <time>2023-03-05T11:05:49.000Z</time>
      </trkpt>
      <trkpt lat="43.20795" lon="6.24007">
        <ele>214.6</ele>
        <time>2023-03-05T11:05:57.000Z</time>
      </trkpt>
      <trkpt lat="43.20794" lon="6.24007">
        <ele>214.7</ele>
        <time>2023-03-05T11:05:58.000Z</time>
      </trkpt>
      <trkpt lat="43.20794" lon="6.24007">
        <ele>214.6</ele>
        <time>2023-03-05T11:05:59.000Z</time>
      </trkpt>
      <trkpt lat="43.20795" lon="6.24007">
        <ele>214.6</ele>
        <time>2023-03-05T11:06:00.000Z</time>
      </trkpt>
      <trkpt lat="43.20795" lon="6.24007">
        <ele>214.3</ele>
        <time>2023-03-05T11:06:02.000Z</time>
      </trkpt>
      <trkpt lat="43.20795" lon="6.24007">
        <ele>214.3</ele>
        <time>2023-03-05T11:06:03.000Z</time>
      </trkpt>
      <trkpt lat="43.20795" lon="6.24007">
        <ele>214.1</ele>
        <time>2023-03-05T11:06:05.000Z</time>
      </trkpt>
      <trkpt lat="43.20795" lon="6.24007">
        <ele>214</ele>
        <time>2023-03-05T11:06:06.000Z</time>
      </trkpt>
      <trkpt lat="43.20794" lon="6.24005">
        <ele>213.2</ele>
        <time>2023-03-05T11:06:15.000Z</time>
      </trkpt>
      <trkpt lat="43.20794" lon="6.24005">
        <ele>213.2</ele>
        <time>2023-03-05T11:06:16.000Z</time>
      </trkpt>
      <trkpt lat="43.20794" lon="6.24002">
        <ele>212.5</ele>
        <time>2023-03-05T11:06:24.000Z</time>
      </trkpt>
      <trkpt lat="43.20794" lon="6.24002">
        <ele>212.1</ele>
        <time>2023-03-05T11:06:26.000Z</time>
      </trkpt>
      <trkpt lat="43.20793" lon="6.24">
        <ele>211.1</ele>
        <time>2023-03-05T11:06:37.000Z</time>
      </trkpt>
      <trkpt lat="43.20793" lon="6.24">
        <ele>210.8</ele>
        <time>2023-03-05T11:06:40.000Z</time>
      </trkpt>
      <trkpt lat="43.20791" lon="6.23998">
        <ele>211</ele>
        <time>2023-03-05T11:06:45.000Z</time>
      </trkpt>
      <trkpt lat="43.20792" lon="6.23998">
        <ele>210.9</ele>
        <time>2023-03-05T11:06:46.000Z</time>
      </trkpt>
      <trkpt lat="43.20792" lon="6.23997">
        <ele>210.3</ele>
        <time>2023-03-05T11:06:50.000Z</time>
      </trkpt>
      <trkpt lat="43.20792" lon="6.23996">
        <ele>210.2</ele>
        <time>2023-03-05T11:06:51.000Z</time>
      </trkpt>
      <trkpt lat="43.2079" lon="6.23994">
        <ele>209.4</ele>
        <time>2023-03-05T11:07:00.000Z</time>
      </trkpt>
      <trkpt lat="43.2079" lon="6.23994">
        <ele>209.3</ele>
        <time>2023-03-05T11:07:01.000Z</time>
      </trkpt>
      <trkpt lat="43.2079" lon="6.23994">
        <ele>209.4</ele>
        <time>2023-03-05T11:07:02.000Z</time>
      </trkpt>
      <trkpt lat="43.2079" lon="6.23994">
        <ele>209.4</ele>
        <time>2023-03-05T11:07:03.000Z</time>
      </trkpt>
      <trkpt lat="43.2079" lon="6.23994">
        <ele>209.5</ele>
        <time>2023-03-05T11:07:04.000Z</time>
      </trkpt>
      <trkpt lat="43.2079" lon="6.23994">
        <ele>209.5</ele>
        <time>2023-03-05T11:07:06.000Z</time>
      </trkpt>
      <trkpt lat="43.20785" lon="6.23989">
        <ele>207.9</ele>
        <time>2023-03-05T11:07:19.000Z</time>
      </trkpt>
      <trkpt lat="43.20785" lon="6.23989">
        <ele>207.6</ele>
        <time>2023-03-05T11:07:26.000Z</time>
      </trkpt>
      <trkpt lat="43.20785" lon="6.23989">
        <ele>207</ele>
        <time>2023-03-05T11:07:28.000Z</time>
      </trkpt>
      <trkpt lat="43.20785" lon="6.23989">
        <ele>207.1</ele>
        <time>2023-03-05T11:07:29.000Z</time>
      </trkpt>
      <trkpt lat="43.20785" lon="6.23984">
        <ele>205.4</ele>
        <time>2023-03-05T11:07:41.000Z</time>
      </trkpt>
      <trkpt lat="43.20785" lon="6.23984">
        <ele>205.5</ele>
        <time>2023-03-05T11:07:42.000Z</time>
      </trkpt>
      <trkpt lat="43.20786" lon="6.23983">
        <ele>204.8</ele>
        <time>2023-03-05T11:07:49.000Z</time>
      </trkpt>
      <trkpt lat="43.20786" lon="6.23983">
        <ele>204.9</ele>
        <time>2023-03-05T11:07:50.000Z</time>
      </trkpt>
      <trkpt lat="43.2078" lon="6.23981">
        <ele>203.1</ele>
        <time>2023-03-05T11:08:06.000Z</time>
      </trkpt>
      <trkpt lat="43.2078" lon="6.23981">
        <ele>203</ele>
        <time>2023-03-05T11:08:07.000Z</time>
      </trkpt>
      <trkpt lat="43.20777" lon="6.23982">
        <ele>203</ele>
        <time>2023-03-05T11:08:12.000Z</time>
      </trkpt>
      <trkpt lat="43.20777" lon="6.23982">
        <ele>202.9</ele>
        <time>2023-03-05T11:08:14.000Z</time>
      </trkpt>
      <trkpt lat="43.2077" lon="6.23975">
        <ele>198.5</ele>
        <time>2023-03-05T11:08:44.000Z</time>
      </trkpt>
      <trkpt lat="43.2077" lon="6.23975">
        <ele>198.2</ele>
        <time>2023-03-05T11:08:46.000Z</time>
      </trkpt>
      <trkpt lat="43.20761" lon="6.23974">
        <ele>195.1</ele>
        <time>2023-03-05T11:09:08.000Z</time>
      </trkpt>
      <trkpt lat="43.20752" lon="6.23976">
        <ele>192.8</ele>
        <time>2023-03-05T11:09:26.000Z</time>
      </trkpt>
      <trkpt lat="43.20742" lon="6.23976">
        <ele>190.1</ele>
        <time>2023-03-05T11:09:42.000Z</time>
      </trkpt>
      <trkpt lat="43.20739" lon="6.23975">
        <ele>188.8</ele>
        <time>2023-03-05T11:09:52.000Z</time>
      </trkpt>
      <trkpt lat="43.20739" lon="6.23975">
        <ele>188.6</ele>
        <time>2023-03-05T11:09:53.000Z</time>
      </trkpt>
      <trkpt lat="43.2073" lon="6.23975">
        <ele>185.5</ele>
        <time>2023-03-05T11:10:12.000Z</time>
      </trkpt>
      <trkpt lat="43.20721" lon="6.23977">
        <ele>182.5</ele>
        <time>2023-03-05T11:10:26.000Z</time>
      </trkpt>
      <trkpt lat="43.20712" lon="6.23981">
        <ele>179.2</ele>
        <time>2023-03-05T11:10:43.000Z</time>
      </trkpt>
      <trkpt lat="43.20703" lon="6.23986">
        <ele>176.7</ele>
        <time>2023-03-05T11:10:58.000Z</time>
      </trkpt>
      <trkpt lat="43.20695" lon="6.23991">
        <ele>173.9</ele>
        <time>2023-03-05T11:11:11.000Z</time>
      </trkpt>
      <trkpt lat="43.20691" lon="6.23993">
        <ele>172.3</ele>
        <time>2023-03-05T11:11:19.000Z</time>
      </trkpt>
      <trkpt lat="43.2069" lon="6.23993">
        <ele>172</ele>
        <time>2023-03-05T11:11:20.000Z</time>
      </trkpt>
      <trkpt lat="43.20681" lon="6.2399">
        <ele>169.4</ele>
        <time>2023-03-05T11:11:32.000Z</time>
      </trkpt>
      <trkpt lat="43.20672" lon="6.23989">
        <ele>167.7</ele>
        <time>2023-03-05T11:11:45.000Z</time>
      </trkpt>
      <trkpt lat="43.20664" lon="6.23982">
        <ele>166.2</ele>
        <time>2023-03-05T11:11:55.000Z</time>
      </trkpt>
      <trkpt lat="43.20655" lon="6.23976">
        <ele>164.9</ele>
        <time>2023-03-05T11:12:05.000Z</time>
      </trkpt>
      <trkpt lat="43.20652" lon="6.23974">
        <ele>163.6</ele>
        <time>2023-03-05T11:12:13.000Z</time>
      </trkpt>
      <trkpt lat="43.20652" lon="6.23974">
        <ele>163.5</ele>
        <time>2023-03-05T11:12:14.000Z</time>
      </trkpt>
      <trkpt lat="43.20644" lon="6.23965">
        <ele>160.4</ele>
        <time>2023-03-05T11:12:33.000Z</time>
      </trkpt>
      <trkpt lat="43.20636" lon="6.2396">
        <ele>158.6</ele>
        <time>2023-03-05T11:12:46.000Z</time>
      </trkpt>
      <trkpt lat="43.20631" lon="6.23961">
        <ele>158.1</ele>
        <time>2023-03-05T11:12:55.000Z</time>
      </trkpt>
      <trkpt lat="43.20631" lon="6.23961">
        <ele>158.1</ele>
        <time>2023-03-05T11:13:00.000Z</time>
      </trkpt>
      <trkpt lat="43.20632" lon="6.23962">
        <ele>157.9</ele>
        <time>2023-03-05T11:13:02.000Z</time>
      </trkpt>
      <trkpt lat="43.20632" lon="6.23962">
        <ele>158.3</ele>
        <time>2023-03-05T11:13:04.000Z</time>
      </trkpt>
      <trkpt lat="43.20632" lon="6.23963">
        <ele>158.6</ele>
        <time>2023-03-05T11:13:07.000Z</time>
      </trkpt>
      <trkpt lat="43.20632" lon="6.23964">
        <ele>158.8</ele>
        <time>2023-03-05T11:13:08.000Z</time>
      </trkpt>
      <trkpt lat="43.20632" lon="6.23964">
        <ele>158.5</ele>
        <time>2023-03-05T11:13:10.000Z</time>
      </trkpt>
      <trkpt lat="43.20632" lon="6.23964">
        <ele>158.6</ele>
        <time>2023-03-05T11:13:26.000Z</time>
      </trkpt>
      <trkpt lat="43.20632" lon="6.23964">
        <ele>158.5</ele>
        <time>2023-03-05T11:13:27.000Z</time>
      </trkpt>
      <trkpt lat="43.20633" lon="6.23964">
        <ele>157.3</ele>
        <time>2023-03-05T11:13:39.000Z</time>
      </trkpt>
      <trkpt lat="43.20633" lon="6.23964">
        <ele>157.3</ele>
        <time>2023-03-05T11:13:40.000Z</time>
      </trkpt>
      <trkpt lat="43.20633" lon="6.23964">
        <ele>157</ele>
        <time>2023-03-05T11:13:48.000Z</time>
      </trkpt>
      <trkpt lat="43.20633" lon="6.23964">
        <ele>156.7</ele>
        <time>2023-03-05T11:13:54.000Z</time>
      </trkpt>
      <trkpt lat="43.20633" lon="6.23964">
        <ele>156.9</ele>
        <time>2023-03-05T11:13:55.000Z</time>
      </trkpt>
      <trkpt lat="43.20633" lon="6.23964">
        <ele>156.8</ele>
        <time>2023-03-05T11:13:57.000Z</time>
      </trkpt>
      <trkpt lat="43.20633" lon="6.23964">
        <ele>156.8</ele>
        <time>2023-03-05T11:14:12.000Z</time>
      </trkpt>
      <trkpt lat="43.20633" lon="6.23963">
        <ele>156.7</ele>
        <time>2023-03-05T11:14:15.000Z</time>
      </trkpt>
      <trkpt lat="43.20633" lon="6.23963">
        <ele>156.6</ele>
        <time>2023-03-05T11:14:28.000Z</time>
      </trkpt>
      <trkpt lat="43.20634" lon="6.23976">
        <ele>157.2</ele>
        <time>2023-03-05T11:14:40.000Z</time>
      </trkpt>
      <trkpt lat="43.20638" lon="6.23988">
        <ele>157.5</ele>
        <time>2023-03-05T11:14:52.000Z</time>
      </trkpt>
      <trkpt lat="43.20644" lon="6.23999">
        <ele>157.7</ele>
        <time>2023-03-05T11:15:04.000Z</time>
      </trkpt>
      <trkpt lat="43.20651" lon="6.24007">
        <ele>158.4</ele>
        <time>2023-03-05T11:15:13.000Z</time>
      </trkpt>
      <trkpt lat="43.20658" lon="6.24017">
        <ele>158.7</ele>
        <time>2023-03-05T11:15:25.000Z</time>
      </trkpt>
      <trkpt lat="43.20662" lon="6.24028">
        <ele>158.2</ele>
        <time>2023-03-05T11:15:36.000Z</time>
      </trkpt>
      <trkpt lat="43.20664" lon="6.24041">
        <ele>158.3</ele>
        <time>2023-03-05T11:15:44.000Z</time>
      </trkpt>
      <trkpt lat="43.20667" lon="6.24053">
        <ele>158.8</ele>
        <time>2023-03-05T11:15:55.000Z</time>
      </trkpt>
      <trkpt lat="43.20667" lon="6.24056">
        <ele>158.9</ele>
        <time>2023-03-05T11:15:59.000Z</time>
      </trkpt>
      <trkpt lat="43.20667" lon="6.24056">
        <ele>159.1</ele>
        <time>2023-03-05T11:16:01.000Z</time>
      </trkpt>
      <trkpt lat="43.20668" lon="6.24069">
        <ele>159.7</ele>
        <time>2023-03-05T11:16:12.000Z</time>
      </trkpt>
      <trkpt lat="43.20667" lon="6.24083">
        <ele>159.7</ele>
        <time>2023-03-05T11:16:21.000Z</time>
      </trkpt>
      <trkpt lat="43.20667" lon="6.24095">
        <ele>160.1</ele>
        <time>2023-03-05T11:16:30.000Z</time>
      </trkpt>
      <trkpt lat="43.20663" lon="6.24106">
        <ele>160.2</ele>
        <time>2023-03-05T11:16:39.000Z</time>
      </trkpt>
      <trkpt lat="43.2066" lon="6.24119">
        <ele>161</ele>
        <time>2023-03-05T11:16:49.000Z</time>
      </trkpt>
      <trkpt lat="43.20657" lon="6.24131">
        <ele>161.3</ele>
        <time>2023-03-05T11:16:59.000Z</time>
      </trkpt>
      <trkpt lat="43.20655" lon="6.24143">
        <ele>161.9</ele>
        <time>2023-03-05T11:17:08.000Z</time>
      </trkpt>
      <trkpt lat="43.20654" lon="6.24156">
        <ele>162</ele>
        <time>2023-03-05T11:17:17.000Z</time>
      </trkpt>
      <trkpt lat="43.20651" lon="6.24169">
        <ele>162.2</ele>
        <time>2023-03-05T11:17:26.000Z</time>
      </trkpt>
      <trkpt lat="43.20648" lon="6.24182">
        <ele>162.9</ele>
        <time>2023-03-05T11:17:36.000Z</time>
      </trkpt>
      <trkpt lat="43.20646" lon="6.24195">
        <ele>163.2</ele>
        <time>2023-03-05T11:17:45.000Z</time>
      </trkpt>
      <trkpt lat="43.20642" lon="6.24208">
        <ele>163.2</ele>
        <time>2023-03-05T11:17:54.000Z</time>
      </trkpt>
      <trkpt lat="43.2064" lon="6.24221">
        <ele>163.4</ele>
        <time>2023-03-05T11:18:03.000Z</time>
      </trkpt>
      <trkpt lat="43.20638" lon="6.24233">
        <ele>163.8</ele>
        <time>2023-03-05T11:18:10.000Z</time>
      </trkpt>
      <trkpt lat="43.20635" lon="6.24245">
        <ele>164</ele>
        <time>2023-03-05T11:18:19.000Z</time>
      </trkpt>
      <trkpt lat="43.20632" lon="6.24256">
        <ele>164.4</ele>
        <time>2023-03-05T11:18:28.000Z</time>
      </trkpt>
      <trkpt lat="43.20629" lon="6.2427">
        <ele>164.6</ele>
        <time>2023-03-05T11:18:37.000Z</time>
      </trkpt>
      <trkpt lat="43.20626" lon="6.24283">
        <ele>165.1</ele>
        <time>2023-03-05T11:18:46.000Z</time>
      </trkpt>
      <trkpt lat="43.20624" lon="6.24297">
        <ele>165.1</ele>
        <time>2023-03-05T11:18:56.000Z</time>
      </trkpt>
      <trkpt lat="43.2062" lon="6.24309">
        <ele>165.2</ele>
        <time>2023-03-05T11:19:05.000Z</time>
      </trkpt>
      <trkpt lat="43.20619" lon="6.24316">
        <ele>165.5</ele>
        <time>2023-03-05T11:19:13.000Z</time>
      </trkpt>
      <trkpt lat="43.20618" lon="6.24317">
        <ele>165.6</ele>
        <time>2023-03-05T11:19:14.000Z</time>
      </trkpt>
      <trkpt lat="43.20615" lon="6.2433">
        <ele>165.9</ele>
        <time>2023-03-05T11:19:22.000Z</time>
      </trkpt>
      <trkpt lat="43.20611" lon="6.24343">
        <ele>166.5</ele>
        <time>2023-03-05T11:19:32.000Z</time>
      </trkpt>
      <trkpt lat="43.20608" lon="6.24356">
        <ele>166.6</ele>
        <time>2023-03-05T11:19:40.000Z</time>
      </trkpt>
      <trkpt lat="43.20606" lon="6.24369">
        <ele>166.8</ele>
        <time>2023-03-05T11:19:48.000Z</time>
      </trkpt>
      <trkpt lat="43.20601" lon="6.24381">
        <ele>167</ele>
        <time>2023-03-05T11:19:56.000Z</time>
      </trkpt>
      <trkpt lat="43.20598" lon="6.24393">
        <ele>167.5</ele>
        <time>2023-03-05T11:20:04.000Z</time>
      </trkpt>
      <trkpt lat="43.20596" lon="6.24406">
        <ele>167.7</ele>
        <time>2023-03-05T11:20:13.000Z</time>
      </trkpt>
      <trkpt lat="43.20596" lon="6.24409">
        <ele>167.7</ele>
        <time>2023-03-05T11:20:17.000Z</time>
      </trkpt>
      <trkpt lat="43.20595" lon="6.2441">
        <ele>167.6</ele>
        <time>2023-03-05T11:20:19.000Z</time>
      </trkpt>
      <trkpt lat="43.20592" lon="6.24423">
        <ele>168.2</ele>
        <time>2023-03-05T11:20:30.000Z</time>
      </trkpt>
      <trkpt lat="43.20589" lon="6.24436">
        <ele>168.2</ele>
        <time>2023-03-05T11:20:39.000Z</time>
      </trkpt>
      <trkpt lat="43.20585" lon="6.24448">
        <ele>168.4</ele>
        <time>2023-03-05T11:20:48.000Z</time>
      </trkpt>
      <trkpt lat="43.20582" lon="6.24461">
        <ele>169</ele>
        <time>2023-03-05T11:20:57.000Z</time>
      </trkpt>
      <trkpt lat="43.20578" lon="6.24473">
        <ele>169.5</ele>
        <time>2023-03-05T11:21:06.000Z</time>
      </trkpt>
      <trkpt lat="43.20575" lon="6.24485">
        <ele>169.8</ele>
        <time>2023-03-05T11:21:15.000Z</time>
      </trkpt>
      <trkpt lat="43.2057" lon="6.24496">
        <ele>169.8</ele>
        <time>2023-03-05T11:21:23.000Z</time>
      </trkpt>
      <trkpt lat="43.20566" lon="6.24509">
        <ele>170.2</ele>
        <time>2023-03-05T11:21:32.000Z</time>
      </trkpt>
      <trkpt lat="43.20563" lon="6.24521">
        <ele>170.7</ele>
        <time>2023-03-05T11:21:41.000Z</time>
      </trkpt>
      <trkpt lat="43.20559" lon="6.24534">
        <ele>170.8</ele>
        <time>2023-03-05T11:21:49.000Z</time>
      </trkpt>
      <trkpt lat="43.20556" lon="6.24546">
        <ele>171.1</ele>
        <time>2023-03-05T11:21:59.000Z</time>
      </trkpt>
      <trkpt lat="43.20555" lon="6.24559">
        <ele>171.6</ele>
        <time>2023-03-05T11:22:08.000Z</time>
      </trkpt>
      <trkpt lat="43.20555" lon="6.24572">
        <ele>172</ele>
        <time>2023-03-05T11:22:17.000Z</time>
      </trkpt>
      <trkpt lat="43.20554" lon="6.24585">
        <ele>172.1</ele>
        <time>2023-03-05T11:22:26.000Z</time>
      </trkpt>
      <trkpt lat="43.20553" lon="6.24598">
        <ele>172.5</ele>
        <time>2023-03-05T11:22:35.000Z</time>
      </trkpt>
      <trkpt lat="43.20553" lon="6.24611">
        <ele>172.6</ele>
        <time>2023-03-05T11:22:44.000Z</time>
      </trkpt>
      <trkpt lat="43.20555" lon="6.24623">
        <ele>173</ele>
        <time>2023-03-05T11:22:52.000Z</time>
      </trkpt>
      <trkpt lat="43.20558" lon="6.24636">
        <ele>173.4</ele>
        <time>2023-03-05T11:23:00.000Z</time>
      </trkpt>
      <trkpt lat="43.20561" lon="6.24649">
        <ele>173.7</ele>
        <time>2023-03-05T11:23:09.000Z</time>
      </trkpt>
      <trkpt lat="43.20562" lon="6.24657">
        <ele>173.7</ele>
        <time>2023-03-05T11:23:15.000Z</time>
      </trkpt>
      <trkpt lat="43.20562" lon="6.24657">
        <ele>173.8</ele>
        <time>2023-03-05T11:23:18.000Z</time>
      </trkpt>
      <trkpt lat="43.20567" lon="6.24669">
        <ele>174</ele>
        <time>2023-03-05T11:23:26.000Z</time>
      </trkpt>
      <trkpt lat="43.20569" lon="6.24682">
        <ele>174.1</ele>
        <time>2023-03-05T11:23:34.000Z</time>
      </trkpt>
      <trkpt lat="43.20574" lon="6.24693">
        <ele>174.7</ele>
        <time>2023-03-05T11:23:42.000Z</time>
      </trkpt>
      <trkpt lat="43.20579" lon="6.24704">
        <ele>174.8</ele>
        <time>2023-03-05T11:23:51.000Z</time>
      </trkpt>
      <trkpt lat="43.20584" lon="6.24715">
        <ele>175.2</ele>
        <time>2023-03-05T11:24:00.000Z</time>
      </trkpt>
      <trkpt lat="43.20586" lon="6.24727">
        <ele>175.3</ele>
        <time>2023-03-05T11:24:08.000Z</time>
      </trkpt>
      <trkpt lat="43.20592" lon="6.24737">
        <ele>175.8</ele>
        <time>2023-03-05T11:24:17.000Z</time>
      </trkpt>
      <trkpt lat="43.20597" lon="6.24748">
        <ele>176</ele>
        <time>2023-03-05T11:24:25.000Z</time>
      </trkpt>
      <trkpt lat="43.20603" lon="6.24758">
        <ele>176.2</ele>
        <time>2023-03-05T11:24:33.000Z</time>
      </trkpt>
      <trkpt lat="43.2061" lon="6.24767">
        <ele>176.8</ele>
        <time>2023-03-05T11:24:42.000Z</time>
      </trkpt>
      <trkpt lat="43.20617" lon="6.24776">
        <ele>176.8</ele>
        <time>2023-03-05T11:24:51.000Z</time>
      </trkpt>
      <trkpt lat="43.20621" lon="6.24788">
        <ele>177.1</ele>
        <time>2023-03-05T11:25:00.000Z</time>
      </trkpt>
      <trkpt lat="43.20626" lon="6.24798">
        <ele>177.7</ele>
        <time>2023-03-05T11:25:08.000Z</time>
      </trkpt>
      <trkpt lat="43.20631" lon="6.24809">
        <ele>177.6</ele>
        <time>2023-03-05T11:25:16.000Z</time>
      </trkpt>
      <trkpt lat="43.20638" lon="6.24818">
        <ele>178.2</ele>
        <time>2023-03-05T11:25:27.000Z</time>
      </trkpt>
      <trkpt lat="43.20644" lon="6.24828">
        <ele>178.3</ele>
        <time>2023-03-05T11:25:35.000Z</time>
      </trkpt>
      <trkpt lat="43.20651" lon="6.24837">
        <ele>178.4</ele>
        <time>2023-03-05T11:25:45.000Z</time>
      </trkpt>
      <trkpt lat="43.20658" lon="6.24847">
        <ele>178.9</ele>
        <time>2023-03-05T11:25:54.000Z</time>
      </trkpt>
      <trkpt lat="43.20664" lon="6.24857">
        <ele>178.9</ele>
        <time>2023-03-05T11:26:03.000Z</time>
      </trkpt>
      <trkpt lat="43.2067" lon="6.24867">
        <ele>179.6</ele>
        <time>2023-03-05T11:26:12.000Z</time>
      </trkpt>
      <trkpt lat="43.20677" lon="6.24877">
        <ele>179.4</ele>
        <time>2023-03-05T11:26:21.000Z</time>
      </trkpt>
      <trkpt lat="43.20684" lon="6.24886">
        <ele>179.9</ele>
        <time>2023-03-05T11:26:31.000Z</time>
      </trkpt>
      <trkpt lat="43.20691" lon="6.24895">
        <ele>180.2</ele>
        <time>2023-03-05T11:26:40.000Z</time>
      </trkpt>
      <trkpt lat="43.20699" lon="6.24903">
        <ele>180.5</ele>
        <time>2023-03-05T11:26:49.000Z</time>
      </trkpt>
      <trkpt lat="43.20705" lon="6.24912">
        <ele>180.7</ele>
        <time>2023-03-05T11:26:58.000Z</time>
      </trkpt>
      <trkpt lat="43.20713" lon="6.24919">
        <ele>181.3</ele>
        <time>2023-03-05T11:27:07.000Z</time>
      </trkpt>
      <trkpt lat="43.2072" lon="6.24928">
        <ele>181.9</ele>
        <time>2023-03-05T11:27:18.000Z</time>
      </trkpt>
      <trkpt lat="43.20726" lon="6.24938">
        <ele>181.9</ele>
        <time>2023-03-05T11:27:26.000Z</time>
      </trkpt>
      <trkpt lat="43.20732" lon="6.24948">
        <ele>182</ele>
        <time>2023-03-05T11:27:35.000Z</time>
      </trkpt>
      <trkpt lat="43.20739" lon="6.24958">
        <ele>182.3</ele>
        <time>2023-03-05T11:27:44.000Z</time>
      </trkpt>
      <trkpt lat="43.20746" lon="6.24967">
        <ele>182.7</ele>
        <time>2023-03-05T11:27:54.000Z</time>
      </trkpt>
      <trkpt lat="43.20752" lon="6.24978">
        <ele>182.8</ele>
        <time>2023-03-05T11:28:03.000Z</time>
      </trkpt>
      <trkpt lat="43.20759" lon="6.24988">
        <ele>183.3</ele>
        <time>2023-03-05T11:28:13.000Z</time>
      </trkpt>
      <trkpt lat="43.20764" lon="6.24999">
        <ele>183.9</ele>
        <time>2023-03-05T11:28:23.000Z</time>
      </trkpt>
      <trkpt lat="43.20769" lon="6.25011">
        <ele>183.9</ele>
        <time>2023-03-05T11:28:33.000Z</time>
      </trkpt>
      <trkpt lat="43.20774" lon="6.25021">
        <ele>184.2</ele>
        <time>2023-03-05T11:28:42.000Z</time>
      </trkpt>
      <trkpt lat="43.20778" lon="6.25033">
        <ele>183.9</ele>
        <time>2023-03-05T11:28:50.000Z</time>
      </trkpt>
      <trkpt lat="43.20783" lon="6.25044">
        <ele>184.6</ele>
        <time>2023-03-05T11:28:58.000Z</time>
      </trkpt>
      <trkpt lat="43.20788" lon="6.25054">
        <ele>184.8</ele>
        <time>2023-03-05T11:29:07.000Z</time>
      </trkpt>
      <trkpt lat="43.20794" lon="6.25065">
        <ele>185.3</ele>
        <time>2023-03-05T11:29:16.000Z</time>
      </trkpt>
      <trkpt lat="43.208" lon="6.25075">
        <ele>185.4</ele>
        <time>2023-03-05T11:29:26.000Z</time>
      </trkpt>
      <trkpt lat="43.20806" lon="6.25086">
        <ele>186</ele>
        <time>2023-03-05T11:29:35.000Z</time>
      </trkpt>
      <trkpt lat="43.20811" lon="6.25096">
        <ele>186.9</ele>
        <time>2023-03-05T11:29:47.000Z</time>
      </trkpt>
      <trkpt lat="43.20817" lon="6.25106">
        <ele>188.8</ele>
        <time>2023-03-05T11:30:02.000Z</time>
      </trkpt>
      <trkpt lat="43.20825" lon="6.25114">
        <ele>189.8</ele>
        <time>2023-03-05T11:30:14.000Z</time>
      </trkpt>
      <trkpt lat="43.20833" lon="6.25121">
        <ele>191.2</ele>
        <time>2023-03-05T11:30:26.000Z</time>
      </trkpt>
      <trkpt lat="43.20842" lon="6.25126">
        <ele>192.1</ele>
        <time>2023-03-05T11:30:40.000Z</time>
      </trkpt>
      <trkpt lat="43.20843" lon="6.25138">
        <ele>192.2</ele>
        <time>2023-03-05T11:30:54.000Z</time>
      </trkpt>
      <trkpt lat="43.20844" lon="6.25143">
        <ele>192</ele>
        <time>2023-03-05T11:31:01.000Z</time>
      </trkpt>
      <trkpt lat="43.20844" lon="6.25142">
        <ele>192</ele>
        <time>2023-03-05T11:31:04.000Z</time>
      </trkpt>
      <trkpt lat="43.20844" lon="6.25142">
        <ele>191.9</ele>
        <time>2023-03-05T11:31:05.000Z</time>
      </trkpt>
      <trkpt lat="43.20845" lon="6.25142">
        <ele>192</ele>
        <time>2023-03-05T11:31:07.000Z</time>
      </trkpt>
      <trkpt lat="43.20846" lon="6.25139">
        <ele>192</ele>
        <time>2023-03-05T11:31:13.000Z</time>
      </trkpt>
      <trkpt lat="43.20846" lon="6.25139">
        <ele>192</ele>
        <time>2023-03-05T11:31:15.000Z</time>
      </trkpt>
      <trkpt lat="43.20846" lon="6.25139">
        <ele>192.1</ele>
        <time>2023-03-05T11:31:16.000Z</time>
      </trkpt>
      <trkpt lat="43.20846" lon="6.25138">
        <ele>192.1</ele>
        <time>2023-03-05T11:31:17.000Z</time>
      </trkpt>
      <trkpt lat="43.20844" lon="6.25132">
        <ele>192.1</ele>
        <time>2023-03-05T11:31:30.000Z</time>
      </trkpt>
      <trkpt lat="43.20844" lon="6.25132">
        <ele>192.2</ele>
        <time>2023-03-05T11:31:37.000Z</time>
      </trkpt>
      <trkpt lat="43.20844" lon="6.25132">
        <ele>192.3</ele>
        <time>2023-03-05T11:31:38.000Z</time>
      </trkpt>
      <trkpt lat="43.20844" lon="6.25132">
        <ele>192.3</ele>
        <time>2023-03-05T11:31:40.000Z</time>
      </trkpt>
      <trkpt lat="43.20845" lon="6.25143">
        <ele>192</ele>
        <time>2023-03-05T11:31:56.000Z</time>
      </trkpt>
      <trkpt lat="43.20845" lon="6.25142">
        <ele>192.3</ele>
        <time>2023-03-05T11:32:01.000Z</time>
      </trkpt>
      <trkpt lat="43.20845" lon="6.25142">
        <ele>192.3</ele>
        <time>2023-03-05T11:32:02.000Z</time>
      </trkpt>
      <trkpt lat="43.20846" lon="6.25142">
        <ele>192.3</ele>
        <time>2023-03-05T11:32:26.000Z</time>
      </trkpt>
      <trkpt lat="43.20846" lon="6.25142">
        <ele>192.5</ele>
        <time>2023-03-05T11:32:27.000Z</time>
      </trkpt>
      <trkpt lat="43.20846" lon="6.25141">
        <ele>192.5</ele>
        <time>2023-03-05T11:33:02.000Z</time>
      </trkpt>
      <trkpt lat="43.20846" lon="6.25141">
        <ele>192.5</ele>
        <time>2023-03-05T11:33:03.000Z</time>
      </trkpt>
      <trkpt lat="43.20846" lon="6.25141">
        <ele>192.7</ele>
        <time>2023-03-05T11:33:08.000Z</time>
      </trkpt>
      <trkpt lat="43.20846" lon="6.25139">
        <ele>192.4</ele>
        <time>2023-03-05T11:33:13.000Z</time>
      </trkpt>
      <trkpt lat="43.20846" lon="6.25139">
        <ele>192.6</ele>
        <time>2023-03-05T11:33:35.000Z</time>
      </trkpt>
      <trkpt lat="43.20846" lon="6.25139">
        <ele>192.7</ele>
        <time>2023-03-05T11:33:36.000Z</time>
      </trkpt>
      <trkpt lat="43.20846" lon="6.2514">
        <ele>192.4</ele>
        <time>2023-03-05T11:34:29.000Z</time>
      </trkpt>
      <trkpt lat="43.20847" lon="6.25139">
        <ele>192.6</ele>
        <time>2023-03-05T11:34:31.000Z</time>
      </trkpt>
      <trkpt lat="43.20846" lon="6.25139">
        <ele>192.5</ele>
        <time>2023-03-05T11:34:32.000Z</time>
      </trkpt>
      <trkpt lat="43.20846" lon="6.25139">
        <ele>192.5</ele>
        <time>2023-03-05T11:34:33.000Z</time>
      </trkpt>
      <trkpt lat="43.20846" lon="6.25138">
        <ele>192.4</ele>
        <time>2023-03-05T11:34:48.000Z</time>
      </trkpt>
      <trkpt lat="43.20846" lon="6.25138">
        <ele>192.6</ele>
        <time>2023-03-05T11:34:52.000Z</time>
      </trkpt>
      <trkpt lat="43.20846" lon="6.25137">
        <ele>192.6</ele>
        <time>2023-03-05T11:34:55.000Z</time>
      </trkpt>
      <trkpt lat="43.20846" lon="6.25137">
        <ele>192.5</ele>
        <time>2023-03-05T11:34:56.000Z</time>
      </trkpt>
      <trkpt lat="43.20845" lon="6.25138">
        <ele>192.6</ele>
        <time>2023-03-05T11:35:05.000Z</time>
      </trkpt>
      <trkpt lat="43.20844" lon="6.25138">
        <ele>192.6</ele>
        <time>2023-03-05T11:35:09.000Z</time>
      </trkpt>
      <trkpt lat="43.20845" lon="6.25138">
        <ele>192.6</ele>
        <time>2023-03-05T11:35:10.000Z</time>
      </trkpt>
      <trkpt lat="43.20845" lon="6.25138">
        <ele>192.7</ele>
        <time>2023-03-05T11:35:11.000Z</time>
      </trkpt>
      <trkpt lat="43.20844" lon="6.25138">
        <ele>193.1</ele>
        <time>2023-03-05T11:36:43.000Z</time>
      </trkpt>
      <trkpt lat="43.20844" lon="6.25138">
        <ele>193.1</ele>
        <time>2023-03-05T11:36:44.000Z</time>
      </trkpt>
      <trkpt lat="43.20845" lon="6.25139">
        <ele>193.4</ele>
        <time>2023-03-05T11:36:58.000Z</time>
      </trkpt>
      <trkpt lat="43.20846" lon="6.25139">
        <ele>193.2</ele>
        <time>2023-03-05T11:37:06.000Z</time>
      </trkpt>
      <trkpt lat="43.20846" lon="6.25138">
        <ele>193.1</ele>
        <time>2023-03-05T11:37:08.000Z</time>
      </trkpt>
      <trkpt lat="43.20846" lon="6.25128">
        <ele>193.2</ele>
        <time>2023-03-05T11:37:19.000Z</time>
      </trkpt>
      <trkpt lat="43.20846" lon="6.25128">
        <ele>193.2</ele>
        <time>2023-03-05T11:37:21.000Z</time>
      </trkpt>
      <trkpt lat="43.20845" lon="6.25128">
        <ele>193.2</ele>
        <time>2023-03-05T11:37:27.000Z</time>
      </trkpt>
      <trkpt lat="43.20845" lon="6.25129">
        <ele>193.2</ele>
        <time>2023-03-05T11:37:29.000Z</time>
      </trkpt>
      <trkpt lat="43.20854" lon="6.25128">
        <ele>193.2</ele>
        <time>2023-03-05T11:37:42.000Z</time>
      </trkpt>
      <trkpt lat="43.2086" lon="6.25133">
        <ele>193.4</ele>
        <time>2023-03-05T11:37:55.000Z</time>
      </trkpt>
      <trkpt lat="43.2086" lon="6.25133">
        <ele>193.4</ele>
        <time>2023-03-05T11:37:57.000Z</time>
      </trkpt>
      <trkpt lat="43.20851" lon="6.25126">
        <ele>193.6</ele>
        <time>2023-03-05T11:38:07.000Z</time>
      </trkpt>
      <trkpt lat="43.20844" lon="6.25134">
        <ele>193.4</ele>
        <time>2023-03-05T11:38:20.000Z</time>
      </trkpt>
      <trkpt lat="43.20842" lon="6.25141">
        <ele>193.2</ele>
        <time>2023-03-05T11:38:30.000Z</time>
      </trkpt>
      <trkpt lat="43.20842" lon="6.25141">
        <ele>193.1</ele>
        <time>2023-03-05T11:38:31.000Z</time>
      </trkpt>
      <trkpt lat="43.20842" lon="6.25141">
        <ele>193.1</ele>
        <time>2023-03-05T11:38:34.000Z</time>
      </trkpt>
      <trkpt lat="43.20843" lon="6.25141">
        <ele>193.3</ele>
        <time>2023-03-05T11:38:56.000Z</time>
      </trkpt>
      <trkpt lat="43.20843" lon="6.25141">
        <ele>193.2</ele>
        <time>2023-03-05T11:38:57.000Z</time>
      </trkpt>
      <trkpt lat="43.20843" lon="6.25141">
        <ele>193.1</ele>
        <time>2023-03-05T11:38:59.000Z</time>
      </trkpt>
      <trkpt lat="43.20843" lon="6.25141">
        <ele>193.1</ele>
        <time>2023-03-05T11:39:00.000Z</time>
      </trkpt>
      <trkpt lat="43.20843" lon="6.25141">
        <ele>193.1</ele>
        <time>2023-03-05T11:39:19.000Z</time>
      </trkpt>
      <trkpt lat="43.20844" lon="6.2514">
        <ele>193.1</ele>
        <time>2023-03-05T11:39:21.000Z</time>
      </trkpt>
      <trkpt lat="43.20844" lon="6.2514">
        <ele>193.1</ele>
        <time>2023-03-05T11:39:22.000Z</time>
      </trkpt>
      <trkpt lat="43.20844" lon="6.2514">
        <ele>193.1</ele>
        <time>2023-03-05T11:39:23.000Z</time>
      </trkpt>
      <trkpt lat="43.20844" lon="6.2514">
        <ele>193.4</ele>
        <time>2023-03-05T11:39:32.000Z</time>
      </trkpt>
      <trkpt lat="43.20845" lon="6.2514">
        <ele>193.1</ele>
        <time>2023-03-05T11:39:36.000Z</time>
      </trkpt>
      <trkpt lat="43.20845" lon="6.2514">
        <ele>193.3</ele>
        <time>2023-03-05T11:39:42.000Z</time>
      </trkpt>
      <trkpt lat="43.20845" lon="6.2514">
        <ele>193.4</ele>
        <time>2023-03-05T11:39:43.000Z</time>
      </trkpt>
      <trkpt lat="43.20845" lon="6.2514">
        <ele>193.1</ele>
        <time>2023-03-05T11:39:46.000Z</time>
      </trkpt>
      <trkpt lat="43.20847" lon="6.25141">
        <ele>193.5</ele>
        <time>2023-03-05T11:39:50.000Z</time>
      </trkpt>
      <trkpt lat="43.20846" lon="6.25141">
        <ele>193.5</ele>
        <time>2023-03-05T11:39:51.000Z</time>
      </trkpt>
      <trkpt lat="43.20847" lon="6.25141">
        <ele>193.2</ele>
        <time>2023-03-05T11:39:53.000Z</time>
      </trkpt>
      <trkpt lat="43.20846" lon="6.25141">
        <ele>193.4</ele>
        <time>2023-03-05T11:40:02.000Z</time>
      </trkpt>
      <trkpt lat="43.20845" lon="6.25139">
        <ele>193.3</ele>
        <time>2023-03-05T11:40:07.000Z</time>
      </trkpt>
      <trkpt lat="43.20845" lon="6.25139">
        <ele>193.2</ele>
        <time>2023-03-05T11:40:38.000Z</time>
      </trkpt>
      <trkpt lat="43.20845" lon="6.25139">
        <ele>193.3</ele>
        <time>2023-03-05T11:40:39.000Z</time>
      </trkpt>
      <trkpt lat="43.20845" lon="6.25139">
        <ele>193.5</ele>
        <time>2023-03-05T11:41:07.000Z</time>
      </trkpt>
      <trkpt lat="43.20845" lon="6.25139">
        <ele>193.5</ele>
        <time>2023-03-05T11:41:08.000Z</time>
      </trkpt>
      <trkpt lat="43.20844" lon="6.25139">
        <ele>193.4</ele>
        <time>2023-03-05T11:41:45.000Z</time>
      </trkpt>
      <trkpt lat="43.20844" lon="6.25139">
        <ele>193.4</ele>
        <time>2023-03-05T11:41:46.000Z</time>
      </trkpt>
      <trkpt lat="43.20844" lon="6.25139">
        <ele>193.7</ele>
        <time>2023-03-05T11:42:53.000Z</time>
      </trkpt>
      <trkpt lat="43.20844" lon="6.25139">
        <ele>193.8</ele>
        <time>2023-03-05T11:42:54.000Z</time>
      </trkpt>
      <trkpt lat="43.20844" lon="6.25139">
        <ele>193.8</ele>
        <time>2023-03-05T11:43:12.000Z</time>
      </trkpt>
      <trkpt lat="43.20844" lon="6.25139">
        <ele>193.8</ele>
        <time>2023-03-05T11:43:13.000Z</time>
      </trkpt>
      <trkpt lat="43.20844" lon="6.25139">
        <ele>194.1</ele>
        <time>2023-03-05T11:46:46.000Z</time>
      </trkpt>
      <trkpt lat="43.20844" lon="6.25139">
        <ele>194</ele>
        <time>2023-03-05T11:46:47.000Z</time>
      </trkpt>
      <trkpt lat="43.20844" lon="6.25139">
        <ele>194.1</ele>
        <time>2023-03-05T11:48:21.000Z</time>
      </trkpt>
      <trkpt lat="43.20844" lon="6.25139">
        <ele>194.2</ele>
        <time>2023-03-05T11:48:22.000Z</time>
      </trkpt>
      <trkpt lat="43.20844" lon="6.25139">
        <ele>193.9</ele>
        <time>2023-03-05T11:49:37.000Z</time>
      </trkpt>
      <trkpt lat="43.20844" lon="6.25139">
        <ele>193.9</ele>
        <time>2023-03-05T11:49:38.000Z</time>
      </trkpt>
      <trkpt lat="43.20844" lon="6.25139">
        <ele>193.9</ele>
        <time>2023-03-05T11:49:52.000Z</time>
      </trkpt>
      <trkpt lat="43.20844" lon="6.25141">
        <ele>194.1</ele>
        <time>2023-03-05T11:49:58.000Z</time>
      </trkpt>
      <trkpt lat="43.20844" lon="6.25141">
        <ele>194.1</ele>
        <time>2023-03-05T11:50:06.000Z</time>
      </trkpt>
      <trkpt lat="43.20844" lon="6.25141">
        <ele>194.1</ele>
        <time>2023-03-05T11:50:07.000Z</time>
      </trkpt>
      <trkpt lat="43.20845" lon="6.25141">
        <ele>194.1</ele>
        <time>2023-03-05T11:50:09.000Z</time>
      </trkpt>
      <trkpt lat="43.20845" lon="6.2514">
        <ele>194.2</ele>
        <time>2023-03-05T11:50:15.000Z</time>
      </trkpt>
      <trkpt lat="43.20845" lon="6.25139">
        <ele>194.4</ele>
        <time>2023-03-05T11:50:21.000Z</time>
      </trkpt>
      <trkpt lat="43.20845" lon="6.25138">
        <ele>194</ele>
        <time>2023-03-05T11:50:24.000Z</time>
      </trkpt>
      <trkpt lat="43.20845" lon="6.25138">
        <ele>193.9</ele>
        <time>2023-03-05T11:50:28.000Z</time>
      </trkpt>
      <trkpt lat="43.20845" lon="6.2514">
        <ele>194.1</ele>
        <time>2023-03-05T11:50:32.000Z</time>
      </trkpt>
      <trkpt lat="43.20845" lon="6.25141">
        <ele>194.3</ele>
        <time>2023-03-05T11:50:40.000Z</time>
      </trkpt>
      <trkpt lat="43.20845" lon="6.25141">
        <ele>194.4</ele>
        <time>2023-03-05T11:50:41.000Z</time>
      </trkpt>
      <trkpt lat="43.20845" lon="6.25141">
        <ele>194.4</ele>
        <time>2023-03-05T11:50:47.000Z</time>
      </trkpt>
      <trkpt lat="43.20845" lon="6.25141">
        <ele>194.4</ele>
        <time>2023-03-05T11:50:48.000Z</time>
      </trkpt>
      <trkpt lat="43.20845" lon="6.25141">
        <ele>194.4</ele>
        <time>2023-03-05T11:50:55.000Z</time>
      </trkpt>
      <trkpt lat="43.20845" lon="6.25141">
        <ele>194.4</ele>
        <time>2023-03-05T11:50:56.000Z</time>
      </trkpt>
      <trkpt lat="43.20845" lon="6.25141">
        <ele>194.4</ele>
        <time>2023-03-05T11:51:08.000Z</time>
      </trkpt>
      <trkpt lat="43.20845" lon="6.25141">
        <ele>194.1</ele>
        <time>2023-03-05T11:51:09.000Z</time>
      </trkpt>
      <trkpt lat="43.20845" lon="6.25141">
        <ele>194.2</ele>
        <time>2023-03-05T11:51:10.000Z</time>
      </trkpt>
      <trkpt lat="43.20846" lon="6.25143">
        <ele>194.5</ele>
        <time>2023-03-05T11:51:14.000Z</time>
      </trkpt>
      <trkpt lat="43.20846" lon="6.25143">
        <ele>194.4</ele>
        <time>2023-03-05T11:51:21.000Z</time>
      </trkpt>
      <trkpt lat="43.20847" lon="6.25143">
        <ele>194.4</ele>
        <time>2023-03-05T11:51:24.000Z</time>
      </trkpt>
      <trkpt lat="43.20847" lon="6.25143">
        <ele>194.3</ele>
        <time>2023-03-05T11:51:56.000Z</time>
      </trkpt>
      <trkpt lat="43.20847" lon="6.25143">
        <ele>194.5</ele>
        <time>2023-03-05T11:51:57.000Z</time>
      </trkpt>
      <trkpt lat="43.20847" lon="6.25143">
        <ele>194.9</ele>
        <time>2023-03-05T11:52:37.000Z</time>
      </trkpt>
      <trkpt lat="43.20847" lon="6.25143">
        <ele>195.1</ele>
        <time>2023-03-05T11:52:38.000Z</time>
      </trkpt>
      <trkpt lat="43.20848" lon="6.25142">
        <ele>194.7</ele>
        <time>2023-03-05T11:54:54.000Z</time>
      </trkpt>
      <trkpt lat="43.20848" lon="6.25143">
        <ele>194.9</ele>
        <time>2023-03-05T11:54:57.000Z</time>
      </trkpt>
      <trkpt lat="43.20848" lon="6.25143">
        <ele>195.2</ele>
        <time>2023-03-05T11:55:40.000Z</time>
      </trkpt>
      <trkpt lat="43.20848" lon="6.25143">
        <ele>195.1</ele>
        <time>2023-03-05T11:55:41.000Z</time>
      </trkpt>
      <trkpt lat="43.20848" lon="6.25143">
        <ele>195.2</ele>
        <time>2023-03-05T11:56:13.000Z</time>
      </trkpt>
      <trkpt lat="43.20848" lon="6.25143">
        <ele>195.2</ele>
        <time>2023-03-05T11:56:14.000Z</time>
      </trkpt>
      <trkpt lat="43.20849" lon="6.25143">
        <ele>195.3</ele>
        <time>2023-03-05T11:56:19.000Z</time>
      </trkpt>
      <trkpt lat="43.20849" lon="6.25143">
        <ele>195.2</ele>
        <time>2023-03-05T11:56:20.000Z</time>
      </trkpt>
      <trkpt lat="43.20849" lon="6.25142">
        <ele>195.1</ele>
        <time>2023-03-05T11:57:13.000Z</time>
      </trkpt>
      <trkpt lat="43.20849" lon="6.25142">
        <ele>195.1</ele>
        <time>2023-03-05T11:57:14.000Z</time>
      </trkpt>
      <trkpt lat="43.20849" lon="6.25142">
        <ele>195.2</ele>
        <time>2023-03-05T11:58:07.000Z</time>
      </trkpt>
      <trkpt lat="43.20849" lon="6.25142">
        <ele>195.3</ele>
        <time>2023-03-05T11:58:08.000Z</time>
      </trkpt>
      <trkpt lat="43.20849" lon="6.25142">
        <ele>195.4</ele>
        <time>2023-03-05T11:58:47.000Z</time>
      </trkpt>
      <trkpt lat="43.20849" lon="6.25142">
        <ele>195.4</ele>
        <time>2023-03-05T11:58:48.000Z</time>
      </trkpt>
      <trkpt lat="43.20849" lon="6.25142">
        <ele>195.5</ele>
        <time>2023-03-05T11:58:50.000Z</time>
      </trkpt>
      <trkpt lat="43.20847" lon="6.2514">
        <ele>195.2</ele>
        <time>2023-03-05T11:58:55.000Z</time>
      </trkpt>
      <trkpt lat="43.20847" lon="6.25139">
        <ele>195.4</ele>
        <time>2023-03-05T11:59:00.000Z</time>
      </trkpt>
      <trkpt lat="43.20847" lon="6.25139">
        <ele>195.2</ele>
        <time>2023-03-05T11:59:06.000Z</time>
      </trkpt>
      <trkpt lat="43.20847" lon="6.25139">
        <ele>195.4</ele>
        <time>2023-03-05T11:59:16.000Z</time>
      </trkpt>
      <trkpt lat="43.20847" lon="6.25139">
        <ele>195.5</ele>
        <time>2023-03-05T11:59:17.000Z</time>
      </trkpt>
      <trkpt lat="43.20847" lon="6.25139">
        <ele>195.5</ele>
        <time>2023-03-05T11:59:24.000Z</time>
      </trkpt>
      <trkpt lat="43.20847" lon="6.25139">
        <ele>195.4</ele>
        <time>2023-03-05T11:59:25.000Z</time>
      </trkpt>
      <trkpt lat="43.20847" lon="6.25138">
        <ele>195.9</ele>
        <time>2023-03-05T11:59:43.000Z</time>
      </trkpt>
      <trkpt lat="43.20845" lon="6.25138">
        <ele>195.4</ele>
        <time>2023-03-05T11:59:47.000Z</time>
      </trkpt>
      <trkpt lat="43.20845" lon="6.25138">
        <ele>195.5</ele>
        <time>2023-03-05T12:00:30.000Z</time>
      </trkpt>
      <trkpt lat="43.20846" lon="6.25138">
        <ele>195.2</ele>
        <time>2023-03-05T12:00:32.000Z</time>
      </trkpt>
      <trkpt lat="43.20846" lon="6.25138">
        <ele>195.5</ele>
        <time>2023-03-05T12:00:56.000Z</time>
      </trkpt>
      <trkpt lat="43.20846" lon="6.25138">
        <ele>195.5</ele>
        <time>2023-03-05T12:00:57.000Z</time>
      </trkpt>
      <trkpt lat="43.20846" lon="6.25138">
        <ele>195.8</ele>
        <time>2023-03-05T12:01:21.000Z</time>
      </trkpt>
      <trkpt lat="43.20846" lon="6.25138">
        <ele>195.9</ele>
        <time>2023-03-05T12:01:22.000Z</time>
      </trkpt>
      <trkpt lat="43.20846" lon="6.25139">
        <ele>195.8</ele>
        <time>2023-03-05T12:01:45.000Z</time>
      </trkpt>
      <trkpt lat="43.20846" lon="6.25139">
        <ele>195.8</ele>
        <time>2023-03-05T12:01:46.000Z</time>
      </trkpt>
      <trkpt lat="43.20846" lon="6.25139">
        <ele>195.7</ele>
        <time>2023-03-05T12:02:24.000Z</time>
      </trkpt>
      <trkpt lat="43.20847" lon="6.2514">
        <ele>195.9</ele>
        <time>2023-03-05T12:02:28.000Z</time>
      </trkpt>
      <trkpt lat="43.20847" lon="6.2514">
        <ele>195.8</ele>
        <time>2023-03-05T12:02:30.000Z</time>
      </trkpt>
      <trkpt lat="43.20847" lon="6.2514">
        <ele>195.9</ele>
        <time>2023-03-05T12:02:32.000Z</time>
      </trkpt>
      <trkpt lat="43.20848" lon="6.2514">
        <ele>195.9</ele>
        <time>2023-03-05T12:02:56.000Z</time>
      </trkpt>
      <trkpt lat="43.20848" lon="6.2514">
        <ele>196</ele>
        <time>2023-03-05T12:02:57.000Z</time>
      </trkpt>
      <trkpt lat="43.20847" lon="6.2514">
        <ele>195.9</ele>
        <time>2023-03-05T12:03:16.000Z</time>
      </trkpt>
      <trkpt lat="43.20846" lon="6.25139">
        <ele>195.8</ele>
        <time>2023-03-05T12:03:23.000Z</time>
      </trkpt>
      <trkpt lat="43.20846" lon="6.25139">
        <ele>196.1</ele>
        <time>2023-03-05T12:03:34.000Z</time>
      </trkpt>
      <trkpt lat="43.20847" lon="6.25138">
        <ele>196.1</ele>
        <time>2023-03-05T12:03:38.000Z</time>
      </trkpt>
      <trkpt lat="43.20847" lon="6.25138">
        <ele>196.2</ele>
        <time>2023-03-05T12:03:48.000Z</time>
      </trkpt>
      <trkpt lat="43.20847" lon="6.25138">
        <ele>196.3</ele>
        <time>2023-03-05T12:03:49.000Z</time>
      </trkpt>
      <trkpt lat="43.20848" lon="6.25137">
        <ele>196.2</ele>
        <time>2023-03-05T12:04:15.000Z</time>
      </trkpt>
      <trkpt lat="43.20848" lon="6.25137">
        <ele>196.2</ele>
        <time>2023-03-05T12:04:16.000Z</time>
      </trkpt>
      <trkpt lat="43.20847" lon="6.25137">
        <ele>196.1</ele>
        <time>2023-03-05T12:04:17.000Z</time>
      </trkpt>
      <trkpt lat="43.20848" lon="6.25137">
        <ele>196.2</ele>
        <time>2023-03-05T12:04:19.000Z</time>
      </trkpt>
      <trkpt lat="43.20848" lon="6.25137">
        <ele>196.2</ele>
        <time>2023-03-05T12:04:25.000Z</time>
      </trkpt>
      <trkpt lat="43.20848" lon="6.25137">
        <ele>196.2</ele>
        <time>2023-03-05T12:04:26.000Z</time>
      </trkpt>
      <trkpt lat="43.20848" lon="6.25137">
        <ele>196.1</ele>
        <time>2023-03-05T12:04:29.000Z</time>
      </trkpt>
      <trkpt lat="43.20846" lon="6.25135">
        <ele>196</ele>
        <time>2023-03-05T12:04:35.000Z</time>
      </trkpt>
      <trkpt lat="43.20846" lon="6.25135">
        <ele>196.1</ele>
        <time>2023-03-05T12:04:36.000Z</time>
      </trkpt>
      <trkpt lat="43.20846" lon="6.25135">
        <ele>196.1</ele>
        <time>2023-03-05T12:04:37.000Z</time>
      </trkpt>
      <trkpt lat="43.20846" lon="6.25135">
        <ele>195.8</ele>
        <time>2023-03-05T12:04:39.000Z</time>
      </trkpt>
      <trkpt lat="43.20846" lon="6.25135">
        <ele>196</ele>
        <time>2023-03-05T12:04:40.000Z</time>
      </trkpt>
      <trkpt lat="43.20845" lon="6.25135">
        <ele>195.9</ele>
        <time>2023-03-05T12:05:01.000Z</time>
      </trkpt>
      <trkpt lat="43.20845" lon="6.25135">
        <ele>195.8</ele>
        <time>2023-03-05T12:05:02.000Z</time>
      </trkpt>
      <trkpt lat="43.20845" lon="6.25136">
        <ele>196.1</ele>
        <time>2023-03-05T12:05:29.000Z</time>
      </trkpt>
      <trkpt lat="43.20845" lon="6.25136">
        <ele>196.1</ele>
        <time>2023-03-05T12:05:30.000Z</time>
      </trkpt>
      <trkpt lat="43.20845" lon="6.25136">
        <ele>196.5</ele>
        <time>2023-03-05T12:06:04.000Z</time>
      </trkpt>
      <trkpt lat="43.2084" lon="6.25139">
        <ele>196.4</ele>
        <time>2023-03-05T12:06:27.000Z</time>
      </trkpt>
      <trkpt lat="43.2084" lon="6.2514">
        <ele>196.4</ele>
        <time>2023-03-05T12:06:28.000Z</time>
      </trkpt>
      <trkpt lat="43.2084" lon="6.2514">
        <ele>196.3</ele>
        <time>2023-03-05T12:06:29.000Z</time>
      </trkpt>
      <trkpt lat="43.2084" lon="6.25139">
        <ele>196.3</ele>
        <time>2023-03-05T12:06:31.000Z</time>
      </trkpt>
      <trkpt lat="43.20841" lon="6.25141">
        <ele>196.3</ele>
        <time>2023-03-05T12:06:35.000Z</time>
      </trkpt>
      <trkpt lat="43.20841" lon="6.25141">
        <ele>196.3</ele>
        <time>2023-03-05T12:06:36.000Z</time>
      </trkpt>
      <trkpt lat="43.20842" lon="6.25141">
        <ele>196.4</ele>
        <time>2023-03-05T12:06:38.000Z</time>
      </trkpt>
      <trkpt lat="43.20842" lon="6.25141">
        <ele>196.4</ele>
        <time>2023-03-05T12:06:39.000Z</time>
      </trkpt>
      <trkpt lat="43.20842" lon="6.25142">
        <ele>196.4</ele>
        <time>2023-03-05T12:06:40.000Z</time>
      </trkpt>
      <trkpt lat="43.20841" lon="6.25142">
        <ele>196.6</ele>
        <time>2023-03-05T12:06:41.000Z</time>
      </trkpt>
      <trkpt lat="43.20841" lon="6.25142">
        <ele>196.2</ele>
        <time>2023-03-05T12:06:45.000Z</time>
      </trkpt>
      <trkpt lat="43.20841" lon="6.25142">
        <ele>196.2</ele>
        <time>2023-03-05T12:06:47.000Z</time>
      </trkpt>
      <trkpt lat="43.20839" lon="6.25143">
        <ele>196.3</ele>
        <time>2023-03-05T12:06:53.000Z</time>
      </trkpt>
      <trkpt lat="43.2084" lon="6.25143">
        <ele>196.4</ele>
        <time>2023-03-05T12:07:14.000Z</time>
      </trkpt>
      <trkpt lat="43.2084" lon="6.25143">
        <ele>196.4</ele>
        <time>2023-03-05T12:07:15.000Z</time>
      </trkpt>
      <trkpt lat="43.20839" lon="6.25143">
        <ele>196.7</ele>
        <time>2023-03-05T12:07:18.000Z</time>
      </trkpt>
      <trkpt lat="43.2084" lon="6.25143">
        <ele>196.6</ele>
        <time>2023-03-05T12:07:20.000Z</time>
      </trkpt>
      <trkpt lat="43.2084" lon="6.25143">
        <ele>196.4</ele>
        <time>2023-03-05T12:07:34.000Z</time>
      </trkpt>
      <trkpt lat="43.2084" lon="6.25143">
        <ele>196.3</ele>
        <time>2023-03-05T12:07:35.000Z</time>
      </trkpt>
      <trkpt lat="43.2084" lon="6.25143">
        <ele>196.4</ele>
        <time>2023-03-05T12:07:42.000Z</time>
      </trkpt>
      <trkpt lat="43.2084" lon="6.25143">
        <ele>196.4</ele>
        <time>2023-03-05T12:07:43.000Z</time>
      </trkpt>
      <trkpt lat="43.20839" lon="6.25142">
        <ele>196.8</ele>
        <time>2023-03-05T12:09:22.000Z</time>
      </trkpt>
      <trkpt lat="43.20844" lon="6.25139">
        <ele>196.9</ele>
        <time>2023-03-05T12:09:33.000Z</time>
      </trkpt>
      <trkpt lat="43.20844" lon="6.25138">
        <ele>197.5</ele>
        <time>2023-03-05T12:10:52.000Z</time>
      </trkpt>
      <trkpt lat="43.20844" lon="6.25138">
        <ele>197.5</ele>
        <time>2023-03-05T12:10:53.000Z</time>
      </trkpt>
      <trkpt lat="43.20845" lon="6.25138">
        <ele>197.5</ele>
        <time>2023-03-05T12:10:56.000Z</time>
      </trkpt>
      <trkpt lat="43.20845" lon="6.25138">
        <ele>197.4</ele>
        <time>2023-03-05T12:10:57.000Z</time>
      </trkpt>
      <trkpt lat="43.20845" lon="6.25138">
        <ele>197.3</ele>
        <time>2023-03-05T12:11:04.000Z</time>
      </trkpt>
      <trkpt lat="43.20845" lon="6.25138">
        <ele>197.3</ele>
        <time>2023-03-05T12:11:05.000Z</time>
      </trkpt>
      <trkpt lat="43.20845" lon="6.25138">
        <ele>197.1</ele>
        <time>2023-03-05T12:11:23.000Z</time>
      </trkpt>
      <trkpt lat="43.20846" lon="6.25136">
        <ele>197.2</ele>
        <time>2023-03-05T12:11:27.000Z</time>
      </trkpt>
      <trkpt lat="43.20846" lon="6.25136">
        <ele>197.2</ele>
        <time>2023-03-05T12:11:28.000Z</time>
      </trkpt>
      <trkpt lat="43.20846" lon="6.25135">
        <ele>196.8</ele>
        <time>2023-03-05T12:11:31.000Z</time>
      </trkpt>
      <trkpt lat="43.20845" lon="6.25135">
        <ele>197.3</ele>
        <time>2023-03-05T12:12:02.000Z</time>
      </trkpt>
      <trkpt lat="43.20845" lon="6.25135">
        <ele>197.4</ele>
        <time>2023-03-05T12:12:03.000Z</time>
      </trkpt>
      <trkpt lat="43.20845" lon="6.25135">
        <ele>197.2</ele>
        <time>2023-03-05T12:13:33.000Z</time>
      </trkpt>
      <trkpt lat="43.20845" lon="6.25135">
        <ele>197.2</ele>
        <time>2023-03-05T12:13:34.000Z</time>
      </trkpt>
      <trkpt lat="43.20845" lon="6.25136">
        <ele>197.2</ele>
        <time>2023-03-05T12:14:13.000Z</time>
      </trkpt>
      <trkpt lat="43.20845" lon="6.25136">
        <ele>197.1</ele>
        <time>2023-03-05T12:14:14.000Z</time>
      </trkpt>
      <trkpt lat="43.20845" lon="6.25136">
        <ele>197.2</ele>
        <time>2023-03-05T12:15:01.000Z</time>
      </trkpt>
      <trkpt lat="43.20845" lon="6.25136">
        <ele>197.2</ele>
        <time>2023-03-05T12:15:02.000Z</time>
      </trkpt>
      <trkpt lat="43.20845" lon="6.25135">
        <ele>197.3</ele>
        <time>2023-03-05T12:15:11.000Z</time>
      </trkpt>
      <trkpt lat="43.20845" lon="6.25135">
        <ele>197.1</ele>
        <time>2023-03-05T12:15:12.000Z</time>
      </trkpt>
      <trkpt lat="43.20845" lon="6.25135">
        <ele>197.2</ele>
        <time>2023-03-05T12:16:23.000Z</time>
      </trkpt>
      <trkpt lat="43.20845" lon="6.25135">
        <ele>197.2</ele>
        <time>2023-03-05T12:16:24.000Z</time>
      </trkpt>
      <trkpt lat="43.20844" lon="6.25136">
        <ele>197.3</ele>
        <time>2023-03-05T12:18:05.000Z</time>
      </trkpt>
      <trkpt lat="43.20844" lon="6.25136">
        <ele>197.3</ele>
        <time>2023-03-05T12:18:07.000Z</time>
      </trkpt>
      <trkpt lat="43.20844" lon="6.25136">
        <ele>197.2</ele>
        <time>2023-03-05T12:18:57.000Z</time>
      </trkpt>
      <trkpt lat="43.20844" lon="6.25136">
        <ele>197.1</ele>
        <time>2023-03-05T12:18:58.000Z</time>
      </trkpt>
      <trkpt lat="43.20844" lon="6.25136">
        <ele>197.6</ele>
        <time>2023-03-05T12:20:15.000Z</time>
      </trkpt>
      <trkpt lat="43.20844" lon="6.25136">
        <ele>197.5</ele>
        <time>2023-03-05T12:20:16.000Z</time>
      </trkpt>
      <trkpt lat="43.20844" lon="6.25136">
        <ele>197.7</ele>
        <time>2023-03-05T12:21:10.000Z</time>
      </trkpt>
      <trkpt lat="43.20844" lon="6.25136">
        <ele>197.5</ele>
        <time>2023-03-05T12:21:11.000Z</time>
      </trkpt>
      <trkpt lat="43.20844" lon="6.25136">
        <ele>197.9</ele>
        <time>2023-03-05T12:23:37.000Z</time>
      </trkpt>
      <trkpt lat="43.20844" lon="6.25136">
        <ele>197.9</ele>
        <time>2023-03-05T12:23:38.000Z</time>
      </trkpt>
      <trkpt lat="43.20844" lon="6.25136">
        <ele>197.9</ele>
        <time>2023-03-05T12:23:47.000Z</time>
      </trkpt>
      <trkpt lat="43.20844" lon="6.25136">
        <ele>197.9</ele>
        <time>2023-03-05T12:23:48.000Z</time>
      </trkpt>
      <trkpt lat="43.20845" lon="6.25136">
        <ele>197.9</ele>
        <time>2023-03-05T12:23:49.000Z</time>
      </trkpt>
      <trkpt lat="43.20845" lon="6.25136">
        <ele>198</ele>
        <time>2023-03-05T12:23:50.000Z</time>
      </trkpt>
      <trkpt lat="43.20845" lon="6.25136">
        <ele>198.1</ele>
        <time>2023-03-05T12:23:51.000Z</time>
      </trkpt>
      <trkpt lat="43.20845" lon="6.25136">
        <ele>198.2</ele>
        <time>2023-03-05T12:23:52.000Z</time>
      </trkpt>
      <trkpt lat="43.20845" lon="6.25136">
        <ele>198.2</ele>
        <time>2023-03-05T12:24:18.000Z</time>
      </trkpt>
      <trkpt lat="43.20845" lon="6.25136">
        <ele>198.1</ele>
        <time>2023-03-05T12:24:19.000Z</time>
      </trkpt>
      <trkpt lat="43.20845" lon="6.25136">
        <ele>198.1</ele>
        <time>2023-03-05T12:24:21.000Z</time>
      </trkpt>
      <trkpt lat="43.20845" lon="6.25136">
        <ele>198.2</ele>
        <time>2023-03-05T12:24:22.000Z</time>
      </trkpt>
      <trkpt lat="43.20845" lon="6.25135">
        <ele>198.1</ele>
        <time>2023-03-05T12:24:29.000Z</time>
      </trkpt>
      <trkpt lat="43.20845" lon="6.25135">
        <ele>198</ele>
        <time>2023-03-05T12:24:30.000Z</time>
      </trkpt>
      <trkpt lat="43.20845" lon="6.25135">
        <ele>198.1</ele>
        <time>2023-03-05T12:24:38.000Z</time>
      </trkpt>
      <trkpt lat="43.20846" lon="6.25133">
        <ele>197.8</ele>
        <time>2023-03-05T12:24:44.000Z</time>
      </trkpt>
      <trkpt lat="43.20847" lon="6.25133">
        <ele>198.1</ele>
        <time>2023-03-05T12:24:46.000Z</time>
      </trkpt>
      <trkpt lat="43.20856" lon="6.2513">
        <ele>198</ele>
        <time>2023-03-05T12:24:57.000Z</time>
      </trkpt>
      <trkpt lat="43.20857" lon="6.25127">
        <ele>198.2</ele>
        <time>2023-03-05T12:25:03.000Z</time>
      </trkpt>
      <trkpt lat="43.20858" lon="6.25127">
        <ele>198.3</ele>
        <time>2023-03-05T12:25:14.000Z</time>
      </trkpt>
      <trkpt lat="43.20858" lon="6.25127">
        <ele>198.4</ele>
        <time>2023-03-05T12:25:15.000Z</time>
      </trkpt>
      <trkpt lat="43.20858" lon="6.25127">
        <ele>198.3</ele>
        <time>2023-03-05T12:25:16.000Z</time>
      </trkpt>
      <trkpt lat="43.20858" lon="6.25128">
        <ele>198.4</ele>
        <time>2023-03-05T12:25:18.000Z</time>
      </trkpt>
      <trkpt lat="43.20858" lon="6.25128">
        <ele>198.4</ele>
        <time>2023-03-05T12:25:20.000Z</time>
      </trkpt>
      <trkpt lat="43.20858" lon="6.25128">
        <ele>198.4</ele>
        <time>2023-03-05T12:25:21.000Z</time>
      </trkpt>
      <trkpt lat="43.20857" lon="6.25127">
        <ele>198.4</ele>
        <time>2023-03-05T12:25:43.000Z</time>
      </trkpt>
      <trkpt lat="43.20857" lon="6.25127">
        <ele>198.4</ele>
        <time>2023-03-05T12:25:44.000Z</time>
      </trkpt>
      <trkpt lat="43.20857" lon="6.25127">
        <ele>198.4</ele>
        <time>2023-03-05T12:25:51.000Z</time>
      </trkpt>
      <trkpt lat="43.20857" lon="6.25126">
        <ele>198.3</ele>
        <time>2023-03-05T12:25:53.000Z</time>
      </trkpt>
      <trkpt lat="43.20858" lon="6.25126">
        <ele>198.3</ele>
        <time>2023-03-05T12:26:17.000Z</time>
      </trkpt>
      <trkpt lat="43.20859" lon="6.2512">
        <ele>199.2</ele>
        <time>2023-03-05T12:26:33.000Z</time>
      </trkpt>
      <trkpt lat="43.20859" lon="6.2512">
        <ele>199.1</ele>
        <time>2023-03-05T12:26:34.000Z</time>
      </trkpt>
      <trkpt lat="43.20859" lon="6.2512">
        <ele>199.3</ele>
        <time>2023-03-05T12:26:37.000Z</time>
      </trkpt>
      <trkpt lat="43.20859" lon="6.2512">
        <ele>199.3</ele>
        <time>2023-03-05T12:26:42.000Z</time>
      </trkpt>
      <trkpt lat="43.20859" lon="6.2512">
        <ele>199.3</ele>
        <time>2023-03-05T12:26:43.000Z</time>
      </trkpt>
      <trkpt lat="43.20859" lon="6.25121">
        <ele>199.3</ele>
        <time>2023-03-05T12:27:19.000Z</time>
      </trkpt>
      <trkpt lat="43.20859" lon="6.25121">
        <ele>199.3</ele>
        <time>2023-03-05T12:27:20.000Z</time>
      </trkpt>
      <trkpt lat="43.20859" lon="6.2512">
        <ele>199.2</ele>
        <time>2023-03-05T12:27:25.000Z</time>
      </trkpt>
      <trkpt lat="43.20858" lon="6.2512">
        <ele>199.2</ele>
        <time>2023-03-05T12:27:29.000Z</time>
      </trkpt>
      <trkpt lat="43.20858" lon="6.25119">
        <ele>199.3</ele>
        <time>2023-03-05T12:27:31.000Z</time>
      </trkpt>
      <trkpt lat="43.20858" lon="6.2512">
        <ele>199.2</ele>
        <time>2023-03-05T12:27:33.000Z</time>
      </trkpt>
      <trkpt lat="43.20858" lon="6.2512">
        <ele>199.3</ele>
        <time>2023-03-05T12:27:36.000Z</time>
      </trkpt>
      <trkpt lat="43.20859" lon="6.25121">
        <ele>199.3</ele>
        <time>2023-03-05T12:27:38.000Z</time>
      </trkpt>
      <trkpt lat="43.20858" lon="6.25121">
        <ele>199.3</ele>
        <time>2023-03-05T12:27:43.000Z</time>
      </trkpt>
      <trkpt lat="43.20856" lon="6.25134">
        <ele>198.3</ele>
        <time>2023-03-05T12:27:54.000Z</time>
      </trkpt>
      <trkpt lat="43.20855" lon="6.25139">
        <ele>198.6</ele>
        <time>2023-03-05T12:28:02.000Z</time>
      </trkpt>
      <trkpt lat="43.20855" lon="6.25139">
        <ele>198.6</ele>
        <time>2023-03-05T12:28:10.000Z</time>
      </trkpt>
      <trkpt lat="43.20855" lon="6.25142">
        <ele>198.4</ele>
        <time>2023-03-05T12:28:15.000Z</time>
      </trkpt>
      <trkpt lat="43.20855" lon="6.25142">
        <ele>198.3</ele>
        <time>2023-03-05T12:28:38.000Z</time>
      </trkpt>
      <trkpt lat="43.20855" lon="6.25142">
        <ele>198.3</ele>
        <time>2023-03-05T12:28:39.000Z</time>
      </trkpt>
      <trkpt lat="43.20855" lon="6.25142">
        <ele>198.2</ele>
        <time>2023-03-05T12:28:40.000Z</time>
      </trkpt>
      <trkpt lat="43.20855" lon="6.25142">
        <ele>198.2</ele>
        <time>2023-03-05T12:28:41.000Z</time>
      </trkpt>
      <trkpt lat="43.20855" lon="6.25142">
        <ele>198.4</ele>
        <time>2023-03-05T12:29:01.000Z</time>
      </trkpt>
      <trkpt lat="43.20854" lon="6.25142">
        <ele>198.3</ele>
        <time>2023-03-05T12:29:06.000Z</time>
      </trkpt>
      <trkpt lat="43.20854" lon="6.25141">
        <ele>198.3</ele>
        <time>2023-03-05T12:29:07.000Z</time>
      </trkpt>
      <trkpt lat="43.20853" lon="6.25141">
        <ele>198.5</ele>
        <time>2023-03-05T12:29:11.000Z</time>
      </trkpt>
      <trkpt lat="43.20853" lon="6.2514">
        <ele>198.4</ele>
        <time>2023-03-05T12:29:16.000Z</time>
      </trkpt>
      <trkpt lat="43.20847" lon="6.25141">
        <ele>198.6</ele>
        <time>2023-03-05T12:29:36.000Z</time>
      </trkpt>
      <trkpt lat="43.20847" lon="6.25141">
        <ele>198.4</ele>
        <time>2023-03-05T12:29:40.000Z</time>
      </trkpt>
      <trkpt lat="43.20846" lon="6.2514">
        <ele>198.4</ele>
        <time>2023-03-05T12:29:44.000Z</time>
      </trkpt>
      <trkpt lat="43.20847" lon="6.25139">
        <ele>198.5</ele>
        <time>2023-03-05T12:29:50.000Z</time>
      </trkpt>
      <trkpt lat="43.20846" lon="6.25138">
        <ele>198.2</ele>
        <time>2023-03-05T12:29:54.000Z</time>
      </trkpt>
      <trkpt lat="43.20846" lon="6.25138">
        <ele>198.4</ele>
        <time>2023-03-05T12:30:07.000Z</time>
      </trkpt>
      <trkpt lat="43.20846" lon="6.25138">
        <ele>198.5</ele>
        <time>2023-03-05T12:30:08.000Z</time>
      </trkpt>
      <trkpt lat="43.20847" lon="6.25138">
        <ele>198.4</ele>
        <time>2023-03-05T12:30:10.000Z</time>
      </trkpt>
      <trkpt lat="43.20847" lon="6.25139">
        <ele>198.3</ele>
        <time>2023-03-05T12:30:13.000Z</time>
      </trkpt>
      <trkpt lat="43.20847" lon="6.25139">
        <ele>198.2</ele>
        <time>2023-03-05T12:30:39.000Z</time>
      </trkpt>
      <trkpt lat="43.20848" lon="6.25139">
        <ele>198.3</ele>
        <time>2023-03-05T12:30:41.000Z</time>
      </trkpt>
      <trkpt lat="43.20848" lon="6.25139">
        <ele>198.2</ele>
        <time>2023-03-05T12:30:42.000Z</time>
      </trkpt>
      <trkpt lat="43.20848" lon="6.25139">
        <ele>198.2</ele>
        <time>2023-03-05T12:30:43.000Z</time>
      </trkpt>
      <trkpt lat="43.20848" lon="6.25139">
        <ele>198.4</ele>
        <time>2023-03-05T12:31:09.000Z</time>
      </trkpt>
      <trkpt lat="43.20848" lon="6.25139">
        <ele>198.3</ele>
        <time>2023-03-05T12:31:10.000Z</time>
      </trkpt>
      <trkpt lat="43.20849" lon="6.25139">
        <ele>198.3</ele>
        <time>2023-03-05T12:31:13.000Z</time>
      </trkpt>
      <trkpt lat="43.20853" lon="6.25137">
        <ele>198.4</ele>
        <time>2023-03-05T12:31:24.000Z</time>
      </trkpt>
      <trkpt lat="43.20853" lon="6.25137">
        <ele>198.5</ele>
        <time>2023-03-05T12:31:32.000Z</time>
      </trkpt>
      <trkpt lat="43.20862" lon="6.25133">
        <ele>198.7</ele>
        <time>2023-03-05T12:31:48.000Z</time>
      </trkpt>
      <trkpt lat="43.20871" lon="6.25131">
        <ele>198.6</ele>
        <time>2023-03-05T12:32:04.000Z</time>
      </trkpt>
      <trkpt lat="43.2088" lon="6.25126">
        <ele>198.4</ele>
        <time>2023-03-05T12:32:18.000Z</time>
      </trkpt>
      <trkpt lat="43.20889" lon="6.25121">
        <ele>198.3</ele>
        <time>2023-03-05T12:32:30.000Z</time>
      </trkpt>
      <trkpt lat="43.20898" lon="6.25116">
        <ele>198</ele>
        <time>2023-03-05T12:32:41.000Z</time>
      </trkpt>
      <trkpt lat="43.20907" lon="6.25121">
        <ele>197.9</ele>
        <time>2023-03-05T12:32:55.000Z</time>
      </trkpt>
      <trkpt lat="43.20898" lon="6.25128">
        <ele>198.5</ele>
        <time>2023-03-05T12:33:07.000Z</time>
      </trkpt>
      <trkpt lat="43.20889" lon="6.25133">
        <ele>198.6</ele>
        <time>2023-03-05T12:33:17.000Z</time>
      </trkpt>
      <trkpt lat="43.20884" lon="6.25145">
        <ele>198.7</ele>
        <time>2023-03-05T12:33:26.000Z</time>
      </trkpt>
      <trkpt lat="43.20883" lon="6.25157">
        <ele>198.9</ele>
        <time>2023-03-05T12:33:34.000Z</time>
      </trkpt>
      <trkpt lat="43.20886" lon="6.2517">
        <ele>198.8</ele>
        <time>2023-03-05T12:33:40.000Z</time>
      </trkpt>
      <trkpt lat="43.20891" lon="6.25181">
        <ele>198.7</ele>
        <time>2023-03-05T12:33:47.000Z</time>
      </trkpt>
      <trkpt lat="43.20897" lon="6.25191">
        <ele>198.8</ele>
        <time>2023-03-05T12:33:56.000Z</time>
      </trkpt>
      <trkpt lat="43.20903" lon="6.25202">
        <ele>198.6</ele>
        <time>2023-03-05T12:34:04.000Z</time>
      </trkpt>
      <trkpt lat="43.20909" lon="6.25212">
        <ele>198.7</ele>
        <time>2023-03-05T12:34:12.000Z</time>
      </trkpt>
      <trkpt lat="43.20917" lon="6.25221">
        <ele>198.7</ele>
        <time>2023-03-05T12:34:22.000Z</time>
      </trkpt>
      <trkpt lat="43.20925" lon="6.25226">
        <ele>198.3</ele>
        <time>2023-03-05T12:34:31.000Z</time>
      </trkpt>
      <trkpt lat="43.20926" lon="6.25227">
        <ele>198.4</ele>
        <time>2023-03-05T12:34:35.000Z</time>
      </trkpt>
      <trkpt lat="43.20926" lon="6.25227">
        <ele>198.4</ele>
        <time>2023-03-05T12:34:36.000Z</time>
      </trkpt>
      <trkpt lat="43.20926" lon="6.25227">
        <ele>198.4</ele>
        <time>2023-03-05T12:34:37.000Z</time>
      </trkpt>
      <trkpt lat="43.20927" lon="6.25228">
        <ele>198.4</ele>
        <time>2023-03-05T12:34:48.000Z</time>
      </trkpt>
      <trkpt lat="43.20932" lon="6.25234">
        <ele>197.9</ele>
        <time>2023-03-05T12:35:04.000Z</time>
      </trkpt>
      <trkpt lat="43.20932" lon="6.25235">
        <ele>197.9</ele>
        <time>2023-03-05T12:35:05.000Z</time>
      </trkpt>
      <trkpt lat="43.20932" lon="6.25235">
        <ele>197.9</ele>
        <time>2023-03-05T12:35:06.000Z</time>
      </trkpt>
      <trkpt lat="43.20933" lon="6.25235">
        <ele>198.1</ele>
        <time>2023-03-05T12:35:11.000Z</time>
      </trkpt>
      <trkpt lat="43.20938" lon="6.25246">
        <ele>196.9</ele>
        <time>2023-03-05T12:35:26.000Z</time>
      </trkpt>
      <trkpt lat="43.20944" lon="6.25255">
        <ele>196.4</ele>
        <time>2023-03-05T12:35:36.000Z</time>
      </trkpt>
      <trkpt lat="43.20944" lon="6.25265">
        <ele>195.8</ele>
        <time>2023-03-05T12:35:46.000Z</time>
      </trkpt>
      <trkpt lat="43.20943" lon="6.25265">
        <ele>195.7</ele>
        <time>2023-03-05T12:35:48.000Z</time>
      </trkpt>
      <trkpt lat="43.20944" lon="6.2527">
        <ele>195.3</ele>
        <time>2023-03-05T12:35:57.000Z</time>
      </trkpt>
      <trkpt lat="43.20944" lon="6.25271">
        <ele>195.5</ele>
        <time>2023-03-05T12:36:12.000Z</time>
      </trkpt>
      <trkpt lat="43.20945" lon="6.25275">
        <ele>195.4</ele>
        <time>2023-03-05T12:36:18.000Z</time>
      </trkpt>
      <trkpt lat="43.20945" lon="6.25275">
        <ele>195.4</ele>
        <time>2023-03-05T12:36:26.000Z</time>
      </trkpt>
      <trkpt lat="43.20944" lon="6.25275">
        <ele>195.4</ele>
        <time>2023-03-05T12:36:28.000Z</time>
      </trkpt>
      <trkpt lat="43.20944" lon="6.25275">
        <ele>195.2</ele>
        <time>2023-03-05T12:36:29.000Z</time>
      </trkpt>
      <trkpt lat="43.20944" lon="6.25275">
        <ele>195.2</ele>
        <time>2023-03-05T12:36:30.000Z</time>
      </trkpt>
      <trkpt lat="43.20944" lon="6.25275">
        <ele>195.4</ele>
        <time>2023-03-05T12:36:32.000Z</time>
      </trkpt>
      <trkpt lat="43.20944" lon="6.25277">
        <ele>195.1</ele>
        <time>2023-03-05T12:36:36.000Z</time>
      </trkpt>
      <trkpt lat="43.20944" lon="6.25276">
        <ele>195.2</ele>
        <time>2023-03-05T12:36:38.000Z</time>
      </trkpt>
      <trkpt lat="43.20943" lon="6.25276">
        <ele>195.1</ele>
        <time>2023-03-05T12:36:40.000Z</time>
      </trkpt>
      <trkpt lat="43.20943" lon="6.25276">
        <ele>195.1</ele>
        <time>2023-03-05T12:36:44.000Z</time>
      </trkpt>
      <trkpt lat="43.20943" lon="6.25277">
        <ele>195</ele>
        <time>2023-03-05T12:36:46.000Z</time>
      </trkpt>
      <trkpt lat="43.20943" lon="6.25277">
        <ele>194.8</ele>
        <time>2023-03-05T12:36:48.000Z</time>
      </trkpt>
      <trkpt lat="43.20943" lon="6.25279">
        <ele>195.1</ele>
        <time>2023-03-05T12:36:54.000Z</time>
      </trkpt>
      <trkpt lat="43.20943" lon="6.25278">
        <ele>195</ele>
        <time>2023-03-05T12:37:13.000Z</time>
      </trkpt>
      <trkpt lat="43.20943" lon="6.25274">
        <ele>195.2</ele>
        <time>2023-03-05T12:37:20.000Z</time>
      </trkpt>
      <trkpt lat="43.20943" lon="6.25274">
        <ele>195</ele>
        <time>2023-03-05T12:37:23.000Z</time>
      </trkpt>
      <trkpt lat="43.20943" lon="6.25276">
        <ele>194.9</ele>
        <time>2023-03-05T12:37:27.000Z</time>
      </trkpt>
      <trkpt lat="43.20943" lon="6.25276">
        <ele>194.9</ele>
        <time>2023-03-05T12:37:33.000Z</time>
      </trkpt>
      <trkpt lat="43.20943" lon="6.25277">
        <ele>194.9</ele>
        <time>2023-03-05T12:37:37.000Z</time>
      </trkpt>
      <trkpt lat="43.20944" lon="6.25277">
        <ele>195.1</ele>
        <time>2023-03-05T12:37:41.000Z</time>
      </trkpt>
      <trkpt lat="43.20944" lon="6.25277">
        <ele>194.9</ele>
        <time>2023-03-05T12:37:44.000Z</time>
      </trkpt>
      <trkpt lat="43.20944" lon="6.25277">
        <ele>194.8</ele>
        <time>2023-03-05T12:37:45.000Z</time>
      </trkpt>
      <trkpt lat="43.20943" lon="6.25279">
        <ele>194.6</ele>
        <time>2023-03-05T12:37:50.000Z</time>
      </trkpt>
      <trkpt lat="43.20943" lon="6.25279">
        <ele>194.8</ele>
        <time>2023-03-05T12:38:04.000Z</time>
      </trkpt>
      <trkpt lat="43.20943" lon="6.25279">
        <ele>194.8</ele>
        <time>2023-03-05T12:38:05.000Z</time>
      </trkpt>
      <trkpt lat="43.20944" lon="6.25279">
        <ele>194.6</ele>
        <time>2023-03-05T12:38:08.000Z</time>
      </trkpt>
      <trkpt lat="43.20944" lon="6.25279">
        <ele>194.6</ele>
        <time>2023-03-05T12:38:09.000Z</time>
      </trkpt>
      <trkpt lat="43.20943" lon="6.25279">
        <ele>194.5</ele>
        <time>2023-03-05T12:38:23.000Z</time>
      </trkpt>
      <trkpt lat="43.20943" lon="6.25279">
        <ele>194.8</ele>
        <time>2023-03-05T12:38:25.000Z</time>
      </trkpt>
      <trkpt lat="43.20943" lon="6.25279">
        <ele>194.8</ele>
        <time>2023-03-05T12:38:40.000Z</time>
      </trkpt>
      <trkpt lat="43.20952" lon="6.25283">
        <ele>195.8</ele>
        <time>2023-03-05T12:38:55.000Z</time>
      </trkpt>
      <trkpt lat="43.20952" lon="6.25283">
        <ele>195.8</ele>
        <time>2023-03-05T12:38:58.000Z</time>
      </trkpt>
      <trkpt lat="43.20952" lon="6.25283">
        <ele>195.8</ele>
        <time>2023-03-05T12:39:01.000Z</time>
      </trkpt>
      <trkpt lat="43.20954" lon="6.2528">
        <ele>195.7</ele>
        <time>2023-03-05T12:39:08.000Z</time>
      </trkpt>
      <trkpt lat="43.20954" lon="6.2528">
        <ele>195.8</ele>
        <time>2023-03-05T12:39:10.000Z</time>
      </trkpt>
      <trkpt lat="43.20954" lon="6.2528">
        <ele>195.8</ele>
        <time>2023-03-05T12:39:11.000Z</time>
      </trkpt>
      <trkpt lat="43.20954" lon="6.25279">
        <ele>195.7</ele>
        <time>2023-03-05T12:39:13.000Z</time>
      </trkpt>
      <trkpt lat="43.20954" lon="6.25279">
        <ele>195.7</ele>
        <time>2023-03-05T12:39:15.000Z</time>
      </trkpt>
      <trkpt lat="43.20953" lon="6.25279">
        <ele>195.6</ele>
        <time>2023-03-05T12:39:28.000Z</time>
      </trkpt>
      <trkpt lat="43.20953" lon="6.25279">
        <ele>195.5</ele>
        <time>2023-03-05T12:39:29.000Z</time>
      </trkpt>
      <trkpt lat="43.20953" lon="6.25278">
        <ele>195.5</ele>
        <time>2023-03-05T12:39:30.000Z</time>
      </trkpt>
      <trkpt lat="43.20952" lon="6.25266">
        <ele>195.5</ele>
        <time>2023-03-05T12:39:43.000Z</time>
      </trkpt>
      <trkpt lat="43.20947" lon="6.25265">
        <ele>195.4</ele>
        <time>2023-03-05T12:39:52.000Z</time>
      </trkpt>
      <trkpt lat="43.20947" lon="6.25265">
        <ele>195.7</ele>
        <time>2023-03-05T12:39:56.000Z</time>
      </trkpt>
      <trkpt lat="43.20947" lon="6.25265">
        <ele>195.5</ele>
        <time>2023-03-05T12:39:57.000Z</time>
      </trkpt>
      <trkpt lat="43.20947" lon="6.25265">
        <ele>195.4</ele>
        <time>2023-03-05T12:40:01.000Z</time>
      </trkpt>
      <trkpt lat="43.20946" lon="6.25265">
        <ele>195.4</ele>
        <time>2023-03-05T12:40:03.000Z</time>
      </trkpt>
      <trkpt lat="43.20946" lon="6.25265">
        <ele>195.6</ele>
        <time>2023-03-05T12:40:11.000Z</time>
      </trkpt>
      <trkpt lat="43.20946" lon="6.25265">
        <ele>195.6</ele>
        <time>2023-03-05T12:40:12.000Z</time>
      </trkpt>
      <trkpt lat="43.20946" lon="6.25264">
        <ele>195.5</ele>
        <time>2023-03-05T12:40:15.000Z</time>
      </trkpt>
      <trkpt lat="43.2095" lon="6.25253">
        <ele>196.1</ele>
        <time>2023-03-05T12:40:29.000Z</time>
      </trkpt>
      <trkpt lat="43.20945" lon="6.25242">
        <ele>196.6</ele>
        <time>2023-03-05T12:40:40.000Z</time>
      </trkpt>
      <trkpt lat="43.20941" lon="6.25231">
        <ele>197.5</ele>
        <time>2023-03-05T12:40:55.000Z</time>
      </trkpt>
      <trkpt lat="43.20941" lon="6.25231">
        <ele>197.7</ele>
        <time>2023-03-05T12:40:57.000Z</time>
      </trkpt>
      <trkpt lat="43.20944" lon="6.25243">
        <ele>199</ele>
        <time>2023-03-05T12:41:26.000Z</time>
      </trkpt>
      <trkpt lat="43.20949" lon="6.25254">
        <ele>198.5</ele>
        <time>2023-03-05T12:41:37.000Z</time>
      </trkpt>
      <trkpt lat="43.20954" lon="6.25265">
        <ele>198.3</ele>
        <time>2023-03-05T12:41:47.000Z</time>
      </trkpt>
      <trkpt lat="43.20958" lon="6.25277">
        <ele>198.4</ele>
        <time>2023-03-05T12:41:56.000Z</time>
      </trkpt>
      <trkpt lat="43.2096" lon="6.2529">
        <ele>198.2</ele>
        <time>2023-03-05T12:42:06.000Z</time>
      </trkpt>
      <trkpt lat="43.20964" lon="6.25301">
        <ele>198.2</ele>
        <time>2023-03-05T12:42:15.000Z</time>
      </trkpt>
      <trkpt lat="43.20968" lon="6.25313">
        <ele>198.6</ele>
        <time>2023-03-05T12:42:28.000Z</time>
      </trkpt>
      <trkpt lat="43.20968" lon="6.25314">
        <ele>198.6</ele>
        <time>2023-03-05T12:42:31.000Z</time>
      </trkpt>
      <trkpt lat="43.20968" lon="6.25314">
        <ele>198.6</ele>
        <time>2023-03-05T12:42:44.000Z</time>
      </trkpt>
      <trkpt lat="43.2097" lon="6.2532">
        <ele>198.8</ele>
        <time>2023-03-05T12:43:02.000Z</time>
      </trkpt>
      <trkpt lat="43.2097" lon="6.2532">
        <ele>198.7</ele>
        <time>2023-03-05T12:43:03.000Z</time>
      </trkpt>
      <trkpt lat="43.2097" lon="6.2532">
        <ele>198.7</ele>
        <time>2023-03-05T12:43:05.000Z</time>
      </trkpt>
      <trkpt lat="43.2097" lon="6.2532">
        <ele>199</ele>
        <time>2023-03-05T12:43:07.000Z</time>
      </trkpt>
      <trkpt lat="43.2097" lon="6.2532">
        <ele>199.1</ele>
        <time>2023-03-05T12:43:09.000Z</time>
      </trkpt>
      <trkpt lat="43.2097" lon="6.2532">
        <ele>199.2</ele>
        <time>2023-03-05T12:43:10.000Z</time>
      </trkpt>
      <trkpt lat="43.20971" lon="6.25322">
        <ele>199.4</ele>
        <time>2023-03-05T12:43:18.000Z</time>
      </trkpt>
      <trkpt lat="43.20971" lon="6.25323">
        <ele>199.6</ele>
        <time>2023-03-05T12:43:26.000Z</time>
      </trkpt>
      <trkpt lat="43.20971" lon="6.25323">
        <ele>199.3</ele>
        <time>2023-03-05T12:43:29.000Z</time>
      </trkpt>
      <trkpt lat="43.20971" lon="6.25323">
        <ele>199.8</ele>
        <time>2023-03-05T12:43:40.000Z</time>
      </trkpt>
      <trkpt lat="43.20971" lon="6.25323">
        <ele>199.7</ele>
        <time>2023-03-05T12:43:41.000Z</time>
      </trkpt>
      <trkpt lat="43.20971" lon="6.25323">
        <ele>199.5</ele>
        <time>2023-03-05T12:44:10.000Z</time>
      </trkpt>
      <trkpt lat="43.20974" lon="6.25323">
        <ele>200.1</ele>
        <time>2023-03-05T12:44:18.000Z</time>
      </trkpt>
      <trkpt lat="43.20974" lon="6.25323">
        <ele>200</ele>
        <time>2023-03-05T12:44:26.000Z</time>
      </trkpt>
      <trkpt lat="43.20974" lon="6.25324">
        <ele>200.2</ele>
        <time>2023-03-05T12:44:28.000Z</time>
      </trkpt>
      <trkpt lat="43.20974" lon="6.25324">
        <ele>200</ele>
        <time>2023-03-05T12:44:37.000Z</time>
      </trkpt>
      <trkpt lat="43.20975" lon="6.25328">
        <ele>200.4</ele>
        <time>2023-03-05T12:44:43.000Z</time>
      </trkpt>
      <trkpt lat="43.20975" lon="6.25328">
        <ele>200.3</ele>
        <time>2023-03-05T12:44:48.000Z</time>
      </trkpt>
      <trkpt lat="43.20975" lon="6.25328">
        <ele>200.2</ele>
        <time>2023-03-05T12:44:49.000Z</time>
      </trkpt>
      <trkpt lat="43.20976" lon="6.25327">
        <ele>200.3</ele>
        <time>2023-03-05T12:44:54.000Z</time>
      </trkpt>
      <trkpt lat="43.20979" lon="6.25323">
        <ele>200.4</ele>
        <time>2023-03-05T12:45:01.000Z</time>
      </trkpt>
      <trkpt lat="43.20979" lon="6.25323">
        <ele>200.2</ele>
        <time>2023-03-05T12:45:03.000Z</time>
      </trkpt>
      <trkpt lat="43.2098" lon="6.25322">
        <ele>200.2</ele>
        <time>2023-03-05T12:45:06.000Z</time>
      </trkpt>
      <trkpt lat="43.2098" lon="6.25322">
        <ele>200.2</ele>
        <time>2023-03-05T12:45:07.000Z</time>
      </trkpt>
      <trkpt lat="43.20981" lon="6.25325">
        <ele>200.5</ele>
        <time>2023-03-05T12:45:11.000Z</time>
      </trkpt>
      <trkpt lat="43.20981" lon="6.25325">
        <ele>200.5</ele>
        <time>2023-03-05T12:45:17.000Z</time>
      </trkpt>
      <trkpt lat="43.20982" lon="6.25328">
        <ele>200.9</ele>
        <time>2023-03-05T12:45:23.000Z</time>
      </trkpt>
      <trkpt lat="43.20982" lon="6.25327">
        <ele>200.7</ele>
        <time>2023-03-05T12:45:26.000Z</time>
      </trkpt>
      <trkpt lat="43.20988" lon="6.25327">
        <ele>201.1</ele>
        <time>2023-03-05T12:45:34.000Z</time>
      </trkpt>
      <trkpt lat="43.20989" lon="6.25327">
        <ele>200.9</ele>
        <time>2023-03-05T12:45:39.000Z</time>
      </trkpt>
      <trkpt lat="43.20989" lon="6.25328">
        <ele>201</ele>
        <time>2023-03-05T12:45:42.000Z</time>
      </trkpt>
      <trkpt lat="43.2099" lon="6.25329">
        <ele>201</ele>
        <time>2023-03-05T12:45:58.000Z</time>
      </trkpt>
      <trkpt lat="43.20991" lon="6.2533">
        <ele>201.3</ele>
        <time>2023-03-05T12:46:01.000Z</time>
      </trkpt>
      <trkpt lat="43.20991" lon="6.2533">
        <ele>201.2</ele>
        <time>2023-03-05T12:46:36.000Z</time>
      </trkpt>
      <trkpt lat="43.20991" lon="6.2533">
        <ele>201.4</ele>
        <time>2023-03-05T12:46:40.000Z</time>
      </trkpt>
      <trkpt lat="43.20991" lon="6.2533">
        <ele>201.3</ele>
        <time>2023-03-05T12:47:35.000Z</time>
      </trkpt>
      <trkpt lat="43.20991" lon="6.2533">
        <ele>201.3</ele>
        <time>2023-03-05T12:47:36.000Z</time>
      </trkpt>
      <trkpt lat="43.20991" lon="6.2533">
        <ele>201.7</ele>
        <time>2023-03-05T12:47:42.000Z</time>
      </trkpt>
      <trkpt lat="43.20991" lon="6.2533">
        <ele>201.7</ele>
        <time>2023-03-05T12:47:43.000Z</time>
      </trkpt>
      <trkpt lat="43.20991" lon="6.25331">
        <ele>201.4</ele>
        <time>2023-03-05T12:47:54.000Z</time>
      </trkpt>
      <trkpt lat="43.20991" lon="6.25331">
        <ele>201.4</ele>
        <time>2023-03-05T12:47:55.000Z</time>
      </trkpt>
      <trkpt lat="43.20991" lon="6.25331">
        <ele>201.5</ele>
        <time>2023-03-05T12:47:56.000Z</time>
      </trkpt>
      <trkpt lat="43.20992" lon="6.25335">
        <ele>202.1</ele>
        <time>2023-03-05T12:48:04.000Z</time>
      </trkpt>
      <trkpt lat="43.20992" lon="6.25334">
        <ele>202</ele>
        <time>2023-03-05T12:48:06.000Z</time>
      </trkpt>
      <trkpt lat="43.20997" lon="6.25325">
        <ele>204.3</ele>
        <time>2023-03-05T12:48:25.000Z</time>
      </trkpt>
      <trkpt lat="43.20995" lon="6.25324">
        <ele>204.2</ele>
        <time>2023-03-05T12:48:38.000Z</time>
      </trkpt>
      <trkpt lat="43.20996" lon="6.25324">
        <ele>204.3</ele>
        <time>2023-03-05T12:48:39.000Z</time>
      </trkpt>
      <trkpt lat="43.20996" lon="6.25329">
        <ele>203.4</ele>
        <time>2023-03-05T12:48:52.000Z</time>
      </trkpt>
      <trkpt lat="43.20996" lon="6.25329">
        <ele>203.2</ele>
        <time>2023-03-05T12:48:53.000Z</time>
      </trkpt>
      <trkpt lat="43.21" lon="6.2534">
        <ele>203.1</ele>
        <time>2023-03-05T12:49:17.000Z</time>
      </trkpt>
      <trkpt lat="43.21009" lon="6.25345">
        <ele>203.7</ele>
        <time>2023-03-05T12:49:27.000Z</time>
      </trkpt>
      <trkpt lat="43.21016" lon="6.25353">
        <ele>205.1</ele>
        <time>2023-03-05T12:49:36.000Z</time>
      </trkpt>
      <trkpt lat="43.21023" lon="6.25362">
        <ele>206.7</ele>
        <time>2023-03-05T12:49:47.000Z</time>
      </trkpt>
      <trkpt lat="43.21027" lon="6.25374">
        <ele>207.1</ele>
        <time>2023-03-05T12:49:56.000Z</time>
      </trkpt>
      <trkpt lat="43.21031" lon="6.25386">
        <ele>207.4</ele>
        <time>2023-03-05T12:50:05.000Z</time>
      </trkpt>
      <trkpt lat="43.21035" lon="6.25397">
        <ele>207.7</ele>
        <time>2023-03-05T12:50:13.000Z</time>
      </trkpt>
      <trkpt lat="43.21039" lon="6.25409">
        <ele>208.1</ele>
        <time>2023-03-05T12:50:23.000Z</time>
      </trkpt>
      <trkpt lat="43.21043" lon="6.25421">
        <ele>208.1</ele>
        <time>2023-03-05T12:50:32.000Z</time>
      </trkpt>
      <trkpt lat="43.21047" lon="6.25433">
        <ele>208.5</ele>
        <time>2023-03-05T12:50:41.000Z</time>
      </trkpt>
      <trkpt lat="43.2105" lon="6.25445">
        <ele>208.4</ele>
        <time>2023-03-05T12:50:49.000Z</time>
      </trkpt>
      <trkpt lat="43.21052" lon="6.25458">
        <ele>208.3</ele>
        <time>2023-03-05T12:50:58.000Z</time>
      </trkpt>
      <trkpt lat="43.21052" lon="6.25471">
        <ele>208.2</ele>
        <time>2023-03-05T12:51:07.000Z</time>
      </trkpt>
      <trkpt lat="43.21054" lon="6.25484">
        <ele>208.2</ele>
        <time>2023-03-05T12:51:15.000Z</time>
      </trkpt>
      <trkpt lat="43.21055" lon="6.25497">
        <ele>208.1</ele>
        <time>2023-03-05T12:51:23.000Z</time>
      </trkpt>
      <trkpt lat="43.21054" lon="6.2551">
        <ele>208.3</ele>
        <time>2023-03-05T12:51:31.000Z</time>
      </trkpt>
      <trkpt lat="43.21055" lon="6.25523">
        <ele>207.6</ele>
        <time>2023-03-05T12:51:40.000Z</time>
      </trkpt>
      <trkpt lat="43.21055" lon="6.25536">
        <ele>207.6</ele>
        <time>2023-03-05T12:51:48.000Z</time>
      </trkpt>
      <trkpt lat="43.21052" lon="6.25548">
        <ele>207.4</ele>
        <time>2023-03-05T12:51:55.000Z</time>
      </trkpt>
      <trkpt lat="43.21053" lon="6.2556">
        <ele>207.6</ele>
        <time>2023-03-05T12:52:02.000Z</time>
      </trkpt>
      <trkpt lat="43.21053" lon="6.25573">
        <ele>207.9</ele>
        <time>2023-03-05T12:52:10.000Z</time>
      </trkpt>
      <trkpt lat="43.21053" lon="6.25587">
        <ele>208.1</ele>
        <time>2023-03-05T12:52:19.000Z</time>
      </trkpt>
      <trkpt lat="43.21053" lon="6.256">
        <ele>208</ele>
        <time>2023-03-05T12:52:26.000Z</time>
      </trkpt>
      <trkpt lat="43.21052" lon="6.25614">
        <ele>208.1</ele>
        <time>2023-03-05T12:52:34.000Z</time>
      </trkpt>
      <trkpt lat="43.21055" lon="6.25626">
        <ele>207.7</ele>
        <time>2023-03-05T12:52:40.000Z</time>
      </trkpt>
      <trkpt lat="43.2106" lon="6.25636">
        <ele>207.2</ele>
        <time>2023-03-05T12:52:46.000Z</time>
      </trkpt>
      <trkpt lat="43.21065" lon="6.25647">
        <ele>207.6</ele>
        <time>2023-03-05T12:52:56.000Z</time>
      </trkpt>
      <trkpt lat="43.21063" lon="6.2566">
        <ele>208.4</ele>
        <time>2023-03-05T12:53:07.000Z</time>
      </trkpt>
      <trkpt lat="43.21065" lon="6.25672">
        <ele>209.1</ele>
        <time>2023-03-05T12:53:16.000Z</time>
      </trkpt>
      <trkpt lat="43.21067" lon="6.25685">
        <ele>209.7</ele>
        <time>2023-03-05T12:53:24.000Z</time>
      </trkpt>
      <trkpt lat="43.21068" lon="6.25698">
        <ele>210.9</ele>
        <time>2023-03-05T12:53:34.000Z</time>
      </trkpt>
      <trkpt lat="43.21067" lon="6.25711">
        <ele>211.7</ele>
        <time>2023-03-05T12:53:42.000Z</time>
      </trkpt>
      <trkpt lat="43.21066" lon="6.25723">
        <ele>211.6</ele>
        <time>2023-03-05T12:53:50.000Z</time>
      </trkpt>
      <trkpt lat="43.21065" lon="6.25736">
        <ele>211.7</ele>
        <time>2023-03-05T12:53:58.000Z</time>
      </trkpt>
      <trkpt lat="43.21066" lon="6.2575">
        <ele>212</ele>
        <time>2023-03-05T12:54:07.000Z</time>
      </trkpt>
      <trkpt lat="43.21065" lon="6.25763">
        <ele>211.6</ele>
        <time>2023-03-05T12:54:16.000Z</time>
      </trkpt>
      <trkpt lat="43.2106" lon="6.25774">
        <ele>211</ele>
        <time>2023-03-05T12:54:23.000Z</time>
      </trkpt>
      <trkpt lat="43.21056" lon="6.25787">
        <ele>210.8</ele>
        <time>2023-03-05T12:54:31.000Z</time>
      </trkpt>
      <trkpt lat="43.21058" lon="6.258">
        <ele>211.4</ele>
        <time>2023-03-05T12:54:39.000Z</time>
      </trkpt>
      <trkpt lat="43.21061" lon="6.25813">
        <ele>211.6</ele>
        <time>2023-03-05T12:54:46.000Z</time>
      </trkpt>
      <trkpt lat="43.21065" lon="6.25825">
        <ele>212.7</ele>
        <time>2023-03-05T12:54:54.000Z</time>
      </trkpt>
      <trkpt lat="43.21073" lon="6.25833">
        <ele>213.6</ele>
        <time>2023-03-05T12:55:03.000Z</time>
      </trkpt>
      <trkpt lat="43.2108" lon="6.25842">
        <ele>214.9</ele>
        <time>2023-03-05T12:55:15.000Z</time>
      </trkpt>
      <trkpt lat="43.21086" lon="6.25852">
        <ele>216.7</ele>
        <time>2023-03-05T12:55:26.000Z</time>
      </trkpt>
      <trkpt lat="43.21091" lon="6.25863">
        <ele>218.2</ele>
        <time>2023-03-05T12:55:37.000Z</time>
      </trkpt>
      <trkpt lat="43.21097" lon="6.25874">
        <ele>219.4</ele>
        <time>2023-03-05T12:55:47.000Z</time>
      </trkpt>
      <trkpt lat="43.21102" lon="6.25884">
        <ele>219.9</ele>
        <time>2023-03-05T12:55:57.000Z</time>
      </trkpt>
      <trkpt lat="43.21109" lon="6.25895">
        <ele>220.6</ele>
        <time>2023-03-05T12:56:06.000Z</time>
      </trkpt>
      <trkpt lat="43.21113" lon="6.25906">
        <ele>220.6</ele>
        <time>2023-03-05T12:56:14.000Z</time>
      </trkpt>
      <trkpt lat="43.21116" lon="6.25919">
        <ele>220.9</ele>
        <time>2023-03-05T12:56:23.000Z</time>
      </trkpt>
      <trkpt lat="43.21122" lon="6.2593">
        <ele>220.7</ele>
        <time>2023-03-05T12:56:31.000Z</time>
      </trkpt>
      <trkpt lat="43.21127" lon="6.25941">
        <ele>220.4</ele>
        <time>2023-03-05T12:56:41.000Z</time>
      </trkpt>
      <trkpt lat="43.21131" lon="6.25953">
        <ele>220.3</ele>
        <time>2023-03-05T12:56:48.000Z</time>
      </trkpt>
      <trkpt lat="43.21136" lon="6.25964">
        <ele>219.5</ele>
        <time>2023-03-05T12:56:56.000Z</time>
      </trkpt>
      <trkpt lat="43.2114" lon="6.25976">
        <ele>218.4</ele>
        <time>2023-03-05T12:57:05.000Z</time>
      </trkpt>
      <trkpt lat="43.21143" lon="6.25989">
        <ele>217.8</ele>
        <time>2023-03-05T12:57:13.000Z</time>
      </trkpt>
      <trkpt lat="43.21144" lon="6.26001">
        <ele>217.7</ele>
        <time>2023-03-05T12:57:21.000Z</time>
      </trkpt>
      <trkpt lat="43.21145" lon="6.26014">
        <ele>217.2</ele>
        <time>2023-03-05T12:57:30.000Z</time>
      </trkpt>
      <trkpt lat="43.21148" lon="6.26027">
        <ele>217.6</ele>
        <time>2023-03-05T12:57:39.000Z</time>
      </trkpt>
      <trkpt lat="43.21149" lon="6.2604">
        <ele>218</ele>
        <time>2023-03-05T12:57:48.000Z</time>
      </trkpt>
      <trkpt lat="43.21153" lon="6.26052">
        <ele>218.1</ele>
        <time>2023-03-05T12:57:56.000Z</time>
      </trkpt>
      <trkpt lat="43.21156" lon="6.26064">
        <ele>218.5</ele>
        <time>2023-03-05T12:58:07.000Z</time>
      </trkpt>
      <trkpt lat="43.21161" lon="6.26075">
        <ele>218.9</ele>
        <time>2023-03-05T12:58:14.000Z</time>
      </trkpt>
      <trkpt lat="43.21165" lon="6.26086">
        <ele>219.3</ele>
        <time>2023-03-05T12:58:22.000Z</time>
      </trkpt>
      <trkpt lat="43.21173" lon="6.26093">
        <ele>220.1</ele>
        <time>2023-03-05T12:58:32.000Z</time>
      </trkpt>
      <trkpt lat="43.21181" lon="6.261">
        <ele>220.4</ele>
        <time>2023-03-05T12:58:40.000Z</time>
      </trkpt>
      <trkpt lat="43.21187" lon="6.26109">
        <ele>219.2</ele>
        <time>2023-03-05T12:58:48.000Z</time>
      </trkpt>
      <trkpt lat="43.21188" lon="6.26122">
        <ele>217.6</ele>
        <time>2023-03-05T12:59:01.000Z</time>
      </trkpt>
      <trkpt lat="43.21187" lon="6.26124">
        <ele>217.6</ele>
        <time>2023-03-05T12:59:07.000Z</time>
      </trkpt>
      <trkpt lat="43.21187" lon="6.26124">
        <ele>217.6</ele>
        <time>2023-03-05T12:59:08.000Z</time>
      </trkpt>
      <trkpt lat="43.21186" lon="6.26124">
        <ele>217.6</ele>
        <time>2023-03-05T12:59:11.000Z</time>
      </trkpt>
      <trkpt lat="43.21186" lon="6.26124">
        <ele>217.7</ele>
        <time>2023-03-05T12:59:12.000Z</time>
      </trkpt>
      <trkpt lat="43.21186" lon="6.26124">
        <ele>218</ele>
        <time>2023-03-05T12:59:14.000Z</time>
      </trkpt>
      <trkpt lat="43.21186" lon="6.26124">
        <ele>217.7</ele>
        <time>2023-03-05T12:59:26.000Z</time>
      </trkpt>
      <trkpt lat="43.21186" lon="6.26124">
        <ele>217.9</ele>
        <time>2023-03-05T12:59:27.000Z</time>
      </trkpt>
      <trkpt lat="43.21187" lon="6.26125">
        <ele>218.1</ele>
        <time>2023-03-05T13:00:18.000Z</time>
      </trkpt>
      <trkpt lat="43.21189" lon="6.26124">
        <ele>218.2</ele>
        <time>2023-03-05T13:00:23.000Z</time>
      </trkpt>
      <trkpt lat="43.21189" lon="6.26124">
        <ele>218.1</ele>
        <time>2023-03-05T13:00:28.000Z</time>
      </trkpt>
      <trkpt lat="43.21189" lon="6.26124">
        <ele>218.1</ele>
        <time>2023-03-05T13:00:30.000Z</time>
      </trkpt>
      <trkpt lat="43.21189" lon="6.26124">
        <ele>218.3</ele>
        <time>2023-03-05T13:00:31.000Z</time>
      </trkpt>
      <trkpt lat="43.21192" lon="6.26121">
        <ele>218.6</ele>
        <time>2023-03-05T13:00:39.000Z</time>
      </trkpt>
      <trkpt lat="43.21192" lon="6.26121">
        <ele>218.3</ele>
        <time>2023-03-05T13:00:45.000Z</time>
      </trkpt>
      <trkpt lat="43.21192" lon="6.26121">
        <ele>218.3</ele>
        <time>2023-03-05T13:00:47.000Z</time>
      </trkpt>
      <trkpt lat="43.21192" lon="6.26121">
        <ele>218.4</ele>
        <time>2023-03-05T13:00:48.000Z</time>
      </trkpt>
      <trkpt lat="43.21192" lon="6.26121">
        <ele>218.4</ele>
        <time>2023-03-05T13:00:49.000Z</time>
      </trkpt>
      <trkpt lat="43.21192" lon="6.26121">
        <ele>218.5</ele>
        <time>2023-03-05T13:00:51.000Z</time>
      </trkpt>
      <trkpt lat="43.21193" lon="6.2612">
        <ele>218.4</ele>
        <time>2023-03-05T13:00:53.000Z</time>
      </trkpt>
      <trkpt lat="43.21193" lon="6.2612">
        <ele>218.4</ele>
        <time>2023-03-05T13:00:57.000Z</time>
      </trkpt>
      <trkpt lat="43.21194" lon="6.26129">
        <ele>218.4</ele>
        <time>2023-03-05T13:01:06.000Z</time>
      </trkpt>
      <trkpt lat="43.21195" lon="6.2613">
        <ele>218.4</ele>
        <time>2023-03-05T13:01:08.000Z</time>
      </trkpt>
      <trkpt lat="43.21195" lon="6.2613">
        <ele>218.4</ele>
        <time>2023-03-05T13:01:09.000Z</time>
      </trkpt>
      <trkpt lat="43.21195" lon="6.2613">
        <ele>218.4</ele>
        <time>2023-03-05T13:01:17.000Z</time>
      </trkpt>
      <trkpt lat="43.21195" lon="6.26131">
        <ele>218.3</ele>
        <time>2023-03-05T13:01:20.000Z</time>
      </trkpt>
      <trkpt lat="43.21195" lon="6.26132">
        <ele>218.5</ele>
        <time>2023-03-05T13:01:25.000Z</time>
      </trkpt>
      <trkpt lat="43.21195" lon="6.26132">
        <ele>218.6</ele>
        <time>2023-03-05T13:01:27.000Z</time>
      </trkpt>
      <trkpt lat="43.21195" lon="6.26132">
        <ele>218.7</ele>
        <time>2023-03-05T13:01:33.000Z</time>
      </trkpt>
      <trkpt lat="43.21195" lon="6.26133">
        <ele>218.5</ele>
        <time>2023-03-05T13:01:35.000Z</time>
      </trkpt>
      <trkpt lat="43.21195" lon="6.26133">
        <ele>218.5</ele>
        <time>2023-03-05T13:01:39.000Z</time>
      </trkpt>
      <trkpt lat="43.21196" lon="6.26133">
        <ele>218</ele>
        <time>2023-03-05T13:01:41.000Z</time>
      </trkpt>
      <trkpt lat="43.21196" lon="6.26133">
        <ele>217.8</ele>
        <time>2023-03-05T13:01:43.000Z</time>
      </trkpt>
      <trkpt lat="43.21196" lon="6.26136">
        <ele>217.8</ele>
        <time>2023-03-05T13:01:47.000Z</time>
      </trkpt>
      <trkpt lat="43.21197" lon="6.26137">
        <ele>218.2</ele>
        <time>2023-03-05T13:01:48.000Z</time>
      </trkpt>
      <trkpt lat="43.21197" lon="6.26137">
        <ele>218.7</ele>
        <time>2023-03-05T13:01:54.000Z</time>
      </trkpt>
      <trkpt lat="43.21197" lon="6.26137">
        <ele>218.7</ele>
        <time>2023-03-05T13:02:07.000Z</time>
      </trkpt>
      <trkpt lat="43.21197" lon="6.26138">
        <ele>218.8</ele>
        <time>2023-03-05T13:02:14.000Z</time>
      </trkpt>
      <trkpt lat="43.21197" lon="6.26139">
        <ele>218.6</ele>
        <time>2023-03-05T13:02:15.000Z</time>
      </trkpt>
      <trkpt lat="43.21196" lon="6.26137">
        <ele>218.7</ele>
        <time>2023-03-05T13:02:19.000Z</time>
      </trkpt>
      <trkpt lat="43.21196" lon="6.26136">
        <ele>218.5</ele>
        <time>2023-03-05T13:02:25.000Z</time>
      </trkpt>
      <trkpt lat="43.21193" lon="6.26148">
        <ele>219</ele>
        <time>2023-03-05T13:02:43.000Z</time>
      </trkpt>
      <trkpt lat="43.21191" lon="6.26155">
        <ele>219</ele>
        <time>2023-03-05T13:02:50.000Z</time>
      </trkpt>
      <trkpt lat="43.21191" lon="6.26155">
        <ele>218.9</ele>
        <time>2023-03-05T13:02:54.000Z</time>
      </trkpt>
      <trkpt lat="43.21192" lon="6.26156">
        <ele>218.8</ele>
        <time>2023-03-05T13:02:59.000Z</time>
      </trkpt>
      <trkpt lat="43.21192" lon="6.26156">
        <ele>218.8</ele>
        <time>2023-03-05T13:03:00.000Z</time>
      </trkpt>
      <trkpt lat="43.21192" lon="6.26156">
        <ele>218.9</ele>
        <time>2023-03-05T13:03:01.000Z</time>
      </trkpt>
      <trkpt lat="43.21192" lon="6.26156">
        <ele>219</ele>
        <time>2023-03-05T13:03:15.000Z</time>
      </trkpt>
      <trkpt lat="43.2119" lon="6.26169">
        <ele>219.1</ele>
        <time>2023-03-05T13:03:25.000Z</time>
      </trkpt>
      <trkpt lat="43.21187" lon="6.26182">
        <ele>219.3</ele>
        <time>2023-03-05T13:03:34.000Z</time>
      </trkpt>
      <trkpt lat="43.21184" lon="6.26194">
        <ele>219.6</ele>
        <time>2023-03-05T13:03:44.000Z</time>
      </trkpt>
      <trkpt lat="43.21179" lon="6.26205">
        <ele>220</ele>
        <time>2023-03-05T13:03:54.000Z</time>
      </trkpt>
      <trkpt lat="43.21173" lon="6.26216">
        <ele>220.4</ele>
        <time>2023-03-05T13:04:02.000Z</time>
      </trkpt>
      <trkpt lat="43.2117" lon="6.26228">
        <ele>220.4</ele>
        <time>2023-03-05T13:04:09.000Z</time>
      </trkpt>
      <trkpt lat="43.21165" lon="6.26239">
        <ele>220.8</ele>
        <time>2023-03-05T13:04:18.000Z</time>
      </trkpt>
      <trkpt lat="43.21162" lon="6.26251">
        <ele>221.3</ele>
        <time>2023-03-05T13:04:27.000Z</time>
      </trkpt>
      <trkpt lat="43.21159" lon="6.26264">
        <ele>221.8</ele>
        <time>2023-03-05T13:04:35.000Z</time>
      </trkpt>
      <trkpt lat="43.21153" lon="6.26274">
        <ele>222.4</ele>
        <time>2023-03-05T13:04:43.000Z</time>
      </trkpt>
      <trkpt lat="43.21148" lon="6.26286">
        <ele>222.7</ele>
        <time>2023-03-05T13:04:52.000Z</time>
      </trkpt>
      <trkpt lat="43.21144" lon="6.26297">
        <ele>222.8</ele>
        <time>2023-03-05T13:05:01.000Z</time>
      </trkpt>
      <trkpt lat="43.2114" lon="6.2631">
        <ele>222.7</ele>
        <time>2023-03-05T13:05:09.000Z</time>
      </trkpt>
      <trkpt lat="43.21137" lon="6.26322">
        <ele>223.1</ele>
        <time>2023-03-05T13:05:16.000Z</time>
      </trkpt>
      <trkpt lat="43.21137" lon="6.26334">
        <ele>223.5</ele>
        <time>2023-03-05T13:05:25.000Z</time>
      </trkpt>
      <trkpt lat="43.21141" lon="6.26346">
        <ele>224.2</ele>
        <time>2023-03-05T13:05:33.000Z</time>
      </trkpt>
      <trkpt lat="43.21144" lon="6.26358">
        <ele>224.5</ele>
        <time>2023-03-05T13:05:44.000Z</time>
      </trkpt>
      <trkpt lat="43.21143" lon="6.26367">
        <ele>224.8</ele>
        <time>2023-03-05T13:06:00.000Z</time>
      </trkpt>
      <trkpt lat="43.21143" lon="6.26367">
        <ele>225</ele>
        <time>2023-03-05T13:06:02.000Z</time>
      </trkpt>
      <trkpt lat="43.21143" lon="6.26367">
        <ele>225.1</ele>
        <time>2023-03-05T13:06:04.000Z</time>
      </trkpt>
      <trkpt lat="43.21143" lon="6.26368">
        <ele>225</ele>
        <time>2023-03-05T13:06:05.000Z</time>
      </trkpt>
      <trkpt lat="43.21143" lon="6.26368">
        <ele>224.8</ele>
        <time>2023-03-05T13:06:08.000Z</time>
      </trkpt>
      <trkpt lat="43.21143" lon="6.26368">
        <ele>224.7</ele>
        <time>2023-03-05T13:06:10.000Z</time>
      </trkpt>
      <trkpt lat="43.21141" lon="6.26369">
        <ele>224.7</ele>
        <time>2023-03-05T13:06:15.000Z</time>
      </trkpt>
      <trkpt lat="43.21141" lon="6.26369">
        <ele>224.7</ele>
        <time>2023-03-05T13:06:17.000Z</time>
      </trkpt>
      <trkpt lat="43.2114" lon="6.26369">
        <ele>224.7</ele>
        <time>2023-03-05T13:06:19.000Z</time>
      </trkpt>
      <trkpt lat="43.2114" lon="6.26369">
        <ele>225.1</ele>
        <time>2023-03-05T13:06:25.000Z</time>
      </trkpt>
      <trkpt lat="43.21142" lon="6.26374">
        <ele>225</ele>
        <time>2023-03-05T13:06:36.000Z</time>
      </trkpt>
      <trkpt lat="43.21142" lon="6.26374">
        <ele>225.1</ele>
        <time>2023-03-05T13:06:37.000Z</time>
      </trkpt>
      <trkpt lat="43.21142" lon="6.26375">
        <ele>225.1</ele>
        <time>2023-03-05T13:06:41.000Z</time>
      </trkpt>
      <trkpt lat="43.21142" lon="6.26375">
        <ele>225.1</ele>
        <time>2023-03-05T13:06:42.000Z</time>
      </trkpt>
      <trkpt lat="43.21141" lon="6.26375">
        <ele>225.1</ele>
        <time>2023-03-05T13:06:45.000Z</time>
      </trkpt>
      <trkpt lat="43.21141" lon="6.26376">
        <ele>225.2</ele>
        <time>2023-03-05T13:06:51.000Z</time>
      </trkpt>
      <trkpt lat="43.21134" lon="6.26385">
        <ele>225.2</ele>
        <time>2023-03-05T13:07:05.000Z</time>
      </trkpt>
      <trkpt lat="43.21125" lon="6.2639">
        <ele>225.6</ele>
        <time>2023-03-05T13:07:13.000Z</time>
      </trkpt>
      <trkpt lat="43.21119" lon="6.26401">
        <ele>225.8</ele>
        <time>2023-03-05T13:07:21.000Z</time>
      </trkpt>
      <trkpt lat="43.21114" lon="6.26411">
        <ele>226.7</ele>
        <time>2023-03-05T13:07:29.000Z</time>
      </trkpt>
      <trkpt lat="43.21115" lon="6.26424">
        <ele>226.9</ele>
        <time>2023-03-05T13:07:37.000Z</time>
      </trkpt>
      <trkpt lat="43.21115" lon="6.26438">
        <ele>226.3</ele>
        <time>2023-03-05T13:07:46.000Z</time>
      </trkpt>
      <trkpt lat="43.21114" lon="6.2645">
        <ele>227.4</ele>
        <time>2023-03-05T13:07:55.000Z</time>
      </trkpt>
      <trkpt lat="43.21117" lon="6.26462">
        <ele>228</ele>
        <time>2023-03-05T13:08:03.000Z</time>
      </trkpt>
      <trkpt lat="43.21122" lon="6.26472">
        <ele>228.5</ele>
        <time>2023-03-05T13:08:12.000Z</time>
      </trkpt>
      <trkpt lat="43.21121" lon="6.26485">
        <ele>228.3</ele>
        <time>2023-03-05T13:08:19.000Z</time>
      </trkpt>
      <trkpt lat="43.21113" lon="6.26495">
        <ele>229.4</ele>
        <time>2023-03-05T13:08:32.000Z</time>
      </trkpt>
      <trkpt lat="43.21107" lon="6.26504">
        <ele>230.2</ele>
        <time>2023-03-05T13:08:40.000Z</time>
      </trkpt>
      <trkpt lat="43.21102" lon="6.26516">
        <ele>231.2</ele>
        <time>2023-03-05T13:08:49.000Z</time>
      </trkpt>
      <trkpt lat="43.211" lon="6.2653">
        <ele>232.3</ele>
        <time>2023-03-05T13:09:00.000Z</time>
      </trkpt>
      <trkpt lat="43.21099" lon="6.26542">
        <ele>233</ele>
        <time>2023-03-05T13:09:08.000Z</time>
      </trkpt>
      <trkpt lat="43.21098" lon="6.26556">
        <ele>234.1</ele>
        <time>2023-03-05T13:09:17.000Z</time>
      </trkpt>
      <trkpt lat="43.21094" lon="6.26567">
        <ele>234.7</ele>
        <time>2023-03-05T13:09:26.000Z</time>
      </trkpt>
      <trkpt lat="43.21094" lon="6.2658">
        <ele>235.7</ele>
        <time>2023-03-05T13:09:37.000Z</time>
      </trkpt>
      <trkpt lat="43.21092" lon="6.26593">
        <ele>236.4</ele>
        <time>2023-03-05T13:09:47.000Z</time>
      </trkpt>
      <trkpt lat="43.21093" lon="6.26606">
        <ele>237</ele>
        <time>2023-03-05T13:09:56.000Z</time>
      </trkpt>
      <trkpt lat="43.21094" lon="6.2662">
        <ele>237.6</ele>
        <time>2023-03-05T13:10:06.000Z</time>
      </trkpt>
      <trkpt lat="43.21091" lon="6.26632">
        <ele>238.3</ele>
        <time>2023-03-05T13:10:14.000Z</time>
      </trkpt>
      <trkpt lat="43.21088" lon="6.26645">
        <ele>239</ele>
        <time>2023-03-05T13:10:24.000Z</time>
      </trkpt>
      <trkpt lat="43.21085" lon="6.26657">
        <ele>239.9</ele>
        <time>2023-03-05T13:10:35.000Z</time>
      </trkpt>
      <trkpt lat="43.21078" lon="6.26664">
        <ele>239.9</ele>
        <time>2023-03-05T13:10:43.000Z</time>
      </trkpt>
      <trkpt lat="43.21071" lon="6.26673">
        <ele>241.2</ele>
        <time>2023-03-05T13:10:53.000Z</time>
      </trkpt>
      <trkpt lat="43.21065" lon="6.26683">
        <ele>241.6</ele>
        <time>2023-03-05T13:11:03.000Z</time>
      </trkpt>
      <trkpt lat="43.21065" lon="6.26695">
        <ele>242.2</ele>
        <time>2023-03-05T13:11:11.000Z</time>
      </trkpt>
      <trkpt lat="43.21065" lon="6.26709">
        <ele>243.1</ele>
        <time>2023-03-05T13:11:22.000Z</time>
      </trkpt>
      <trkpt lat="43.21062" lon="6.26721">
        <ele>243.8</ele>
        <time>2023-03-05T13:11:32.000Z</time>
      </trkpt>
      <trkpt lat="43.21058" lon="6.26732">
        <ele>244.6</ele>
        <time>2023-03-05T13:11:42.000Z</time>
      </trkpt>
      <trkpt lat="43.21053" lon="6.26743">
        <ele>245.5</ele>
        <time>2023-03-05T13:11:51.000Z</time>
      </trkpt>
      <trkpt lat="43.21049" lon="6.26754">
        <ele>246.6</ele>
        <time>2023-03-05T13:12:01.000Z</time>
      </trkpt>
      <trkpt lat="43.21045" lon="6.26767">
        <ele>247.7</ele>
        <time>2023-03-05T13:12:12.000Z</time>
      </trkpt>
      <trkpt lat="43.21042" lon="6.26779">
        <ele>248.3</ele>
        <time>2023-03-05T13:12:21.000Z</time>
      </trkpt>
      <trkpt lat="43.2104" lon="6.26793">
        <ele>249.3</ele>
        <time>2023-03-05T13:12:32.000Z</time>
      </trkpt>
      <trkpt lat="43.21041" lon="6.26806">
        <ele>250</ele>
        <time>2023-03-05T13:12:41.000Z</time>
      </trkpt>
      <trkpt lat="43.21041" lon="6.26819">
        <ele>250.8</ele>
        <time>2023-03-05T13:12:51.000Z</time>
      </trkpt>
      <trkpt lat="43.21037" lon="6.26832">
        <ele>251.3</ele>
        <time>2023-03-05T13:13:01.000Z</time>
      </trkpt>
      <trkpt lat="43.21035" lon="6.26844">
        <ele>252.3</ele>
        <time>2023-03-05T13:13:11.000Z</time>
      </trkpt>
      <trkpt lat="43.21032" lon="6.26856">
        <ele>253.1</ele>
        <time>2023-03-05T13:13:21.000Z</time>
      </trkpt>
      <trkpt lat="43.21032" lon="6.2687">
        <ele>253.9</ele>
        <time>2023-03-05T13:13:30.000Z</time>
      </trkpt>
      <trkpt lat="43.21032" lon="6.26883">
        <ele>254.9</ele>
        <time>2023-03-05T13:13:40.000Z</time>
      </trkpt>
      <trkpt lat="43.21034" lon="6.26896">
        <ele>255</ele>
        <time>2023-03-05T13:13:50.000Z</time>
      </trkpt>
      <trkpt lat="43.21034" lon="6.2691">
        <ele>256.3</ele>
        <time>2023-03-05T13:14:01.000Z</time>
      </trkpt>
      <trkpt lat="43.21038" lon="6.26921">
        <ele>257.4</ele>
        <time>2023-03-05T13:14:12.000Z</time>
      </trkpt>
      <trkpt lat="43.21044" lon="6.26911">
        <ele>258.2</ele>
        <time>2023-03-05T13:14:21.000Z</time>
      </trkpt>
      <trkpt lat="43.21046" lon="6.26898">
        <ele>258.8</ele>
        <time>2023-03-05T13:14:29.000Z</time>
      </trkpt>
      <trkpt lat="43.21046" lon="6.26885">
        <ele>259.2</ele>
        <time>2023-03-05T13:14:38.000Z</time>
      </trkpt>
      <trkpt lat="43.21045" lon="6.26872">
        <ele>260</ele>
        <time>2023-03-05T13:14:48.000Z</time>
      </trkpt>
      <trkpt lat="43.21048" lon="6.2686">
        <ele>260.7</ele>
        <time>2023-03-05T13:14:58.000Z</time>
      </trkpt>
      <trkpt lat="43.21052" lon="6.26848">
        <ele>261.5</ele>
        <time>2023-03-05T13:15:08.000Z</time>
      </trkpt>
      <trkpt lat="43.21057" lon="6.26838">
        <ele>262</ele>
        <time>2023-03-05T13:15:17.000Z</time>
      </trkpt>
      <trkpt lat="43.21059" lon="6.26825">
        <ele>262.5</ele>
        <time>2023-03-05T13:15:26.000Z</time>
      </trkpt>
      <trkpt lat="43.21064" lon="6.26815">
        <ele>262.8</ele>
        <time>2023-03-05T13:15:35.000Z</time>
      </trkpt>
      <trkpt lat="43.2107" lon="6.26805">
        <ele>263</ele>
        <time>2023-03-05T13:15:44.000Z</time>
      </trkpt>
      <trkpt lat="43.21075" lon="6.26795">
        <ele>264.1</ele>
        <time>2023-03-05T13:15:53.000Z</time>
      </trkpt>
      <trkpt lat="43.21081" lon="6.26785">
        <ele>264.8</ele>
        <time>2023-03-05T13:16:02.000Z</time>
      </trkpt>
      <trkpt lat="43.21085" lon="6.26773">
        <ele>265.4</ele>
        <time>2023-03-05T13:16:13.000Z</time>
      </trkpt>
      <trkpt lat="43.21091" lon="6.26763">
        <ele>266</ele>
        <time>2023-03-05T13:16:23.000Z</time>
      </trkpt>
      <trkpt lat="43.21096" lon="6.26752">
        <ele>266.7</ele>
        <time>2023-03-05T13:16:32.000Z</time>
      </trkpt>
      <trkpt lat="43.21103" lon="6.26743">
        <ele>267.6</ele>
        <time>2023-03-05T13:16:43.000Z</time>
      </trkpt>
      <trkpt lat="43.2111" lon="6.26735">
        <ele>268.2</ele>
        <time>2023-03-05T13:16:55.000Z</time>
      </trkpt>
      <trkpt lat="43.21111" lon="6.26737">
        <ele>268.3</ele>
        <time>2023-03-05T13:17:02.000Z</time>
      </trkpt>
      <trkpt lat="43.21112" lon="6.26737">
        <ele>268.1</ele>
        <time>2023-03-05T13:17:04.000Z</time>
      </trkpt>
      <trkpt lat="43.21112" lon="6.26737">
        <ele>268.2</ele>
        <time>2023-03-05T13:17:05.000Z</time>
      </trkpt>
      <trkpt lat="43.21112" lon="6.26738">
        <ele>268.8</ele>
        <time>2023-03-05T13:17:15.000Z</time>
      </trkpt>
      <trkpt lat="43.21112" lon="6.26738">
        <ele>268.7</ele>
        <time>2023-03-05T13:17:16.000Z</time>
      </trkpt>
      <trkpt lat="43.21111" lon="6.26738">
        <ele>268.7</ele>
        <time>2023-03-05T13:17:33.000Z</time>
      </trkpt>
      <trkpt lat="43.21111" lon="6.26738">
        <ele>268.6</ele>
        <time>2023-03-05T13:17:34.000Z</time>
      </trkpt>
      <trkpt lat="43.21111" lon="6.26738">
        <ele>268.6</ele>
        <time>2023-03-05T13:18:07.000Z</time>
      </trkpt>
      <trkpt lat="43.21111" lon="6.26738">
        <ele>268.4</ele>
        <time>2023-03-05T13:18:08.000Z</time>
      </trkpt>
      <trkpt lat="43.21111" lon="6.26738">
        <ele>268.2</ele>
        <time>2023-03-05T13:18:20.000Z</time>
      </trkpt>
      <trkpt lat="43.21111" lon="6.26738">
        <ele>268.1</ele>
        <time>2023-03-05T13:18:21.000Z</time>
      </trkpt>
      <trkpt lat="43.21111" lon="6.26738">
        <ele>268.2</ele>
        <time>2023-03-05T13:18:23.000Z</time>
      </trkpt>
      <trkpt lat="43.21111" lon="6.26738">
        <ele>268.1</ele>
        <time>2023-03-05T13:18:24.000Z</time>
      </trkpt>
      <trkpt lat="43.21111" lon="6.26738">
        <ele>268.5</ele>
        <time>2023-03-05T13:18:27.000Z</time>
      </trkpt>
      <trkpt lat="43.21111" lon="6.26738">
        <ele>268.6</ele>
        <time>2023-03-05T13:18:28.000Z</time>
      </trkpt>
      <trkpt lat="43.21111" lon="6.26738">
        <ele>268.5</ele>
        <time>2023-03-05T13:18:30.000Z</time>
      </trkpt>
      <trkpt lat="43.21121" lon="6.26734">
        <ele>268.9</ele>
        <time>2023-03-05T13:18:42.000Z</time>
      </trkpt>
      <trkpt lat="43.21129" lon="6.2673">
        <ele>269.5</ele>
        <time>2023-03-05T13:18:50.000Z</time>
      </trkpt>
      <trkpt lat="43.21138" lon="6.26725">
        <ele>270.3</ele>
        <time>2023-03-05T13:18:57.000Z</time>
      </trkpt>
      <trkpt lat="43.21144" lon="6.26715">
        <ele>270.8</ele>
        <time>2023-03-05T13:19:06.000Z</time>
      </trkpt>
      <trkpt lat="43.21149" lon="6.26704">
        <ele>272.3</ele>
        <time>2023-03-05T13:19:16.000Z</time>
      </trkpt>
      <trkpt lat="43.21152" lon="6.26691">
        <ele>273.3</ele>
        <time>2023-03-05T13:19:26.000Z</time>
      </trkpt>
      <trkpt lat="43.21153" lon="6.26678">
        <ele>274.2</ele>
        <time>2023-03-05T13:19:35.000Z</time>
      </trkpt>
      <trkpt lat="43.21152" lon="6.26665">
        <ele>274.7</ele>
        <time>2023-03-05T13:19:43.000Z</time>
      </trkpt>
      <trkpt lat="43.21152" lon="6.26652">
        <ele>275</ele>
        <time>2023-03-05T13:19:51.000Z</time>
      </trkpt>
      <trkpt lat="43.21154" lon="6.26639">
        <ele>275.1</ele>
        <time>2023-03-05T13:20:00.000Z</time>
      </trkpt>
      <trkpt lat="43.21158" lon="6.26632">
        <ele>275.3</ele>
        <time>2023-03-05T13:20:10.000Z</time>
      </trkpt>
      <trkpt lat="43.21158" lon="6.26632">
        <ele>275.3</ele>
        <time>2023-03-05T13:20:11.000Z</time>
      </trkpt>
      <trkpt lat="43.21158" lon="6.26635">
        <ele>275.4</ele>
        <time>2023-03-05T13:20:16.000Z</time>
      </trkpt>
      <trkpt lat="43.21158" lon="6.26635">
        <ele>275.3</ele>
        <time>2023-03-05T13:20:17.000Z</time>
      </trkpt>
      <trkpt lat="43.21158" lon="6.26635">
        <ele>275.3</ele>
        <time>2023-03-05T13:20:18.000Z</time>
      </trkpt>
      <trkpt lat="43.21158" lon="6.26635">
        <ele>275.6</ele>
        <time>2023-03-05T13:20:22.000Z</time>
      </trkpt>
      <trkpt lat="43.21161" lon="6.26623">
        <ele>276</ele>
        <time>2023-03-05T13:20:32.000Z</time>
      </trkpt>
      <trkpt lat="43.21168" lon="6.26613">
        <ele>276.6</ele>
        <time>2023-03-05T13:20:40.000Z</time>
      </trkpt>
      <trkpt lat="43.21175" lon="6.26604">
        <ele>277.3</ele>
        <time>2023-03-05T13:20:48.000Z</time>
      </trkpt>
      <trkpt lat="43.21182" lon="6.26594">
        <ele>278.2</ele>
        <time>2023-03-05T13:20:56.000Z</time>
      </trkpt>
      <trkpt lat="43.21187" lon="6.26583">
        <ele>278.9</ele>
        <time>2023-03-05T13:21:05.000Z</time>
      </trkpt>
      <trkpt lat="43.2119" lon="6.26571">
        <ele>279.4</ele>
        <time>2023-03-05T13:21:13.000Z</time>
      </trkpt>
      <trkpt lat="43.21192" lon="6.26559">
        <ele>280.1</ele>
        <time>2023-03-05T13:21:21.000Z</time>
      </trkpt>
      <trkpt lat="43.21195" lon="6.26547">
        <ele>280.8</ele>
        <time>2023-03-05T13:21:28.000Z</time>
      </trkpt>
      <trkpt lat="43.21197" lon="6.26534">
        <ele>280.9</ele>
        <time>2023-03-05T13:21:36.000Z</time>
      </trkpt>
      <trkpt lat="43.21201" lon="6.26523">
        <ele>281.5</ele>
        <time>2023-03-05T13:21:44.000Z</time>
      </trkpt>
      <trkpt lat="43.21206" lon="6.26512">
        <ele>282.2</ele>
        <time>2023-03-05T13:21:52.000Z</time>
      </trkpt>
      <trkpt lat="43.21211" lon="6.265">
        <ele>282.7</ele>
        <time>2023-03-05T13:22:01.000Z</time>
      </trkpt>
      <trkpt lat="43.21218" lon="6.26492">
        <ele>283.2</ele>
        <time>2023-03-05T13:22:09.000Z</time>
      </trkpt>
      <trkpt lat="43.21227" lon="6.26486">
        <ele>283.6</ele>
        <time>2023-03-05T13:22:17.000Z</time>
      </trkpt>
      <trkpt lat="43.21237" lon="6.26484">
        <ele>284</ele>
        <time>2023-03-05T13:22:26.000Z</time>
      </trkpt>
      <trkpt lat="43.21246" lon="6.26483">
        <ele>284.3</ele>
        <time>2023-03-05T13:22:32.000Z</time>
      </trkpt>
      <trkpt lat="43.21255" lon="6.2648">
        <ele>284.8</ele>
        <time>2023-03-05T13:22:40.000Z</time>
      </trkpt>
      <trkpt lat="43.21264" lon="6.26474">
        <ele>285.4</ele>
        <time>2023-03-05T13:22:48.000Z</time>
      </trkpt>
      <trkpt lat="43.21273" lon="6.26469">
        <ele>286.2</ele>
        <time>2023-03-05T13:22:56.000Z</time>
      </trkpt>
      <trkpt lat="43.21281" lon="6.26463">
        <ele>287</ele>
        <time>2023-03-05T13:23:05.000Z</time>
      </trkpt>
      <trkpt lat="43.21291" lon="6.26459">
        <ele>287.3</ele>
        <time>2023-03-05T13:23:14.000Z</time>
      </trkpt>
      <trkpt lat="43.21298" lon="6.2645">
        <ele>288</ele>
        <time>2023-03-05T13:23:22.000Z</time>
      </trkpt>
      <trkpt lat="43.21305" lon="6.2644">
        <ele>288.5</ele>
        <time>2023-03-05T13:23:31.000Z</time>
      </trkpt>
      <trkpt lat="43.2131" lon="6.26429">
        <ele>289.2</ele>
        <time>2023-03-05T13:23:40.000Z</time>
      </trkpt>
      <trkpt lat="43.21313" lon="6.26418">
        <ele>289.7</ele>
        <time>2023-03-05T13:23:49.000Z</time>
      </trkpt>
      <trkpt lat="43.21319" lon="6.26407">
        <ele>290.3</ele>
        <time>2023-03-05T13:23:57.000Z</time>
      </trkpt>
      <trkpt lat="43.21323" lon="6.26395">
        <ele>290.6</ele>
        <time>2023-03-05T13:24:06.000Z</time>
      </trkpt>
      <trkpt lat="43.21328" lon="6.26384">
        <ele>291.2</ele>
        <time>2023-03-05T13:24:14.000Z</time>
      </trkpt>
      <trkpt lat="43.21332" lon="6.26372">
        <ele>291.8</ele>
        <time>2023-03-05T13:24:23.000Z</time>
      </trkpt>
      <trkpt lat="43.21335" lon="6.2636">
        <ele>293.1</ele>
        <time>2023-03-05T13:24:32.000Z</time>
      </trkpt>
      <trkpt lat="43.21342" lon="6.26351">
        <ele>293.7</ele>
        <time>2023-03-05T13:24:41.000Z</time>
      </trkpt>
      <trkpt lat="43.2135" lon="6.26343">
        <ele>293.9</ele>
        <time>2023-03-05T13:24:50.000Z</time>
      </trkpt>
      <trkpt lat="43.21359" lon="6.26336">
        <ele>294.3</ele>
        <time>2023-03-05T13:24:58.000Z</time>
      </trkpt>
      <trkpt lat="43.21366" lon="6.2633">
        <ele>295.2</ele>
        <time>2023-03-05T13:25:07.000Z</time>
      </trkpt>
      <trkpt lat="43.21374" lon="6.26322">
        <ele>295.8</ele>
        <time>2023-03-05T13:25:15.000Z</time>
      </trkpt>
      <trkpt lat="43.2138" lon="6.26313">
        <ele>296.4</ele>
        <time>2023-03-05T13:25:24.000Z</time>
      </trkpt>
      <trkpt lat="43.21389" lon="6.26308">
        <ele>296.9</ele>
        <time>2023-03-05T13:25:33.000Z</time>
      </trkpt>
      <trkpt lat="43.21399" lon="6.26306">
        <ele>297.5</ele>
        <time>2023-03-05T13:25:41.000Z</time>
      </trkpt>
      <trkpt lat="43.21408" lon="6.26305">
        <ele>297.7</ele>
        <time>2023-03-05T13:25:49.000Z</time>
      </trkpt>
      <trkpt lat="43.21417" lon="6.26307">
        <ele>298.1</ele>
        <time>2023-03-05T13:25:58.000Z</time>
      </trkpt>
      <trkpt lat="43.21427" lon="6.26307">
        <ele>298.5</ele>
        <time>2023-03-05T13:26:07.000Z</time>
      </trkpt>
      <trkpt lat="43.21435" lon="6.26305">
        <ele>299.9</ele>
        <time>2023-03-05T13:26:22.000Z</time>
      </trkpt>
      <trkpt lat="43.21435" lon="6.26305">
        <ele>299.7</ele>
        <time>2023-03-05T13:26:25.000Z</time>
      </trkpt>
      <trkpt lat="43.21435" lon="6.26305">
        <ele>299.6</ele>
        <time>2023-03-05T13:26:26.000Z</time>
      </trkpt>
      <trkpt lat="43.21435" lon="6.26305">
        <ele>299.3</ele>
        <time>2023-03-05T13:26:28.000Z</time>
      </trkpt>
      <trkpt lat="43.21435" lon="6.26305">
        <ele>299.6</ele>
        <time>2023-03-05T13:26:31.000Z</time>
      </trkpt>
      <trkpt lat="43.21434" lon="6.26305">
        <ele>299.8</ele>
        <time>2023-03-05T13:27:01.000Z</time>
      </trkpt>
      <trkpt lat="43.21443" lon="6.26307">
        <ele>299.4</ele>
        <time>2023-03-05T13:27:19.000Z</time>
      </trkpt>
      <trkpt lat="43.21443" lon="6.26308">
        <ele>299.3</ele>
        <time>2023-03-05T13:27:22.000Z</time>
      </trkpt>
      <trkpt lat="43.21444" lon="6.26308">
        <ele>299.3</ele>
        <time>2023-03-05T13:27:27.000Z</time>
      </trkpt>
      <trkpt lat="43.21445" lon="6.26308">
        <ele>299.6</ele>
        <time>2023-03-05T13:27:36.000Z</time>
      </trkpt>
      <trkpt lat="43.21444" lon="6.26309">
        <ele>299.4</ele>
        <time>2023-03-05T13:27:38.000Z</time>
      </trkpt>
      <trkpt lat="43.21445" lon="6.26308">
        <ele>299.1</ele>
        <time>2023-03-05T13:27:59.000Z</time>
      </trkpt>
      <trkpt lat="43.21445" lon="6.26308">
        <ele>299.2</ele>
        <time>2023-03-05T13:28:02.000Z</time>
      </trkpt>
      <trkpt lat="43.21445" lon="6.26308">
        <ele>299.1</ele>
        <time>2023-03-05T13:28:05.000Z</time>
      </trkpt>
      <trkpt lat="43.21445" lon="6.26308">
        <ele>299.1</ele>
        <time>2023-03-05T13:28:06.000Z</time>
      </trkpt>
      <trkpt lat="43.21445" lon="6.26307">
        <ele>299.1</ele>
        <time>2023-03-05T13:28:07.000Z</time>
      </trkpt>
      <trkpt lat="43.21445" lon="6.26306">
        <ele>299.1</ele>
        <time>2023-03-05T13:28:09.000Z</time>
      </trkpt>
      <trkpt lat="43.21445" lon="6.26306">
        <ele>299</ele>
        <time>2023-03-05T13:28:14.000Z</time>
      </trkpt>
      <trkpt lat="43.21445" lon="6.26306">
        <ele>299.1</ele>
        <time>2023-03-05T13:28:16.000Z</time>
      </trkpt>
      <trkpt lat="43.21445" lon="6.26305">
        <ele>298.8</ele>
        <time>2023-03-05T13:28:21.000Z</time>
      </trkpt>
      <trkpt lat="43.21445" lon="6.26305">
        <ele>298.8</ele>
        <time>2023-03-05T13:28:22.000Z</time>
      </trkpt>
      <trkpt lat="43.21445" lon="6.26305">
        <ele>298.8</ele>
        <time>2023-03-05T13:28:23.000Z</time>
      </trkpt>
      <trkpt lat="43.21445" lon="6.26305">
        <ele>298.8</ele>
        <time>2023-03-05T13:28:25.000Z</time>
      </trkpt>
      <trkpt lat="43.21445" lon="6.26305">
        <ele>298.9</ele>
        <time>2023-03-05T13:28:27.000Z</time>
      </trkpt>
      <trkpt lat="43.21445" lon="6.26305">
        <ele>299</ele>
        <time>2023-03-05T13:28:28.000Z</time>
      </trkpt>
      <trkpt lat="43.21445" lon="6.26305">
        <ele>299.1</ele>
        <time>2023-03-05T13:28:31.000Z</time>
      </trkpt>
      <trkpt lat="43.21454" lon="6.26302">
        <ele>299</ele>
        <time>2023-03-05T13:28:45.000Z</time>
      </trkpt>
      <trkpt lat="43.21464" lon="6.26299">
        <ele>298.6</ele>
        <time>2023-03-05T13:28:56.000Z</time>
      </trkpt>
      <trkpt lat="43.21464" lon="6.26299">
        <ele>298.7</ele>
        <time>2023-03-05T13:28:58.000Z</time>
      </trkpt>
      <trkpt lat="43.21464" lon="6.26298">
        <ele>298.8</ele>
        <time>2023-03-05T13:29:00.000Z</time>
      </trkpt>
      <trkpt lat="43.21464" lon="6.26297">
        <ele>298.9</ele>
        <time>2023-03-05T13:29:02.000Z</time>
      </trkpt>
      <trkpt lat="43.21464" lon="6.26297">
        <ele>298.8</ele>
        <time>2023-03-05T13:29:09.000Z</time>
      </trkpt>
      <trkpt lat="43.21473" lon="6.26301">
        <ele>298.1</ele>
        <time>2023-03-05T13:29:17.000Z</time>
      </trkpt>
      <trkpt lat="43.21482" lon="6.26305">
        <ele>297.6</ele>
        <time>2023-03-05T13:29:25.000Z</time>
      </trkpt>
      <trkpt lat="43.21492" lon="6.26308">
        <ele>297</ele>
        <time>2023-03-05T13:29:34.000Z</time>
      </trkpt>
      <trkpt lat="43.21501" lon="6.26311">
        <ele>297</ele>
        <time>2023-03-05T13:29:43.000Z</time>
      </trkpt>
      <trkpt lat="43.2151" lon="6.26313">
        <ele>296.8</ele>
        <time>2023-03-05T13:29:51.000Z</time>
      </trkpt>
      <trkpt lat="43.21519" lon="6.26316">
        <ele>296.1</ele>
        <time>2023-03-05T13:29:59.000Z</time>
      </trkpt>
      <trkpt lat="43.21529" lon="6.26318">
        <ele>295.6</ele>
        <time>2023-03-05T13:30:08.000Z</time>
      </trkpt>
      <trkpt lat="43.21538" lon="6.2632">
        <ele>295.1</ele>
        <time>2023-03-05T13:30:16.000Z</time>
      </trkpt>
      <trkpt lat="43.21547" lon="6.26319">
        <ele>294.8</ele>
        <time>2023-03-05T13:30:24.000Z</time>
      </trkpt>
      <trkpt lat="43.21557" lon="6.26316">
        <ele>294.8</ele>
        <time>2023-03-05T13:30:32.000Z</time>
      </trkpt>
      <trkpt lat="43.21566" lon="6.26316">
        <ele>293.8</ele>
        <time>2023-03-05T13:30:42.000Z</time>
      </trkpt>
      <trkpt lat="43.21576" lon="6.26317">
        <ele>293.1</ele>
        <time>2023-03-05T13:30:51.000Z</time>
      </trkpt>
      <trkpt lat="43.21585" lon="6.26322">
        <ele>292.4</ele>
        <time>2023-03-05T13:30:59.000Z</time>
      </trkpt>
      <trkpt lat="43.21593" lon="6.26329">
        <ele>292.7</ele>
        <time>2023-03-05T13:31:08.000Z</time>
      </trkpt>
      <trkpt lat="43.21599" lon="6.2634">
        <ele>291.7</ele>
        <time>2023-03-05T13:31:17.000Z</time>
      </trkpt>
      <trkpt lat="43.21604" lon="6.26351">
        <ele>291.4</ele>
        <time>2023-03-05T13:31:26.000Z</time>
      </trkpt>
      <trkpt lat="43.21611" lon="6.2636">
        <ele>290.8</ele>
        <time>2023-03-05T13:31:35.000Z</time>
      </trkpt>
      <trkpt lat="43.21618" lon="6.2637">
        <ele>290.5</ele>
        <time>2023-03-05T13:31:43.000Z</time>
      </trkpt>
      <trkpt lat="43.21625" lon="6.26378">
        <ele>289.8</ele>
        <time>2023-03-05T13:31:51.000Z</time>
      </trkpt>
      <trkpt lat="43.21632" lon="6.26387">
        <ele>289.6</ele>
        <time>2023-03-05T13:31:58.000Z</time>
      </trkpt>
      <trkpt lat="43.2164" lon="6.26393">
        <ele>289.5</ele>
        <time>2023-03-05T13:32:05.000Z</time>
      </trkpt>
      <trkpt lat="43.21649" lon="6.26399">
        <ele>289.2</ele>
        <time>2023-03-05T13:32:13.000Z</time>
      </trkpt>
      <trkpt lat="43.21658" lon="6.26403">
        <ele>289</ele>
        <time>2023-03-05T13:32:22.000Z</time>
      </trkpt>
      <trkpt lat="43.21665" lon="6.26404">
        <ele>288.4</ele>
        <time>2023-03-05T13:32:29.000Z</time>
      </trkpt>
      <trkpt lat="43.21665" lon="6.26405">
        <ele>288.5</ele>
        <time>2023-03-05T13:32:30.000Z</time>
      </trkpt>
      <trkpt lat="43.21674" lon="6.26411">
        <ele>288</ele>
        <time>2023-03-05T13:32:38.000Z</time>
      </trkpt>
      <trkpt lat="43.21683" lon="6.26414">
        <ele>287.3</ele>
        <time>2023-03-05T13:32:45.000Z</time>
      </trkpt>
      <trkpt lat="43.21692" lon="6.26421">
        <ele>287</ele>
        <time>2023-03-05T13:32:53.000Z</time>
      </trkpt>
      <trkpt lat="43.21699" lon="6.26429">
        <ele>285.8</ele>
        <time>2023-03-05T13:33:01.000Z</time>
      </trkpt>
      <trkpt lat="43.21706" lon="6.26438">
        <ele>285.5</ele>
        <time>2023-03-05T13:33:11.000Z</time>
      </trkpt>
      <trkpt lat="43.21712" lon="6.26448">
        <ele>285</ele>
        <time>2023-03-05T13:33:18.000Z</time>
      </trkpt>
      <trkpt lat="43.21714" lon="6.26461">
        <ele>284.2</ele>
        <time>2023-03-05T13:33:27.000Z</time>
      </trkpt>
      <trkpt lat="43.21719" lon="6.26471">
        <ele>283.5</ele>
        <time>2023-03-05T13:33:34.000Z</time>
      </trkpt>
      <trkpt lat="43.21721" lon="6.26484">
        <ele>283.1</ele>
        <time>2023-03-05T13:33:41.000Z</time>
      </trkpt>
      <trkpt lat="43.2172" lon="6.26497">
        <ele>282.2</ele>
        <time>2023-03-05T13:33:49.000Z</time>
      </trkpt>
      <trkpt lat="43.21722" lon="6.2651">
        <ele>281</ele>
        <time>2023-03-05T13:33:58.000Z</time>
      </trkpt>
      <trkpt lat="43.21724" lon="6.26523">
        <ele>280.6</ele>
        <time>2023-03-05T13:34:07.000Z</time>
      </trkpt>
      <trkpt lat="43.21724" lon="6.26536">
        <ele>279.6</ele>
        <time>2023-03-05T13:34:15.000Z</time>
      </trkpt>
      <trkpt lat="43.21726" lon="6.26548">
        <ele>279.2</ele>
        <time>2023-03-05T13:34:22.000Z</time>
      </trkpt>
      <trkpt lat="43.21726" lon="6.26561">
        <ele>278.9</ele>
        <time>2023-03-05T13:34:31.000Z</time>
      </trkpt>
      <trkpt lat="43.21729" lon="6.26575">
        <ele>278.5</ele>
        <time>2023-03-05T13:34:39.000Z</time>
      </trkpt>
      <trkpt lat="43.21733" lon="6.26587">
        <ele>277.9</ele>
        <time>2023-03-05T13:34:46.000Z</time>
      </trkpt>
      <trkpt lat="43.21738" lon="6.26597">
        <ele>277.4</ele>
        <time>2023-03-05T13:34:53.000Z</time>
      </trkpt>
      <trkpt lat="43.21746" lon="6.26606">
        <ele>276.9</ele>
        <time>2023-03-05T13:35:01.000Z</time>
      </trkpt>
      <trkpt lat="43.21752" lon="6.26615">
        <ele>275.9</ele>
        <time>2023-03-05T13:35:09.000Z</time>
      </trkpt>
      <trkpt lat="43.21759" lon="6.26625">
        <ele>274.8</ele>
        <time>2023-03-05T13:35:18.000Z</time>
      </trkpt>
      <trkpt lat="43.21765" lon="6.26635">
        <ele>274.9</ele>
        <time>2023-03-05T13:35:27.000Z</time>
      </trkpt>
      <trkpt lat="43.21772" lon="6.26645">
        <ele>274.1</ele>
        <time>2023-03-05T13:35:35.000Z</time>
      </trkpt>
      <trkpt lat="43.21776" lon="6.26657">
        <ele>273.7</ele>
        <time>2023-03-05T13:35:42.000Z</time>
      </trkpt>
      <trkpt lat="43.21779" lon="6.26669">
        <ele>272.9</ele>
        <time>2023-03-05T13:35:51.000Z</time>
      </trkpt>
      <trkpt lat="43.21784" lon="6.26682">
        <ele>272</ele>
        <time>2023-03-05T13:36:00.000Z</time>
      </trkpt>
      <trkpt lat="43.2179" lon="6.26693">
        <ele>271.7</ele>
        <time>2023-03-05T13:36:08.000Z</time>
      </trkpt>
      <trkpt lat="43.21796" lon="6.26703">
        <ele>271</ele>
        <time>2023-03-05T13:36:16.000Z</time>
      </trkpt>
      <trkpt lat="43.21802" lon="6.26714">
        <ele>270.3</ele>
        <time>2023-03-05T13:36:25.000Z</time>
      </trkpt>
      <trkpt lat="43.2181" lon="6.26722">
        <ele>269.8</ele>
        <time>2023-03-05T13:36:35.000Z</time>
      </trkpt>
      <trkpt lat="43.21817" lon="6.2673">
        <ele>269.2</ele>
        <time>2023-03-05T13:36:42.000Z</time>
      </trkpt>
      <trkpt lat="43.21826" lon="6.26738">
        <ele>268.5</ele>
        <time>2023-03-05T13:36:51.000Z</time>
      </trkpt>
      <trkpt lat="43.21834" lon="6.26744">
        <ele>267.9</ele>
        <time>2023-03-05T13:36:58.000Z</time>
      </trkpt>
      <trkpt lat="43.2184" lon="6.26753">
        <ele>266.9</ele>
        <time>2023-03-05T13:37:07.000Z</time>
      </trkpt>
      <trkpt lat="43.21847" lon="6.26763">
        <ele>266.3</ele>
        <time>2023-03-05T13:37:14.000Z</time>
      </trkpt>
      <trkpt lat="43.21854" lon="6.2677">
        <ele>265.9</ele>
        <time>2023-03-05T13:37:21.000Z</time>
      </trkpt>
      <trkpt lat="43.21863" lon="6.26775">
        <ele>265.2</ele>
        <time>2023-03-05T13:37:29.000Z</time>
      </trkpt>
      <trkpt lat="43.2187" lon="6.26784">
        <ele>265</ele>
        <time>2023-03-05T13:37:37.000Z</time>
      </trkpt>
      <trkpt lat="43.21877" lon="6.26792">
        <ele>264.2</ele>
        <time>2023-03-05T13:37:46.000Z</time>
      </trkpt>
      <trkpt lat="43.21884" lon="6.26801">
        <ele>263.2</ele>
        <time>2023-03-05T13:37:59.000Z</time>
      </trkpt>
      <trkpt lat="43.21891" lon="6.2681">
        <ele>262.7</ele>
        <time>2023-03-05T13:38:06.000Z</time>
      </trkpt>
      <trkpt lat="43.21897" lon="6.26819">
        <ele>262.1</ele>
        <time>2023-03-05T13:38:14.000Z</time>
      </trkpt>
      <trkpt lat="43.21904" lon="6.26829">
        <ele>261.5</ele>
        <time>2023-03-05T13:38:22.000Z</time>
      </trkpt>
      <trkpt lat="43.21904" lon="6.26833">
        <ele>261.5</ele>
        <time>2023-03-05T13:38:28.000Z</time>
      </trkpt>
      <trkpt lat="43.21904" lon="6.26833">
        <ele>261.3</ele>
        <time>2023-03-05T13:38:31.000Z</time>
      </trkpt>
      <trkpt lat="43.21909" lon="6.26845">
        <ele>260.6</ele>
        <time>2023-03-05T13:38:39.000Z</time>
      </trkpt>
      <trkpt lat="43.21914" lon="6.26856">
        <ele>260.2</ele>
        <time>2023-03-05T13:38:46.000Z</time>
      </trkpt>
      <trkpt lat="43.21918" lon="6.26868">
        <ele>259.9</ele>
        <time>2023-03-05T13:38:54.000Z</time>
      </trkpt>
      <trkpt lat="43.2192" lon="6.26875">
        <ele>259.8</ele>
        <time>2023-03-05T13:39:02.000Z</time>
      </trkpt>
      <trkpt lat="43.21921" lon="6.26875">
        <ele>259.9</ele>
        <time>2023-03-05T13:39:05.000Z</time>
      </trkpt>
      <trkpt lat="43.21921" lon="6.26875">
        <ele>259.9</ele>
        <time>2023-03-05T13:39:07.000Z</time>
      </trkpt>
      <trkpt lat="43.21921" lon="6.26874">
        <ele>260.1</ele>
        <time>2023-03-05T13:39:13.000Z</time>
      </trkpt>
      <trkpt lat="43.21921" lon="6.26874">
        <ele>260.2</ele>
        <time>2023-03-05T13:39:14.000Z</time>
      </trkpt>
      <trkpt lat="43.21921" lon="6.26874">
        <ele>259.6</ele>
        <time>2023-03-05T13:39:22.000Z</time>
      </trkpt>
      <trkpt lat="43.21929" lon="6.26882">
        <ele>259.5</ele>
        <time>2023-03-05T13:39:31.000Z</time>
      </trkpt>
      <trkpt lat="43.21936" lon="6.2689">
        <ele>258.8</ele>
        <time>2023-03-05T13:39:37.000Z</time>
      </trkpt>
      <trkpt lat="43.21943" lon="6.26899">
        <ele>257.8</ele>
        <time>2023-03-05T13:39:46.000Z</time>
      </trkpt>
      <trkpt lat="43.21951" lon="6.26905">
        <ele>257.7</ele>
        <time>2023-03-05T13:39:53.000Z</time>
      </trkpt>
      <trkpt lat="43.2196" lon="6.26911">
        <ele>257</ele>
        <time>2023-03-05T13:40:01.000Z</time>
      </trkpt>
      <trkpt lat="43.21968" lon="6.26918">
        <ele>256.7</ele>
        <time>2023-03-05T13:40:09.000Z</time>
      </trkpt>
      <trkpt lat="43.21977" lon="6.26924">
        <ele>256.3</ele>
        <time>2023-03-05T13:40:18.000Z</time>
      </trkpt>
      <trkpt lat="43.21987" lon="6.26925">
        <ele>255.7</ele>
        <time>2023-03-05T13:40:26.000Z</time>
      </trkpt>
      <trkpt lat="43.21996" lon="6.26929">
        <ele>255.4</ele>
        <time>2023-03-05T13:40:35.000Z</time>
      </trkpt>
      <trkpt lat="43.22005" lon="6.26933">
        <ele>255.1</ele>
        <time>2023-03-05T13:40:44.000Z</time>
      </trkpt>
      <trkpt lat="43.22013" lon="6.2694">
        <ele>254.4</ele>
        <time>2023-03-05T13:40:53.000Z</time>
      </trkpt>
      <trkpt lat="43.22022" lon="6.26945">
        <ele>253.2</ele>
        <time>2023-03-05T13:41:01.000Z</time>
      </trkpt>
      <trkpt lat="43.22031" lon="6.26948">
        <ele>253.7</ele>
        <time>2023-03-05T13:41:11.000Z</time>
      </trkpt>
      <trkpt lat="43.22034" lon="6.26953">
        <ele>253.6</ele>
        <time>2023-03-05T13:41:17.000Z</time>
      </trkpt>
      <trkpt lat="43.22034" lon="6.26953">
        <ele>253.2</ele>
        <time>2023-03-05T13:41:28.000Z</time>
      </trkpt>
      <trkpt lat="43.2204" lon="6.26958">
        <ele>252.1</ele>
        <time>2023-03-05T13:41:42.000Z</time>
      </trkpt>
      <trkpt lat="43.22041" lon="6.26958">
        <ele>251.9</ele>
        <time>2023-03-05T13:41:45.000Z</time>
      </trkpt>
      <trkpt lat="43.22043" lon="6.26961">
        <ele>251.6</ele>
        <time>2023-03-05T13:41:52.000Z</time>
      </trkpt>
      <trkpt lat="43.22044" lon="6.26961">
        <ele>251.6</ele>
        <time>2023-03-05T13:41:58.000Z</time>
      </trkpt>
      <trkpt lat="43.22045" lon="6.26965">
        <ele>251.9</ele>
        <time>2023-03-05T13:42:05.000Z</time>
      </trkpt>
      <trkpt lat="43.22046" lon="6.26965">
        <ele>251</ele>
        <time>2023-03-05T13:42:41.000Z</time>
      </trkpt>
      <trkpt lat="43.22049" lon="6.26965">
        <ele>250.7</ele>
        <time>2023-03-05T13:42:49.000Z</time>
      </trkpt>
      <trkpt lat="43.22049" lon="6.26966">
        <ele>250.9</ele>
        <time>2023-03-05T13:42:53.000Z</time>
      </trkpt>
      <trkpt lat="43.22054" lon="6.26977">
        <ele>250.4</ele>
        <time>2023-03-05T13:43:04.000Z</time>
      </trkpt>
      <trkpt lat="43.22061" lon="6.26986">
        <ele>249.4</ele>
        <time>2023-03-05T13:43:15.000Z</time>
      </trkpt>
      <trkpt lat="43.22068" lon="6.26996">
        <ele>248.8</ele>
        <time>2023-03-05T13:43:25.000Z</time>
      </trkpt>
      <trkpt lat="43.22075" lon="6.27005">
        <ele>249</ele>
        <time>2023-03-05T13:43:34.000Z</time>
      </trkpt>
      <trkpt lat="43.22082" lon="6.27013">
        <ele>250.2</ele>
        <time>2023-03-05T13:43:45.000Z</time>
      </trkpt>
      <trkpt lat="43.2209" lon="6.27019">
        <ele>249.6</ele>
        <time>2023-03-05T13:43:55.000Z</time>
      </trkpt>
      <trkpt lat="43.22097" lon="6.27027">
        <ele>248.3</ele>
        <time>2023-03-05T13:44:12.000Z</time>
      </trkpt>
      <trkpt lat="43.22105" lon="6.27035">
        <ele>246.2</ele>
        <time>2023-03-05T13:44:27.000Z</time>
      </trkpt>
      <trkpt lat="43.22113" lon="6.2704">
        <ele>244.6</ele>
        <time>2023-03-05T13:44:42.000Z</time>
      </trkpt>
      <trkpt lat="43.22114" lon="6.2704">
        <ele>244.3</ele>
        <time>2023-03-05T13:44:45.000Z</time>
      </trkpt>
      <trkpt lat="43.22114" lon="6.2704">
        <ele>244</ele>
        <time>2023-03-05T13:44:57.000Z</time>
      </trkpt>
      <trkpt lat="43.22122" lon="6.27042">
        <ele>242.7</ele>
        <time>2023-03-05T13:45:14.000Z</time>
      </trkpt>
      <trkpt lat="43.22122" lon="6.27042">
        <ele>242.4</ele>
        <time>2023-03-05T13:45:23.000Z</time>
      </trkpt>
      <trkpt lat="43.22122" lon="6.27042">
        <ele>242.2</ele>
        <time>2023-03-05T13:45:24.000Z</time>
      </trkpt>
      <trkpt lat="43.22122" lon="6.27042">
        <ele>242.3</ele>
        <time>2023-03-05T13:45:34.000Z</time>
      </trkpt>
      <trkpt lat="43.22125" lon="6.27046">
        <ele>241.8</ele>
        <time>2023-03-05T13:45:42.000Z</time>
      </trkpt>
      <trkpt lat="43.22125" lon="6.27046">
        <ele>241.9</ele>
        <time>2023-03-05T13:45:54.000Z</time>
      </trkpt>
      <trkpt lat="43.22126" lon="6.27045">
        <ele>241.5</ele>
        <time>2023-03-05T13:45:58.000Z</time>
      </trkpt>
      <trkpt lat="43.22126" lon="6.27045">
        <ele>241.3</ele>
        <time>2023-03-05T13:46:21.000Z</time>
      </trkpt>
      <trkpt lat="43.22135" lon="6.27049">
        <ele>239.7</ele>
        <time>2023-03-05T13:46:33.000Z</time>
      </trkpt>
      <trkpt lat="43.22144" lon="6.2705">
        <ele>236.6</ele>
        <time>2023-03-05T13:46:45.000Z</time>
      </trkpt>
      <trkpt lat="43.22154" lon="6.27051">
        <ele>234.6</ele>
        <time>2023-03-05T13:46:58.000Z</time>
      </trkpt>
      <trkpt lat="43.22163" lon="6.27053">
        <ele>232.3</ele>
        <time>2023-03-05T13:47:09.000Z</time>
      </trkpt>
      <trkpt lat="43.22172" lon="6.27056">
        <ele>231.1</ele>
        <time>2023-03-05T13:47:18.000Z</time>
      </trkpt>
      <trkpt lat="43.22181" lon="6.27055">
        <ele>228.9</ele>
        <time>2023-03-05T13:47:30.000Z</time>
      </trkpt>
      <trkpt lat="43.22191" lon="6.27056">
        <ele>226.6</ele>
        <time>2023-03-05T13:47:41.000Z</time>
      </trkpt>
      <trkpt lat="43.22199" lon="6.27058">
        <ele>225.2</ele>
        <time>2023-03-05T13:47:51.000Z</time>
      </trkpt>
      <trkpt lat="43.22209" lon="6.27058">
        <ele>224.2</ele>
        <time>2023-03-05T13:48:01.000Z</time>
      </trkpt>
      <trkpt lat="43.22218" lon="6.27056">
        <ele>222.3</ele>
        <time>2023-03-05T13:48:12.000Z</time>
      </trkpt>
      <trkpt lat="43.22227" lon="6.27054">
        <ele>220.7</ele>
        <time>2023-03-05T13:48:22.000Z</time>
      </trkpt>
      <trkpt lat="43.22236" lon="6.27055">
        <ele>218.5</ele>
        <time>2023-03-05T13:48:33.000Z</time>
      </trkpt>
      <trkpt lat="43.22246" lon="6.27052">
        <ele>216.5</ele>
        <time>2023-03-05T13:48:43.000Z</time>
      </trkpt>
      <trkpt lat="43.22254" lon="6.27049">
        <ele>214.5</ele>
        <time>2023-03-05T13:48:52.000Z</time>
      </trkpt>
      <trkpt lat="43.22263" lon="6.27043">
        <ele>213.3</ele>
        <time>2023-03-05T13:49:02.000Z</time>
      </trkpt>
      <trkpt lat="43.22271" lon="6.27037">
        <ele>211.2</ele>
        <time>2023-03-05T13:49:14.000Z</time>
      </trkpt>
      <trkpt lat="43.2228" lon="6.27032">
        <ele>209.4</ele>
        <time>2023-03-05T13:49:25.000Z</time>
      </trkpt>
      <trkpt lat="43.22287" lon="6.27023">
        <ele>208</ele>
        <time>2023-03-05T13:49:34.000Z</time>
      </trkpt>
      <trkpt lat="43.2229" lon="6.27021">
        <ele>206.9</ele>
        <time>2023-03-05T13:49:40.000Z</time>
      </trkpt>
      <trkpt lat="43.22291" lon="6.2702">
        <ele>206.6</ele>
        <time>2023-03-05T13:49:41.000Z</time>
      </trkpt>
      <trkpt lat="43.22294" lon="6.27016">
        <ele>205.5</ele>
        <time>2023-03-05T13:49:47.000Z</time>
      </trkpt>
      <trkpt lat="43.22294" lon="6.27016">
        <ele>205.4</ele>
        <time>2023-03-05T13:49:48.000Z</time>
      </trkpt>
      <trkpt lat="43.22302" lon="6.27009">
        <ele>202.9</ele>
        <time>2023-03-05T13:50:01.000Z</time>
      </trkpt>
      <trkpt lat="43.2231" lon="6.27">
        <ele>200.5</ele>
        <time>2023-03-05T13:50:14.000Z</time>
      </trkpt>
      <trkpt lat="43.22317" lon="6.26993">
        <ele>198.7</ele>
        <time>2023-03-05T13:50:24.000Z</time>
      </trkpt>
      <trkpt lat="43.22326" lon="6.26989">
        <ele>196.3</ele>
        <time>2023-03-05T13:50:35.000Z</time>
      </trkpt>
      <trkpt lat="43.22336" lon="6.26985">
        <ele>194.8</ele>
        <time>2023-03-05T13:50:45.000Z</time>
      </trkpt>
      <trkpt lat="43.22345" lon="6.26981">
        <ele>192.9</ele>
        <time>2023-03-05T13:50:55.000Z</time>
      </trkpt>
      <trkpt lat="43.22353" lon="6.26975">
        <ele>190.6</ele>
        <time>2023-03-05T13:51:06.000Z</time>
      </trkpt>
      <trkpt lat="43.22362" lon="6.26973">
        <ele>187.4</ele>
        <time>2023-03-05T13:51:19.000Z</time>
      </trkpt>
      <trkpt lat="43.22372" lon="6.26972">
        <ele>185</ele>
        <time>2023-03-05T13:51:31.000Z</time>
      </trkpt>
      <trkpt lat="43.2238" lon="6.26967">
        <ele>182.8</ele>
        <time>2023-03-05T13:51:41.000Z</time>
      </trkpt>
      <trkpt lat="43.22389" lon="6.26964">
        <ele>181.6</ele>
        <time>2023-03-05T13:51:50.000Z</time>
      </trkpt>
      <trkpt lat="43.22398" lon="6.26963">
        <ele>179.5</ele>
        <time>2023-03-05T13:51:59.000Z</time>
      </trkpt>
      <trkpt lat="43.22408" lon="6.26964">
        <ele>177.7</ele>
        <time>2023-03-05T13:52:10.000Z</time>
      </trkpt>
      <trkpt lat="43.22418" lon="6.26963">
        <ele>175.6</ele>
        <time>2023-03-05T13:52:21.000Z</time>
      </trkpt>
      <trkpt lat="43.22421" lon="6.26962">
        <ele>174</ele>
        <time>2023-03-05T13:52:28.000Z</time>
      </trkpt>
      <trkpt lat="43.22421" lon="6.26962">
        <ele>173.8</ele>
        <time>2023-03-05T13:52:29.000Z</time>
      </trkpt>
      <trkpt lat="43.2243" lon="6.26957">
        <ele>171.4</ele>
        <time>2023-03-05T13:52:41.000Z</time>
      </trkpt>
      <trkpt lat="43.2244" lon="6.26954">
        <ele>169.6</ele>
        <time>2023-03-05T13:52:52.000Z</time>
      </trkpt>
      <trkpt lat="43.22448" lon="6.26945">
        <ele>169.2</ele>
        <time>2023-03-05T13:52:59.000Z</time>
      </trkpt>
      <trkpt lat="43.22455" lon="6.26936">
        <ele>168.5</ele>
        <time>2023-03-05T13:53:09.000Z</time>
      </trkpt>
      <trkpt lat="43.22459" lon="6.26932">
        <ele>168.1</ele>
        <time>2023-03-05T13:53:19.000Z</time>
      </trkpt>
      <trkpt lat="43.22459" lon="6.26932">
        <ele>168.4</ele>
        <time>2023-03-05T13:53:25.000Z</time>
      </trkpt>
      <trkpt lat="43.22469" lon="6.26933">
        <ele>167.9</ele>
        <time>2023-03-05T13:53:40.000Z</time>
      </trkpt>
      <trkpt lat="43.22474" lon="6.26933">
        <ele>167.4</ele>
        <time>2023-03-05T13:53:48.000Z</time>
      </trkpt>
      <trkpt lat="43.22474" lon="6.26933">
        <ele>167.8</ele>
        <time>2023-03-05T13:53:53.000Z</time>
      </trkpt>
      <trkpt lat="43.22474" lon="6.26933">
        <ele>167.8</ele>
        <time>2023-03-05T13:53:54.000Z</time>
      </trkpt>
      <trkpt lat="43.22474" lon="6.26933">
        <ele>167.5</ele>
        <time>2023-03-05T13:54:02.000Z</time>
      </trkpt>
      <trkpt lat="43.22474" lon="6.26933">
        <ele>167.6</ele>
        <time>2023-03-05T13:54:03.000Z</time>
      </trkpt>
      <trkpt lat="43.22474" lon="6.26933">
        <ele>168</ele>
        <time>2023-03-05T13:54:08.000Z</time>
      </trkpt>
      <trkpt lat="43.22474" lon="6.26932">
        <ele>167.9</ele>
        <time>2023-03-05T13:54:09.000Z</time>
      </trkpt>
      <trkpt lat="43.22474" lon="6.26932">
        <ele>167.7</ele>
        <time>2023-03-05T13:54:10.000Z</time>
      </trkpt>
      <trkpt lat="43.22475" lon="6.26931">
        <ele>167.6</ele>
        <time>2023-03-05T13:54:13.000Z</time>
      </trkpt>
      <trkpt lat="43.22474" lon="6.26931">
        <ele>167.6</ele>
        <time>2023-03-05T13:54:23.000Z</time>
      </trkpt>
      <trkpt lat="43.22484" lon="6.26934">
        <ele>167</ele>
        <time>2023-03-05T13:54:33.000Z</time>
      </trkpt>
      <trkpt lat="43.22493" lon="6.26938">
        <ele>166.9</ele>
        <time>2023-03-05T13:54:42.000Z</time>
      </trkpt>
      <trkpt lat="43.22497" lon="6.26932">
        <ele>166.9</ele>
        <time>2023-03-05T13:54:49.000Z</time>
      </trkpt>
      <trkpt lat="43.22498" lon="6.2693">
        <ele>166.8</ele>
        <time>2023-03-05T13:54:51.000Z</time>
      </trkpt>
      <trkpt lat="43.22498" lon="6.2693">
        <ele>166.7</ele>
        <time>2023-03-05T13:54:52.000Z</time>
      </trkpt>
      <trkpt lat="43.22498" lon="6.26929">
        <ele>166.6</ele>
        <time>2023-03-05T13:55:04.000Z</time>
      </trkpt>
      <trkpt lat="43.22508" lon="6.2693">
        <ele>165.8</ele>
        <time>2023-03-05T13:55:18.000Z</time>
      </trkpt>
      <trkpt lat="43.22512" lon="6.26934">
        <ele>165.6</ele>
        <time>2023-03-05T13:55:26.000Z</time>
      </trkpt>
      <trkpt lat="43.22512" lon="6.26934">
        <ele>165.6</ele>
        <time>2023-03-05T13:55:31.000Z</time>
      </trkpt>
      <trkpt lat="43.22513" lon="6.26934">
        <ele>165.7</ele>
        <time>2023-03-05T13:55:33.000Z</time>
      </trkpt>
      <trkpt lat="43.22513" lon="6.26934">
        <ele>165.7</ele>
        <time>2023-03-05T13:55:35.000Z</time>
      </trkpt>
      <trkpt lat="43.22521" lon="6.26938">
        <ele>164.7</ele>
        <time>2023-03-05T13:55:47.000Z</time>
      </trkpt>
      <trkpt lat="43.22527" lon="6.26948">
        <ele>163.9</ele>
        <time>2023-03-05T13:55:56.000Z</time>
      </trkpt>
      <trkpt lat="43.22534" lon="6.26957">
        <ele>162.7</ele>
        <time>2023-03-05T13:56:05.000Z</time>
      </trkpt>
      <trkpt lat="43.22541" lon="6.26966">
        <ele>161.5</ele>
        <time>2023-03-05T13:56:15.000Z</time>
      </trkpt>
      <trkpt lat="43.22549" lon="6.26974">
        <ele>160.6</ele>
        <time>2023-03-05T13:56:23.000Z</time>
      </trkpt>
      <trkpt lat="43.22556" lon="6.2698">
        <ele>159.8</ele>
        <time>2023-03-05T13:56:31.000Z</time>
      </trkpt>
      <trkpt lat="43.22565" lon="6.26987">
        <ele>158.7</ele>
        <time>2023-03-05T13:56:39.000Z</time>
      </trkpt>
      <trkpt lat="43.22573" lon="6.26995">
        <ele>158.1</ele>
        <time>2023-03-05T13:56:48.000Z</time>
      </trkpt>
      <trkpt lat="43.22581" lon="6.27003">
        <ele>157.6</ele>
        <time>2023-03-05T13:56:56.000Z</time>
      </trkpt>
      <trkpt lat="43.2259" lon="6.27009">
        <ele>157.4</ele>
        <time>2023-03-05T13:57:05.000Z</time>
      </trkpt>
      <trkpt lat="43.22596" lon="6.2702">
        <ele>157</ele>
        <time>2023-03-05T13:57:15.000Z</time>
      </trkpt>
      <trkpt lat="43.22601" lon="6.27031">
        <ele>157.1</ele>
        <time>2023-03-05T13:57:24.000Z</time>
      </trkpt>
      <trkpt lat="43.22605" lon="6.27043">
        <ele>157.2</ele>
        <time>2023-03-05T13:57:33.000Z</time>
      </trkpt>
      <trkpt lat="43.22611" lon="6.27053">
        <ele>156.6</ele>
        <time>2023-03-05T13:57:41.000Z</time>
      </trkpt>
      <trkpt lat="43.22618" lon="6.27063">
        <ele>156.6</ele>
        <time>2023-03-05T13:57:50.000Z</time>
      </trkpt>
      <trkpt lat="43.22626" lon="6.2707">
        <ele>156.4</ele>
        <time>2023-03-05T13:57:58.000Z</time>
      </trkpt>
      <trkpt lat="43.22631" lon="6.27081">
        <ele>156.7</ele>
        <time>2023-03-05T13:58:06.000Z</time>
      </trkpt>
      <trkpt lat="43.22638" lon="6.2709">
        <ele>155.8</ele>
        <time>2023-03-05T13:58:15.000Z</time>
      </trkpt>
      <trkpt lat="43.22644" lon="6.27101">
        <ele>155.2</ele>
        <time>2023-03-05T13:58:24.000Z</time>
      </trkpt>
      <trkpt lat="43.22651" lon="6.27109">
        <ele>155</ele>
        <time>2023-03-05T13:58:33.000Z</time>
      </trkpt>
      <trkpt lat="43.22658" lon="6.27119">
        <ele>154.5</ele>
        <time>2023-03-05T13:58:41.000Z</time>
      </trkpt>
      <trkpt lat="43.22665" lon="6.27128">
        <ele>154</ele>
        <time>2023-03-05T13:58:50.000Z</time>
      </trkpt>
      <trkpt lat="43.22672" lon="6.27137">
        <ele>153.7</ele>
        <time>2023-03-05T13:59:00.000Z</time>
      </trkpt>
      <trkpt lat="43.22679" lon="6.27146">
        <ele>152.9</ele>
        <time>2023-03-05T13:59:09.000Z</time>
      </trkpt>
      <trkpt lat="43.22684" lon="6.27156">
        <ele>153.1</ele>
        <time>2023-03-05T13:59:18.000Z</time>
      </trkpt>
      <trkpt lat="43.22686" lon="6.27159">
        <ele>153.2</ele>
        <time>2023-03-05T13:59:24.000Z</time>
      </trkpt>
      <trkpt lat="43.22686" lon="6.27159">
        <ele>153.1</ele>
        <time>2023-03-05T13:59:25.000Z</time>
      </trkpt>
      <trkpt lat="43.22686" lon="6.27159">
        <ele>152.9</ele>
        <time>2023-03-05T13:59:26.000Z</time>
      </trkpt>
      <trkpt lat="43.22686" lon="6.2716">
        <ele>152.9</ele>
        <time>2023-03-05T13:59:29.000Z</time>
      </trkpt>
      <trkpt lat="43.22689" lon="6.27172">
        <ele>153</ele>
        <time>2023-03-05T13:59:36.000Z</time>
      </trkpt>
      <trkpt lat="43.22693" lon="6.27185">
        <ele>152.4</ele>
        <time>2023-03-05T13:59:44.000Z</time>
      </trkpt>
      <trkpt lat="43.22696" lon="6.27198">
        <ele>152.4</ele>
        <time>2023-03-05T13:59:52.000Z</time>
      </trkpt>
      <trkpt lat="43.22701" lon="6.2721">
        <ele>152.2</ele>
        <time>2023-03-05T13:59:59.000Z</time>
      </trkpt>
      <trkpt lat="43.22706" lon="6.27221">
        <ele>151.8</ele>
        <time>2023-03-05T14:00:07.000Z</time>
      </trkpt>
      <trkpt lat="43.2271" lon="6.27234">
        <ele>150.9</ele>
        <time>2023-03-05T14:00:15.000Z</time>
      </trkpt>
      <trkpt lat="43.22714" lon="6.27247">
        <ele>151.4</ele>
        <time>2023-03-05T14:00:27.000Z</time>
      </trkpt>
      <trkpt lat="43.22718" lon="6.27258">
        <ele>151.3</ele>
        <time>2023-03-05T14:00:35.000Z</time>
      </trkpt>
      <trkpt lat="43.22721" lon="6.27271">
        <ele>150.7</ele>
        <time>2023-03-05T14:00:43.000Z</time>
      </trkpt>
      <trkpt lat="43.22726" lon="6.27282">
        <ele>150.4</ele>
        <time>2023-03-05T14:00:51.000Z</time>
      </trkpt>
      <trkpt lat="43.22732" lon="6.27292">
        <ele>150.2</ele>
        <time>2023-03-05T14:01:00.000Z</time>
      </trkpt>
      <trkpt lat="43.22736" lon="6.27304">
        <ele>149.7</ele>
        <time>2023-03-05T14:01:08.000Z</time>
      </trkpt>
      <trkpt lat="43.2274" lon="6.27317">
        <ele>149.6</ele>
        <time>2023-03-05T14:01:17.000Z</time>
      </trkpt>
      <trkpt lat="43.22744" lon="6.27329">
        <ele>148.9</ele>
        <time>2023-03-05T14:01:26.000Z</time>
      </trkpt>
      <trkpt lat="43.22749" lon="6.2734">
        <ele>149.6</ele>
        <time>2023-03-05T14:01:36.000Z</time>
      </trkpt>
      <trkpt lat="43.22749" lon="6.2734">
        <ele>149.7</ele>
        <time>2023-03-05T14:01:37.000Z</time>
      </trkpt>
      <trkpt lat="43.22749" lon="6.27341">
        <ele>149.4</ele>
        <time>2023-03-05T14:01:41.000Z</time>
      </trkpt>
      <trkpt lat="43.22755" lon="6.2735">
        <ele>149</ele>
        <time>2023-03-05T14:01:48.000Z</time>
      </trkpt>
      <trkpt lat="43.22761" lon="6.2736">
        <ele>148.9</ele>
        <time>2023-03-05T14:01:55.000Z</time>
      </trkpt>
      <trkpt lat="43.22767" lon="6.2737">
        <ele>148.2</ele>
        <time>2023-03-05T14:02:04.000Z</time>
      </trkpt>
      <trkpt lat="43.22775" lon="6.27378">
        <ele>147.8</ele>
        <time>2023-03-05T14:02:12.000Z</time>
      </trkpt>
      <trkpt lat="43.22784" lon="6.27385">
        <ele>148.8</ele>
        <time>2023-03-05T14:02:21.000Z</time>
      </trkpt>
      <trkpt lat="43.22792" lon="6.27388">
        <ele>147.7</ele>
        <time>2023-03-05T14:02:27.000Z</time>
      </trkpt>
      <trkpt lat="43.22801" lon="6.27394">
        <ele>147.6</ele>
        <time>2023-03-05T14:02:34.000Z</time>
      </trkpt>
      <trkpt lat="43.22809" lon="6.27401">
        <ele>147</ele>
        <time>2023-03-05T14:02:43.000Z</time>
      </trkpt>
      <trkpt lat="43.22817" lon="6.2741">
        <ele>145.8</ele>
        <time>2023-03-05T14:02:52.000Z</time>
      </trkpt>
      <trkpt lat="43.22825" lon="6.27417">
        <ele>145.3</ele>
        <time>2023-03-05T14:03:00.000Z</time>
      </trkpt>
      <trkpt lat="43.22835" lon="6.27423">
        <ele>144.6</ele>
        <time>2023-03-05T14:03:08.000Z</time>
      </trkpt>
      <trkpt lat="43.22843" lon="6.27429">
        <ele>144.5</ele>
        <time>2023-03-05T14:03:17.000Z</time>
      </trkpt>
      <trkpt lat="43.22853" lon="6.2743">
        <ele>144.8</ele>
        <time>2023-03-05T14:03:25.000Z</time>
      </trkpt>
      <trkpt lat="43.22862" lon="6.27437">
        <ele>144</ele>
        <time>2023-03-05T14:03:33.000Z</time>
      </trkpt>
      <trkpt lat="43.2287" lon="6.27444">
        <ele>144</ele>
        <time>2023-03-05T14:03:41.000Z</time>
      </trkpt>
      <trkpt lat="43.22879" lon="6.27446">
        <ele>143.9</ele>
        <time>2023-03-05T14:03:49.000Z</time>
      </trkpt>
      <trkpt lat="43.22887" lon="6.27452">
        <ele>144</ele>
        <time>2023-03-05T14:03:58.000Z</time>
      </trkpt>
      <trkpt lat="43.22897" lon="6.27456">
        <ele>144.2</ele>
        <time>2023-03-05T14:04:06.000Z</time>
      </trkpt>
      <trkpt lat="43.22906" lon="6.27451">
        <ele>144.5</ele>
        <time>2023-03-05T14:04:13.000Z</time>
      </trkpt>
      <trkpt lat="43.22913" lon="6.27443">
        <ele>144.8</ele>
        <time>2023-03-05T14:04:22.000Z</time>
      </trkpt>
      <trkpt lat="43.22919" lon="6.27434">
        <ele>146</ele>
        <time>2023-03-05T14:04:33.000Z</time>
      </trkpt>
      <trkpt lat="43.22927" lon="6.27428">
        <ele>146.9</ele>
        <time>2023-03-05T14:04:41.000Z</time>
      </trkpt>
      <trkpt lat="43.22936" lon="6.27422">
        <ele>147.4</ele>
        <time>2023-03-05T14:04:50.000Z</time>
      </trkpt>
      <trkpt lat="43.2294" lon="6.27433">
        <ele>148.7</ele>
        <time>2023-03-05T14:05:07.000Z</time>
      </trkpt>
      <trkpt lat="43.22934" lon="6.27444">
        <ele>149.6</ele>
        <time>2023-03-05T14:05:19.000Z</time>
      </trkpt>
      <trkpt lat="43.22927" lon="6.27454">
        <ele>150.3</ele>
        <time>2023-03-05T14:05:28.000Z</time>
      </trkpt>
      <trkpt lat="43.22921" lon="6.27462">
        <ele>151.4</ele>
        <time>2023-03-05T14:05:38.000Z</time>
      </trkpt>
      <trkpt lat="43.22915" lon="6.27474">
        <ele>152.1</ele>
        <time>2023-03-05T14:05:47.000Z</time>
      </trkpt>
      <trkpt lat="43.22912" lon="6.27486">
        <ele>153.1</ele>
        <time>2023-03-05T14:05:58.000Z</time>
      </trkpt>
      <trkpt lat="43.22907" lon="6.27498">
        <ele>153.8</ele>
        <time>2023-03-05T14:06:07.000Z</time>
      </trkpt>
      <trkpt lat="43.22905" lon="6.2751">
        <ele>154.8</ele>
        <time>2023-03-05T14:06:16.000Z</time>
      </trkpt>
      <trkpt lat="43.22906" lon="6.27523">
        <ele>155.6</ele>
        <time>2023-03-05T14:06:25.000Z</time>
      </trkpt>
      <trkpt lat="43.22907" lon="6.27536">
        <ele>156.4</ele>
        <time>2023-03-05T14:06:34.000Z</time>
      </trkpt>
      <trkpt lat="43.22908" lon="6.27549">
        <ele>157.5</ele>
        <time>2023-03-05T14:06:44.000Z</time>
      </trkpt>
      <trkpt lat="43.22911" lon="6.27561">
        <ele>158.3</ele>
        <time>2023-03-05T14:06:54.000Z</time>
      </trkpt>
      <trkpt lat="43.22911" lon="6.27575">
        <ele>159.6</ele>
        <time>2023-03-05T14:07:06.000Z</time>
      </trkpt>
      <trkpt lat="43.22912" lon="6.27588">
        <ele>160.6</ele>
        <time>2023-03-05T14:07:17.000Z</time>
      </trkpt>
      <trkpt lat="43.22913" lon="6.27601">
        <ele>161.1</ele>
        <time>2023-03-05T14:07:26.000Z</time>
      </trkpt>
      <trkpt lat="43.22913" lon="6.27614">
        <ele>162.1</ele>
        <time>2023-03-05T14:07:36.000Z</time>
      </trkpt>
      <trkpt lat="43.22911" lon="6.27626">
        <ele>163.1</ele>
        <time>2023-03-05T14:07:47.000Z</time>
      </trkpt>
      <trkpt lat="43.22911" lon="6.27639">
        <ele>164.3</ele>
        <time>2023-03-05T14:07:59.000Z</time>
      </trkpt>
      <trkpt lat="43.22914" lon="6.27651">
        <ele>165.5</ele>
        <time>2023-03-05T14:08:09.000Z</time>
      </trkpt>
    </trkseg>
  </trk>
</gpx>